GFSSGP_500_spd_000.txt.gz
Wind_Speed
23 19 18 20 17 16 16 16 17 17 19 22 24 26 29 31 31 30 29 28 27 27 27 31 35 37 39 40 40 41 41 40 40 40 37 36 37 43 43 43 43 42 40 39 38 39 42 44 49
21 24 20 20 16 17 10 17 17 18 20 22 24 28 30 32 31 30 29 28 27 28 30 34 36 38 40 42 42 43 42 42 41 40 39 38 36 39 43 43 42 41 40 39 39 40 43 44 45
24 28 25 19 15 16 18 18 18 19 22 23 25 27 32 31 30 29 29 28 28 30 32 34 36 38 40 41 42 43 44 44 44 43 40 38 37 36 37 38 39 38 38 38 37 41 42 44 44
31 31 24 19 18 17 16 18 20 23 24 26 28 30 30 29 28 28 26 27 28 30 33 34 36 37 40 42 43 43 43 44 44 41 42 40 39 37 35 37 38 37 38 38 37 40 42 43 43
33 28 21 18 19 18 18 20 22 25 28 29 29 30 28 25 26 25 26 26 26 30 32 33 35 38 40 42 44 43 45 47 47 45 44 43 41 40 42 43 41 40 38 39 37 39 42 43 43
33 24 19 19 19 20 20 21 23 27 29 30 31 28 27 25 25 24 25 26 27 32 32 33 36 39 41 44 44 46 47 46 45 42 40 38 38 38 39 37 39 39 39 37 37 39 41 45 46
31 26 24 20 19 20 22 23 25 27 28 32 31 29 28 27 27 26 26 26 29 32 33 34 38 40 44 45 46 46 44 42 41 40 37 35 34 33 32 33 34 37 39 36 37 38 39 45 47
35 29 27 21 18 22 24 24 26 26 28 29 32 31 30 28 28 27 26 27 31 32 33 35 38 43 46 47 45 42 43 41 41 40 38 37 37 37 37 36 35 34 38 36 38 41 37 42 49
35 30 25 19 21 20 24 22 24 26 29 28 30 29 28 26 26 26 27 28 32 34 34 36 39 43 46 45 41 40 40 41 38 38 37 36 35 36 38 38 37 36 36 36 38 41 38 42 45
32 25 23 23 24 21 21 20 25 26 26 27 30 28 25 25 25 26 26 28 33 36 35 37 41 44 46 40 38 37 42 40 37 34 29 28 31 32 33 35 37 39 39 38 39 41 40 42 45
30 25 27 26 25 21 20 19 21 25 27 28 33 29 26 27 26 26 26 30 35 37 36 37 40 43 42 38 36 39 42 38 34 26 24 23 24 25 26 29 32 36 39 38 42 41 40 42 43
32 27 29 25 21 23 21 23 22 26 30 33 34 29 29 28 26 25 27 30 34 36 36 36 40 42 37 36 35 37 35 28 27 28 23 22 19 21 21 21 26 35 38 36 38 44 40 40 43
33 28 31 28 22 23 22 21 23 26 30 31 31 30 30 30 26 26 27 29 33 35 33 35 38 40 35 35 36 36 31 28 26 27 22 19 16 16 18 19 19 24 35 37 35 43 44 41 40
34 31 32 35 26 21 23 24 25 28 27 25 26 30 30 31 27 25 26 29 33 34 31 34 36 34 33 34 34 33 31 29 27 27 14 15 13 12 12 16 20 22 27 34 37 36 44 44 41
31 34 33 28 26 29 31 27 30 30 26 25 25 29 30 31 30 25 27 29 33 33 30 34 35 30 31 31 30 30 27 27 25 23 13 10 9 6 8 12 20 24 24 33 37 39 42 46 46
32 33 27 28 30 37 35 30 25 29 26 26 26 27 29 32 32 29 30 30 31 30 30 32 33 28 30 27 26 26 26 26 21 21 14 7 5 6 0 7 16 22 27 35 38 39 45 46 44
32 28 25 27 32 33 33 27 21 24 33 25 27 27 29 31 31 32 28 28 29 28 29 29 28 26 27 25 26 24 25 25 23 18 17 5 3 2 2 6 14 21 26 31 34 39 46 45 42
27 27 29 26 31 25 23 29 26 25 29 28 28 28 26 29 31 31 27 28 27 26 27 27 23 24 25 22 27 21 20 21 20 19 15 4 2 3 6 9 12 22 25 29 33 39 45 42 42
28 26 25 25 30 29 30 32 28 30 30 28 26 27 26 28 30 26 26 26 26 24 25 24 20 23 22 17 20 18 20 16 23 26 21 16 9 8 9 12 16 21 25 28 33 37 37 38 39
25 21 23 28 30 34 33 32 31 29 29 27 24 23 24 28 31 28 27 23 23 23 24 21 18 21 20 12 17 17 19 16 23 23 25 23 18 10 9 12 16 20 26 29 28 33 35 38 40
20 20 22 28 32 35 34 28 30 25 26 24 22 26 24 30 31 25 24 21 20 20 21 18 15 17 17 15 18 14 14 19 21 20 21 24 20 13 10 11 16 22 25 29 31 34 35 37 42
24 21 24 29 32 32 30 28 28 26 25 23 24 24 25 28 23 22 20 18 19 18 17 16 13 15 13 15 21 14 8 11 16 21 17 16 17 16 9 11 17 23 26 28 32 35 35 38 42
24 26 27 30 30 31 24 29 24 25 20 19 20 22 25 19 19 20 17 15 17 16 15 16 14 13 12 14 20 14 8 12 15 15 14 14 17 17 16 10 14 20 26 27 32 36 37 38 38
28 29 28 27 30 32 23 26 19 17 18 14 16 21 18 14 18 17 14 15 16 13 14 15 13 9 11 12 16 14 11 9 11 15 14 14 17 17 14 12 14 17 21 27 33 37 38 37 41
28 27 26 28 26 23 24 24 17 19 19 16 18 17 16 15 18 16 12 14 14 11 11 12 11 10 8 11 14 16 13 12 17 14 12 19 18 19 17 13 16 18 19 25 30 35 38 40 40
26 26 25 24 21 15 24 20 11 21 18 17 18 12 11 11 13 14 10 14 11 10 9 10 12 11 4 7 11 12 13 11 15 18 18 13 14 18 18 21 20 22 22 27 30 33 37 44 38
29 27 24 25 25 27 18 17 15 16 17 16 15 11 11 10 12 10 11 13 8 8 8 9 11 10 3 4 6 8 12 10 15 18 20 20 14 15 15 18 16 20 28 24 29 33 36 27 36
31 27 25 23 25 21 11 9 9 11 15 16 15 12 11 12 9 7 11 11 6 6 7 8 11 9 2 2 4 7 10 9 12 14 14 18 16 17 15 17 20 25 22 28 26 29 26 23 22
33 28 24 27 24 17 12 8 17 14 17 15 17 13 13 11 10 6 12 8 5 4 7 8 11 6 2 4 2 5 7 8 9 10 14 17 15 18 18 19 22 24 26 23 20 24 27 29 21
37 30 29 28 27 24 19 11 19 14 18 13 15 15 11 9 8 6 10 5 4 4 6 8 9 5 2 5 2 4 5 4 7 10 13 18 19 22 21 25 24 20 16 17 14 21 19 27 27

GFSSGP_500_spd_003.txt.gz
Wind_Speed
17 20 19 18 16 13 10 14 17 18 20 20 23 24 26 29 29 33 32 33 30 31 33 32 33 34 36 38 40 41 41 41 42 43 43 42 40 41 42 42 43 46 48 45 41 41 41 39 41
22 21 25 21 11 2 12 13 25 23 23 24 25 26 29 31 32 35 35 32 34 34 32 34 30 35 37 39 39 39 41 43 45 46 46 44 43 42 44 44 44 45 48 46 43 41 40 39 39
23 25 26 18 9 7 15 8 27 25 24 25 28 27 29 35 33 34 34 33 34 35 33 31 34 35 37 38 40 42 44 46 48 48 47 46 46 44 44 43 42 44 46 46 43 42 40 40 40
24 25 22 11 5 12 21 26 24 23 28 28 28 30 31 31 33 33 34 33 33 34 34 34 35 36 36 38 41 44 48 49 49 49 49 49 47 46 46 45 44 42 43 43 41 41 40 40 43
24 25 22 12 13 16 25 21 22 20 22 24 32 28 34 28 32 33 34 33 33 31 32 37 33 35 36 39 42 48 49 49 50 50 49 47 46 47 47 45 45 44 41 39 39 39 39 37 42
25 28 25 12 16 15 24 29 21 21 21 19 31 28 33 32 32 32 33 33 32 31 31 34 33 34 37 40 45 49 49 48 45 45 45 45 44 43 40 39 42 45 45 43 40 39 39 38 40
26 30 30 26 18 21 21 33 25 23 21 18 32 29 34 32 32 34 34 32 31 31 31 33 35 35 36 42 48 48 46 43 42 43 45 44 42 40 40 38 34 38 40 40 41 40 39 39 39
29 34 29 24 18 17 19 33 28 26 25 28 30 32 32 35 32 36 35 30 31 29 31 34 35 34 39 45 45 46 41 39 40 43 43 38 38 36 38 38 37 34 34 36 39 38 37 40 39
35 34 28 20 18 22 19 20 25 33 27 33 33 31 32 33 38 34 34 32 31 31 32 33 36 38 41 45 46 41 38 39 39 35 35 35 33 33 28 34 37 39 37 33 36 38 36 41 41
37 36 28 23 26 28 26 23 21 31 27 30 28 29 30 35 32 35 34 33 31 30 34 36 37 38 42 44 42 39 38 42 39 39 34 32 32 31 30 31 34 35 39 36 32 35 36 42 41
41 32 29 28 29 30 29 24 23 28 28 22 35 35 33 30 30 31 31 30 31 33 35 37 37 38 42 44 39 38 41 40 38 37 31 30 28 27 29 29 28 30 32 35 35 35 39 44 40
44 37 29 31 28 32 32 29 29 31 31 31 32 33 33 30 29 30 31 30 29 30 34 36 37 39 41 39 37 37 36 35 33 33 32 31 23 26 25 21 21 23 29 34 31 36 40 44 42
41 37 29 29 31 33 39 35 31 27 30 29 30 30 27 29 31 29 31 31 31 33 35 36 36 40 39 35 35 34 32 32 33 32 29 27 19 20 20 19 21 20 24 32 33 37 41 43 40
38 37 28 28 31 31 35 26 36 29 40 35 29 26 29 29 30 31 32 33 33 33 34 34 36 38 35 33 33 30 30 33 33 34 32 23 17 17 17 16 17 20 23 32 36 36 42 43 41
37 32 30 29 29 33 34 29 34 35 41 32 25 27 29 30 30 32 33 33 32 32 33 33 36 36 31 33 30 30 30 31 34 33 33 19 12 14 15 11 12 17 18 32 40 34 43 42 40
30 29 28 22 26 35 34 27 19 35 33 30 26 28 28 30 30 30 33 32 29 33 33 33 36 33 29 31 28 27 27 26 30 27 27 20 8 11 11 8 12 17 17 26 37 36 44 42 38
30 27 25 23 23 31 36 30 17 26 29 29 30 31 29 29 29 28 30 30 29 32 31 32 34 29 28 29 24 25 24 22 23 29 19 13 8 7 8 4 10 17 20 24 33 38 41 45 40
23 21 24 23 19 27 29 29 23 25 29 29 33 30 28 29 28 28 31 32 29 30 29 32 32 26 27 24 17 22 22 23 23 24 23 15 6 3 4 1 8 15 20 24 33 37 39 43 42
22 23 24 24 22 25 32 33 26 25 33 33 27 28 27 28 28 30 33 34 28 28 26 29 28 23 23 17 19 20 17 23 21 18 21 18 4 2 2 3 8 14 18 25 30 35 40 44 45
27 28 26 23 22 30 32 30 29 32 29 23 25 26 27 29 29 29 34 29 27 24 25 26 25 21 19 19 20 18 14 19 18 15 19 20 8 4 2 5 9 13 17 22 28 32 38 41 41
28 28 24 23 21 29 29 28 23 22 24 25 25 24 26 26 26 29 28 27 23 22 23 24 23 18 18 16 21 17 14 14 14 16 16 18 9 5 5 7 11 16 17 21 26 31 39 40 40
30 24 23 27 27 25 21 25 24 20 22 23 24 20 21 23 23 24 23 23 20 20 22 23 21 17 17 16 21 17 13 12 16 15 14 15 16 7 4 8 12 15 21 23 26 31 34 35 36
27 26 24 29 30 27 24 24 17 21 18 20 17 18 17 20 19 19 21 18 17 19 20 21 18 17 15 15 18 17 14 13 13 15 13 14 12 12 5 8 13 18 22 24 26 30 32 35 36
30 30 31 29 26 26 20 20 14 12 20 19 16 17 21 19 17 20 20 16 16 18 20 18 16 15 14 12 16 16 11 13 13 11 11 13 13 10 6 8 13 20 22 25 28 29 33 35 38
34 32 30 24 19 19 15 18 15 16 21 20 18 19 19 16 17 16 14 14 15 16 19 16 13 14 13 10 13 15 15 16 14 5 9 12 13 11 8 9 11 18 21 24 27 30 31 34 38
30 26 23 17 14 14 23 25 6 17 20 18 15 16 15 12 14 13 11 12 15 14 17 14 11 13 11 8 10 13 16 13 11 13 10 9 11 14 13 12 14 14 20 25 27 27 28 34 37
31 30 20 22 25 18 17 19 23 25 16 17 15 12 12 14 14 12 9 11 15 12 14 12 11 13 9 6 9 11 13 11 14 14 15 11 9 13 11 11 12 14 18 25 28 28 30 30 32
35 25 23 22 22 21 16 16 11 19 9 20 16 15 12 14 14 10 9 12 10 10 11 11 11 12 6 3 7 9 11 11 13 13 15 13 9 13 11 9 14 17 17 22 25 26 28 29 30
35 35 29 25 21 14 12 10 20 19 19 11 18 15 13 13 10 7 8 11 6 8 9 11 10 8 7 1 5 8 8 10 12 12 12 14 12 13 14 15 18 17 21 20 24 25 31 28 36
35 35 30 30 23 21 17 13 27 28 15 9 18 15 10 12 12 5 7 7 3 7 8 11 9 9 7 4 7 9 9 10 10 14 14 18 16 14 15 19 18 23 19 23 20 21 19 30 21

GFSSGP_500_spd_006.txt.gz
Wind_Speed
16 21 24 25 22 16 5 14 21 12 20 36 24 25 28 32 32 32 33 31 34 36 34 34 37 36 34 35 37 38 37 38 41 43 43 44 45 47 49 49 48 46 45 45 43 41 39 43 48
21 22 25 25 17 6 15 20 12 18 28 38 33 32 31 34 32 35 34 30 31 35 34 32 34 34 34 36 38 38 38 39 42 45 47 49 49 48 50 50 47 47 46 46 45 44 42 41 46
25 23 24 23 17 1 20 11 23 28 29 34 32 34 36 31 32 33 33 34 36 37 35 33 35 36 35 38 37 37 39 42 44 47 49 50 49 48 48 49 49 48 47 47 46 46 43 40 44
24 23 22 22 9 9 19 27 29 40 38 34 35 31 37 29 30 32 32 34 35 38 40 34 31 34 37 38 37 36 39 43 46 48 49 48 47 47 47 47 48 49 48 46 45 46 43 42 43
32 26 23 22 14 23 13 26 35 31 30 21 30 31 38 34 30 34 33 34 36 37 39 38 37 36 39 38 36 37 40 44 47 47 45 44 46 47 48 48 48 48 46 46 47 45 45 42 42
27 23 23 16 12 26 24 20 25 35 30 21 29 37 39 38 31 33 33 34 36 38 36 37 36 37 37 39 38 39 42 46 47 44 42 45 43 41 43 46 47 47 43 41 45 46 44 41 43
21 25 25 25 22 13 16 33 35 34 36 29 35 35 36 43 30 32 32 37 39 36 35 36 38 35 36 39 38 41 45 46 44 41 43 45 42 41 41 39 42 42 41 39 42 47 43 41 43
22 25 24 28 22 15 24 20 26 27 32 34 36 32 35 38 34 35 39 35 36 34 34 34 34 36 40 38 35 42 45 43 41 42 45 46 44 43 35 35 36 37 37 38 35 43 48 42 42
26 30 29 30 19 21 18 18 25 28 35 37 40 37 31 30 32 35 35 35 34 32 31 28 31 35 38 38 39 43 44 41 41 42 41 42 40 38 33 32 30 32 30 36 35 36 44 45 44
32 37 32 28 20 29 30 31 29 29 26 30 37 48 40 34 31 28 29 29 30 27 28 29 32 35 36 37 42 42 41 40 39 40 37 35 35 34 33 31 29 28 28 34 37 33 39 42 43
37 39 35 30 27 33 31 29 28 24 33 34 37 41 47 32 24 24 30 29 31 29 31 33 33 35 35 38 41 41 39 38 38 35 35 35 34 31 30 24 27 30 31 32 36 35 34 40 41
45 40 37 32 32 31 27 26 27 30 31 34 40 35 39 42 29 25 25 27 26 26 27 30 33 34 35 39 40 38 38 35 35 34 38 33 32 32 24 23 25 26 22 29 33 36 34 37 40
41 39 35 36 36 29 26 25 28 31 30 31 41 39 36 29 23 25 29 28 29 30 31 31 34 35 37 39 37 37 34 35 33 29 34 31 33 25 21 21 20 20 19 21 30 31 36 37 38
44 37 34 39 29 23 25 28 33 23 32 36 33 32 25 26 28 26 28 30 31 31 31 33 35 35 38 37 35 35 32 31 28 30 30 36 32 21 15 18 16 16 19 20 28 30 35 35 37
38 37 37 34 27 24 25 31 29 23 31 31 34 31 27 28 30 30 28 29 31 32 31 34 34 33 36 34 33 30 26 26 28 28 27 30 28 14 12 16 14 12 19 18 27 32 32 35 39
33 35 34 21 23 23 30 35 34 24 25 33 35 31 33 31 30 31 30 30 31 34 30 33 33 34 35 31 32 24 24 24 28 26 28 28 22 14 13 13 11 10 14 18 25 34 33 35 38
28 29 27 20 18 22 27 38 35 27 22 29 32 32 35 36 28 30 30 31 31 32 31 32 30 33 32 28 29 22 26 23 29 25 25 28 17 13 13 11 8 7 11 15 29 36 34 34 39
20 21 19 16 11 20 32 30 31 34 25 31 32 38 39 30 30 28 30 31 31 31 30 29 28 31 28 27 26 26 24 21 25 25 25 27 15 13 10 10 4 6 8 10 27 34 32 36 36
18 15 19 14 16 21 18 23 32 35 31 28 27 37 33 35 29 27 28 30 31 31 28 26 27 28 25 27 25 27 22 19 21 24 24 23 12 9 7 6 2 4 11 13 23 31 32 36 37
25 22 22 22 23 28 28 28 35 31 20 20 23 23 26 33 27 25 26 29 30 27 26 24 26 26 24 25 23 22 19 19 19 23 24 19 12 7 6 4 1 5 10 17 22 29 29 36 34
30 26 23 21 23 24 24 31 28 18 21 25 25 29 22 25 23 24 23 26 25 24 23 22 25 25 23 23 22 19 19 18 19 19 22 15 15 6 3 2 3 7 11 16 23 29 30 37 37
29 20 16 23 25 27 19 28 24 22 18 23 31 30 20 21 17 19 19 23 23 23 22 20 23 22 20 19 21 20 16 17 17 19 19 19 11 8 3 1 4 8 13 18 23 28 31 36 36
25 17 21 28 26 27 29 30 16 11 13 20 30 39 25 18 21 20 20 24 22 21 21 20 20 20 19 17 16 16 16 19 16 15 16 19 17 13 4 5 6 11 13 18 21 25 18 43 25
23 22 28 28 25 30 22 19 11 5 16 23 30 33 22 21 21 19 21 19 17 18 17 20 18 16 17 14 14 15 18 18 15 10 15 18 15 12 6 5 8 14 16 20 19 21 23 28 27
25 32 31 28 27 26 12 15 15 16 26 34 24 16 23 18 16 18 20 17 15 17 15 18 16 13 15 12 12 14 17 19 12 11 16 16 16 9 8 7 10 15 15 18 21 22 23 23 25
33 32 29 28 22 8 16 22 17 27 26 21 18 17 20 16 14 18 19 14 15 16 14 16 14 12 12 10 11 14 16 18 15 16 17 10 10 11 11 10 10 13 16 17 20 23 25 28 28
34 31 23 26 20 24 13 12 16 27 25 30 22 17 15 17 15 18 17 12 16 11 14 15 15 12 9 7 10 13 16 14 16 17 23 9 8 9 10 14 11 16 16 18 17 18 25 25 26
32 26 29 26 25 25 19 16 18 26 26 23 24 24 15 15 15 17 12 12 13 9 12 15 14 9 8 5 10 12 12 12 13 18 18 11 10 10 8 11 13 15 17 17 17 19 23 26 27
33 37 35 27 21 17 12 7 19 31 23 30 32 25 14 15 14 14 7 11 7 8 11 15 12 9 9 3 10 11 10 11 13 19 22 12 12 13 12 13 14 17 17 15 16 17 19 21 23
29 31 34 29 24 24 20 16 26 23 27 31 28 17 15 13 12 8 5 7 6 8 10 13 13 10 10 9 8 10 10 12 12 18 21 15 12 16 15 15 16 19 20 19 18 17 17 18 21

GFSSGP_500_spd_009.txt.gz
Wind_Speed
13 16 20 22 22 16 13 12 1 20 22 29 32 35 34 38 38 35 31 33 35 35 32 29 31 31 32 32 32 33 34 35 34 34 35 37 40 43 44 43 41 41 42 42 41 40 38 38 39
15 18 19 21 21 19 17 10 9 19 31 36 37 38 38 43 38 36 36 36 33 33 28 27 32 35 32 32 33 35 36 36 36 36 37 39 40 43 45 46 45 44 43 42 42 42 42 42 41
16 22 23 29 20 16 11 18 22 23 29 34 39 43 47 46 38 35 36 36 33 35 32 29 30 32 34 32 34 36 36 36 36 37 40 42 44 44 42 42 43 41 39 40 41 42 45 46 44
21 29 38 25 18 9 13 17 22 21 31 35 40 46 43 41 36 31 33 35 35 35 34 32 32 31 30 32 34 35 36 37 37 39 42 44 46 44 42 40 38 38 37 38 41 43 44 47 47
30 35 34 17 11 11 14 22 24 23 26 34 39 42 44 40 36 34 36 35 37 37 38 38 37 37 34 33 32 34 35 36 37 40 43 45 43 41 41 39 39 40 42 41 42 45 45 47 47
28 29 29 16 13 13 18 26 28 26 29 29 35 39 38 39 35 35 35 32 37 39 41 38 36 35 34 32 34 36 35 34 37 41 42 40 39 41 43 44 44 45 44 43 40 45 44 45 47
27 28 27 19 14 13 11 28 31 27 28 30 32 38 38 40 35 33 35 37 39 34 36 32 32 33 32 31 34 36 36 37 40 39 38 37 39 41 43 44 45 45 44 39 38 40 42 42 46
24 32 28 20 21 17 14 19 23 22 26 36 41 39 39 39 31 37 41 39 32 27 27 26 27 26 28 30 31 31 32 36 39 37 37 37 39 42 43 40 40 40 36 36 36 36 38 38 43
32 38 31 25 26 24 18 18 28 27 34 39 42 40 37 36 34 40 40 31 24 22 23 25 22 24 27 28 31 33 34 36 36 37 36 37 36 38 39 39 36 34 32 34 36 34 35 35 40
37 41 27 29 27 28 22 22 24 28 29 35 37 41 39 32 33 37 33 31 29 26 23 26 25 27 30 32 33 33 35 34 35 34 35 37 36 40 39 33 30 31 26 27 30 30 31 33 36
40 41 35 37 35 24 21 17 21 26 31 30 33 35 36 33 34 28 26 23 24 27 27 29 28 27 30 33 32 34 35 34 35 35 35 35 36 36 36 33 31 25 23 26 28 28 29 32 34
51 51 46 28 28 23 25 23 18 28 26 28 35 31 31 32 20 22 25 27 29 31 31 30 29 30 31 32 33 34 32 34 30 33 31 29 31 37 35 29 23 22 25 28 31 31 31 34 32
55 56 43 34 31 29 29 22 23 28 20 29 34 32 27 26 24 21 23 25 28 27 29 31 30 31 31 32 34 33 33 31 27 25 27 30 32 35 27 17 16 20 24 25 24 29 31 34 32
49 32 26 30 33 32 25 25 26 21 17 28 32 30 29 29 26 25 23 28 28 28 31 32 32 31 30 32 33 32 34 26 27 30 29 27 33 29 23 14 18 21 21 21 21 24 29 34 30
28 27 28 34 35 20 23 26 20 19 20 28 35 28 27 24 30 29 23 29 32 32 31 34 31 29 28 32 30 30 26 26 29 29 31 27 30 25 19 15 17 16 15 17 17 22 27 33 32
29 25 25 23 18 7 17 20 17 25 25 25 31 27 32 36 37 28 21 26 30 31 30 32 31 27 29 31 29 31 29 29 30 27 27 27 29 23 18 17 15 11 11 14 13 22 26 31 32
24 20 20 9 7 7 10 20 19 26 35 25 27 33 30 34 40 33 26 30 31 32 30 29 28 26 29 30 28 30 30 29 27 26 26 26 27 20 17 16 11 6 8 12 14 23 29 24 29
18 21 18 8 5 10 14 29 24 28 30 31 31 37 37 34 40 30 27 28 30 30 30 29 25 25 28 29 27 28 30 25 22 22 26 24 22 18 15 13 8 3 4 8 16 24 29 27 30
22 24 20 15 6 17 22 17 15 17 26 26 28 22 23 32 35 36 25 26 29 28 29 27 23 25 27 27 25 26 25 23 22 21 24 23 19 15 11 9 6 2 3 4 21 28 29 28 30
24 25 22 16 12 17 22 21 22 24 28 29 27 24 26 22 29 29 21 21 24 26 27 22 21 24 25 25 24 25 25 20 22 19 22 23 18 12 9 6 4 2 6 10 22 30 28 26 32
26 26 17 22 17 25 25 32 34 31 29 26 22 25 28 27 31 23 21 21 22 25 26 20 20 22 22 23 22 22 19 21 23 20 19 21 13 10 7 3 1 4 10 15 25 27 27 29 32
29 20 20 22 18 25 26 31 26 20 20 15 12 27 30 34 33 21 20 20 22 24 21 18 19 19 21 22 20 20 21 23 22 16 15 20 17 12 4 3 3 5 11 14 23 27 27 29 31
24 22 20 13 10 17 27 30 13 16 13 13 18 26 32 37 23 19 18 19 22 21 16 15 18 17 18 19 16 19 22 22 16 14 17 18 17 11 4 5 5 7 11 16 20 27 26 24 32
22 22 18 11 17 32 26 26 7 7 9 18 26 30 35 38 17 18 17 20 22 16 16 14 16 16 17 15 15 18 20 15 13 15 18 18 14 9 6 6 8 10 14 18 20 24 18 25 31
23 15 23 26 31 22 15 19 6 8 7 17 25 27 26 16 16 17 17 19 18 16 14 15 15 15 16 11 13 15 15 15 16 19 19 12 14 9 8 9 11 13 16 19 18 21 18 23 28
26 27 30 30 28 9 7 10 15 11 11 20 24 23 27 17 17 18 17 18 16 17 11 13 16 16 13 7 11 14 15 14 19 20 15 16 14 11 9 10 12 12 14 20 20 17 18 18 26
30 32 20 28 24 16 12 9 16 13 15 22 29 27 26 28 21 17 17 14 14 10 10 14 14 11 9 6 10 14 15 15 20 19 15 13 13 12 13 11 13 12 14 16 17 18 19 18 19
33 26 33 34 32 27 21 19 17 22 20 27 30 27 31 20 21 16 14 11 13 7 10 14 12 10 8 5 11 13 13 14 19 19 14 15 15 13 12 13 17 14 14 15 15 18 18 19 20
34 38 39 32 25 21 18 16 16 17 23 26 27 27 29 21 20 15 13 10 6 6 11 13 12 10 9 7 9 10 11 14 22 19 16 18 18 14 15 17 19 17 16 15 15 20 19 20 21
32 39 40 35 28 23 16 9 14 16 21 24 22 21 25 13 12 11 7 10 5 6 12 13 13 9 10 12 11 11 11 12 19 21 18 18 19 20 15 18 19 19 19 19 18 19 19 20 22

GFSSGP_500_spd_012.txt.gz
Wind_Speed
13 12 9 10 17 21 14 18 20 24 20 26 30 29 30 31 32 37 41 38 36 37 34 34 34 33 33 31 32 30 30 30 30 31 31 31 33 33 34 36 36 36 37 36 36 35 35 35 35
16 17 13 20 25 25 24 22 15 18 21 25 28 26 26 32 32 31 31 36 34 33 30 32 33 33 33 31 31 31 30 31 32 31 32 33 33 35 39 40 40 38 37 37 36 35 35 37 37
20 19 18 24 21 22 16 19 19 17 20 22 28 32 34 32 30 28 31 33 33 34 34 34 33 34 32 32 33 34 33 33 33 33 34 34 34 36 38 41 44 41 37 35 33 33 34 36 37
21 22 26 25 28 18 18 20 19 17 18 27 31 34 35 28 29 31 33 34 34 34 36 35 36 35 36 31 31 33 33 33 34 34 34 34 36 39 40 41 42 42 39 34 33 34 36 37 37
22 28 24 27 19 17 20 20 14 21 27 26 25 33 32 34 31 30 30 31 33 35 37 36 30 32 27 27 28 28 30 34 34 34 34 36 39 41 44 43 38 38 38 39 40 41 40 40 39
32 29 29 27 20 20 23 23 19 22 29 29 30 26 33 34 34 32 32 29 32 32 29 28 29 29 28 27 25 29 32 35 34 34 34 38 39 42 40 36 38 41 42 42 42 43 43 41 42
33 33 31 27 21 17 26 25 22 23 15 22 28 27 35 30 32 33 29 28 31 24 23 25 26 28 31 30 31 33 35 38 39 37 36 37 37 38 36 36 39 42 42 40 41 42 42 42 43
35 38 32 26 25 23 27 27 32 20 23 26 30 31 30 31 27 31 27 26 26 21 25 30 36 35 39 34 32 31 32 33 36 37 36 35 35 35 36 39 36 38 38 40 40 41 40 41 42
40 44 31 27 30 30 29 29 28 27 26 32 35 34 35 30 21 26 25 23 18 18 21 27 34 33 33 32 32 31 31 31 34 35 33 33 33 35 38 38 40 42 39 38 39 38 39 40 42
42 41 33 31 30 33 34 35 26 23 23 28 36 39 36 29 23 22 20 19 22 26 22 26 30 29 31 31 32 31 30 32 33 31 30 29 32 34 35 35 35 39 39 36 36 37 38 39 41
39 45 39 39 39 37 42 26 17 18 25 26 31 34 30 28 22 20 22 24 27 28 27 28 29 31 34 33 31 30 30 31 31 31 26 25 28 32 32 36 39 39 36 37 34 31 32 33 36
48 46 45 42 45 48 34 28 18 17 24 26 31 30 25 23 19 21 23 25 30 30 31 31 33 36 35 31 29 31 32 30 32 28 25 29 31 31 31 36 31 29 29 28 28 27 27 29 33
52 47 48 49 50 37 31 26 17 17 22 25 27 27 26 24 24 23 22 28 32 31 32 32 34 36 32 30 29 31 30 29 27 23 26 30 31 31 32 30 25 23 21 22 26 29 28 31 31
49 53 52 52 36 27 26 16 21 13 19 21 24 26 28 26 27 24 25 20 25 30 31 31 32 34 32 28 29 32 30 32 29 30 29 27 31 30 32 26 20 20 23 24 24 26 27 29 33
59 54 48 29 26 16 22 21 14 12 19 14 18 22 26 26 26 25 22 24 28 31 31 30 32 33 30 27 30 31 30 30 31 30 26 25 30 29 29 20 19 21 21 21 21 22 22 26 31
54 45 21 17 20 6 23 12 13 13 14 14 22 22 28 32 30 32 25 27 33 32 36 31 32 32 28 27 30 30 28 28 28 24 22 25 28 27 23 19 18 19 16 14 15 18 19 25 30
41 27 21 11 15 16 24 17 16 13 16 16 15 21 30 31 32 29 28 29 30 36 35 29 32 31 27 28 28 28 27 28 26 28 22 22 25 23 20 18 17 15 10 9 14 15 19 25 30
29 25 21 16 13 22 23 15 12 16 13 13 14 17 28 28 26 23 28 31 30 29 30 28 32 28 26 29 27 28 27 28 27 24 22 23 24 23 18 16 14 10 7 10 14 16 21 23 23
30 29 25 17 23 26 22 18 10 8 17 15 16 28 22 29 19 26 30 32 30 27 27 27 31 27 26 27 26 26 25 26 24 25 23 21 24 20 17 13 12 7 6 9 14 22 28 26 25
31 29 28 20 25 26 21 23 15 10 19 21 26 22 25 29 27 27 28 30 29 25 26 29 29 25 26 24 26 25 25 25 27 25 18 19 22 16 14 9 9 5 5 6 20 28 27 23 26
32 31 22 21 26 30 24 25 22 15 21 26 27 23 25 26 29 26 28 32 23 22 26 28 23 23 24 22 24 22 24 26 24 21 15 19 20 17 10 5 4 2 4 8 24 28 24 25 28
40 24 22 25 26 25 24 25 23 21 21 25 21 17 21 22 26 27 33 25 18 23 25 21 22 22 20 21 21 21 23 26 19 17 18 19 19 12 4 2 2 5 8 15 25 27 23 26 29
29 28 25 22 26 25 31 29 10 15 17 17 11 10 19 27 28 30 20 16 18 23 19 22 20 20 18 20 17 19 20 20 19 20 23 20 13 7 1 2 4 8 11 16 23 22 23 27 28
29 33 28 30 27 34 21 24 5 8 10 7 12 15 19 25 21 18 17 16 17 20 20 21 19 17 16 18 14 17 19 18 22 22 16 11 10 8 5 5 6 10 14 20 21 19 24 26 23
41 39 36 36 39 24 16 16 6 7 11 12 11 12 17 22 25 19 19 16 19 18 21 17 16 15 15 13 11 15 18 18 20 17 12 9 9 8 8 9 9 12 17 20 23 17 25 24 24
45 41 40 37 29 17 15 18 10 5 13 12 12 11 16 20 24 18 16 15 15 16 17 14 13 10 12 7 10 15 16 16 19 13 9 7 9 7 10 12 12 14 18 21 24 16 19 24 22
39 37 27 30 25 23 16 18 15 12 9 13 13 17 17 24 19 19 16 14 14 16 12 12 9 10 9 7 12 14 13 16 15 12 10 10 8 9 11 14 13 16 16 22 20 17 21 17 22
32 31 35 33 25 26 21 23 15 13 13 12 14 16 21 24 19 17 15 11 13 9 8 10 6 7 8 7 9 9 11 17 15 12 14 12 13 10 11 15 14 16 17 19 20 20 24 18 24
36 42 41 30 25 21 17 17 13 15 20 16 12 16 23 27 16 13 9 8 9 6 7 7 5 6 7 7 9 9 10 14 14 14 15 15 14 13 14 16 15 15 16 17 18 19 21 25 27
30 33 33 30 32 25 20 17 15 18 18 11 11 15 20 24 8 11 5 8 6 4 5 6 6 5 8 8 10 11 10 13 16 12 14 14 15 15 16 17 17 17 16 16 20 20 21 22 23

GFSSGP_500_spd_015.txt.gz
Wind_Speed
12 13 14 14 14 18 24 26 25 22 23 26 28 25 20 20 24 29 32 34 36 33 35 35 35 36 37 36 34 33 34 30 29 30 30 30 30 31 31 31 32 32 31 32 33 34 33 34 34
15 17 17 18 20 25 24 20 25 26 24 22 23 23 19 17 22 25 29 28 27 29 31 33 34 35 36 39 39 38 33 31 29 30 29 31 32 33 33 33 34 34 34 34 34 36 36 36 36
21 21 20 20 25 24 18 21 24 27 23 26 26 25 21 20 24 26 25 26 27 27 29 31 33 34 36 37 36 37 35 31 31 31 30 33 34 36 37 37 36 36 36 35 35 37 38 38 38
23 24 22 23 25 22 19 21 25 26 32 29 29 29 19 20 25 25 23 25 26 27 29 31 31 31 31 31 32 32 32 35 34 32 33 35 37 37 37 37 40 40 39 36 34 34 35 37 35
25 27 25 26 27 23 25 28 27 28 31 31 32 29 24 27 29 27 26 26 27 28 28 28 27 26 26 26 27 30 30 31 33 33 35 35 36 38 39 40 40 40 41 38 36 34 35 36 38
29 30 29 31 25 23 27 28 28 28 32 32 26 23 22 27 31 28 24 27 29 28 27 27 29 30 30 29 31 32 32 31 34 36 35 36 37 39 41 42 41 40 38 39 41 40 39 40 41
33 35 35 32 26 22 26 29 29 31 32 34 35 28 26 31 27 28 25 29 29 25 24 27 30 33 31 30 35 38 38 39 40 40 40 40 39 41 42 41 40 39 37 38 41 41 43 43 43
40 41 35 33 27 25 26 30 33 34 34 36 38 37 30 32 26 24 26 27 25 18 21 27 31 33 34 36 37 37 38 40 39 40 39 38 37 39 38 37 35 36 38 39 39 40 41 41 43
43 46 38 32 34 32 26 30 30 37 43 40 37 35 30 32 28 25 25 24 20 23 26 27 31 34 36 36 34 35 37 37 36 37 37 38 38 36 31 30 32 37 39 39 40 42 42 42 42
43 44 37 36 37 34 31 31 32 41 44 37 31 29 35 31 27 21 21 21 22 25 28 30 35 36 39 39 40 38 38 37 36 36 36 37 36 33 30 30 34 35 37 38 41 45 43 42 42
48 42 39 42 39 41 40 37 38 45 36 27 32 34 33 24 23 22 22 21 21 27 34 35 37 37 39 40 40 37 34 33 33 32 33 32 29 28 31 34 35 35 37 38 38 38 39 42 41
49 47 47 44 43 46 44 47 48 36 32 27 31 31 24 21 22 20 22 19 22 27 34 35 36 36 39 38 36 34 31 32 32 31 31 28 30 29 30 33 33 35 37 34 34 36 36 39 38
57 49 49 49 49 46 49 49 53 31 28 29 33 27 18 25 18 17 19 19 25 31 34 38 39 35 36 37 36 32 31 33 32 31 30 32 33 32 30 29 31 34 31 29 27 29 28 29 31
52 53 52 50 48 48 50 52 35 19 23 33 32 23 18 20 16 24 25 24 21 28 33 36 38 31 35 37 35 31 33 34 33 31 31 29 31 29 31 33 33 28 27 24 25 27 28 32 33
58 59 57 51 45 44 52 41 26 18 24 29 26 18 19 17 20 28 23 17 20 24 30 34 33 32 35 37 33 31 33 34 33 33 31 29 27 26 30 31 30 25 25 24 25 27 29 29 28
59 60 55 40 44 33 39 30 19 22 30 26 17 16 17 14 21 23 22 22 24 26 29 35 33 29 33 33 31 31 32 33 32 34 33 32 27 27 28 26 25 22 23 21 22 22 23 25 25
63 55 45 39 38 29 34 31 14 30 28 16 18 17 13 15 18 18 16 24 25 28 30 35 32 30 32 33 32 32 31 33 31 30 26 26 27 25 29 26 21 20 20 18 19 17 17 21 23
60 53 49 36 17 29 35 37 22 27 26 20 14 13 13 19 18 17 19 25 29 29 33 34 29 30 34 35 32 31 32 33 31 29 30 27 22 23 27 22 18 18 15 15 13 14 14 18 22
55 56 48 24 20 30 35 37 25 25 25 20 20 16 13 17 18 21 25 28 36 29 36 32 29 32 34 31 31 30 32 30 31 32 28 23 20 24 22 22 16 14 11 10 9 9 13 16 19
56 52 28 21 19 34 33 33 26 27 26 23 18 11 13 13 16 20 24 28 31 34 36 28 29 29 29 28 29 29 31 28 32 27 22 19 22 25 21 18 11 10 8 8 11 12 17 21 20
43 26 18 17 23 38 35 34 27 27 28 20 12 12 11 12 15 20 26 31 33 34 28 25 24 26 28 28 27 28 28 26 25 24 23 25 25 26 21 9 7 6 5 6 15 21 18 21 19
27 21 21 22 30 37 40 38 29 30 24 17 13 12 6 8 15 16 22 26 31 24 21 23 23 27 26 27 26 28 25 25 24 25 26 26 19 17 15 5 3 2 2 11 21 25 19 19 20
24 24 26 26 31 39 40 43 20 27 14 15 11 4 6 7 13 22 19 17 19 19 21 23 25 25 26 25 25 25 22 23 23 24 21 21 16 13 4 1 1 2 7 17 20 22 19 21 23
31 28 30 33 37 47 34 39 11 15 16 11 7 4 6 8 13 25 21 19 20 18 20 20 23 23 25 24 23 19 20 22 21 23 16 15 13 9 2 2 3 6 12 19 21 18 19 24 24
42 39 40 42 43 50 28 40 14 19 17 15 10 4 9 10 16 25 18 15 14 16 15 20 20 22 22 21 17 17 20 19 21 15 13 13 11 4 3 5 6 9 16 20 19 18 21 22 25
42 42 44 48 49 41 30 36 18 24 20 9 8 4 6 10 18 24 17 15 13 12 17 18 19 19 21 16 14 18 16 19 13 11 13 11 10 4 7 9 9 14 19 20 19 21 18 21 17
43 48 45 45 42 37 35 24 28 24 11 9 5 5 7 12 19 19 13 15 11 12 14 16 18 16 18 13 14 14 12 16 13 11 12 10 8 8 8 11 11 18 23 21 18 23 19 20 19
38 48 45 46 44 42 32 28 27 19 12 10 6 5 8 16 21 9 12 11 10 9 11 15 15 14 15 11 10 9 11 14 11 13 9 8 8 10 8 13 13 18 21 19 16 17 17 23 23
43 47 45 41 39 36 28 26 20 19 15 9 5 4 11 14 14 10 13 10 11 7 10 13 11 11 11 8 7 10 10 16 9 11 12 9 9 12 11 12 15 16 20 17 20 21 22 22 22
38 41 39 38 32 30 28 25 25 21 11 7 7 4 12 12 14 10 13 10 10 6 8 9 9 7 8 6 9 10 9 15 10 12 15 12 10 11 12 14 13 14 18 18 20 20 17 22 26

GFSSGP_500_spd_021.txt.gz
Wind_Speed
18 19 18 16 15 18 19 20 22 24 22 21 22 20 20 28 28 28 26 30 30 32 36 36 35 34 34 34 34 34 34 35 35 36 36 39 39 37 36 35 35 35 35 35 33 32 33 32 29
21 20 19 20 19 18 23 23 22 27 28 24 24 22 22 24 27 26 28 32 30 33 37 37 37 35 34 33 33 34 34 35 34 33 33 32 36 37 36 36 36 36 36 36 36 35 33 34 31
24 23 23 22 22 20 24 29 28 29 28 26 23 20 21 24 28 29 33 32 29 34 37 39 38 35 36 37 37 38 37 34 31 30 28 32 32 34 37 36 36 36 37 37 38 37 34 35 34
26 28 28 25 24 24 29 32 30 27 31 30 27 22 20 22 24 24 30 32 32 34 37 38 36 36 36 35 38 38 37 35 34 32 33 31 31 35 35 35 36 35 36 36 37 38 36 36 36
27 28 28 25 25 27 28 32 32 35 33 32 31 30 23 24 26 29 32 34 34 33 35 37 36 38 39 37 36 35 33 34 34 33 32 28 29 28 30 31 34 35 37 35 35 36 36 36 36
33 33 31 27 27 31 31 34 35 37 34 33 32 31 26 25 32 32 31 30 32 29 32 38 37 40 36 36 35 34 34 34 37 37 37 37 35 34 35 34 34 34 33 34 34 35 37 39 40
30 33 32 29 28 28 27 33 39 37 35 35 33 29 28 33 35 40 37 30 28 27 31 36 38 38 38 36 36 35 36 37 38 40 40 40 39 38 37 37 36 36 36 36 35 34 36 38 40
35 38 34 32 30 30 30 37 38 39 38 37 36 36 34 38 40 45 34 29 30 27 31 34 36 36 37 38 36 35 37 37 39 42 42 40 38 37 38 38 37 37 37 38 36 36 35 36 37
40 45 42 34 35 32 32 33 38 40 40 40 37 38 40 43 43 51 33 27 32 29 29 30 35 36 38 38 36 38 40 40 39 38 37 37 36 34 34 34 34 34 34 34 34 33 32 31 33
49 51 47 36 36 36 37 37 39 40 41 34 38 38 43 48 50 51 32 27 34 30 25 27 33 36 41 39 39 40 37 37 37 37 34 32 32 33 32 32 33 33 31 30 31 32 34 35 34
54 54 43 39 38 38 37 43 48 44 39 31 38 37 43 50 53 42 25 28 31 30 23 27 31 35 42 40 38 34 34 36 36 31 28 29 30 32 31 32 32 32 33 32 30 32 33 33 33
47 53 48 43 41 46 41 40 42 45 32 33 41 45 45 49 51 36 26 30 34 31 25 27 31 35 37 36 34 34 33 34 32 29 28 29 30 32 31 30 27 29 29 30 32 34 34 33 34
50 50 51 47 44 47 44 41 40 40 36 42 44 44 49 50 40 34 29 31 32 28 26 21 24 28 32 32 34 34 34 35 33 29 29 29 31 31 30 29 29 29 28 26 29 33 36 34 32
54 54 53 52 50 44 45 41 43 31 35 42 47 49 51 47 39 34 29 30 34 27 22 19 20 26 31 33 34 34 35 37 34 30 30 29 32 30 28 28 29 30 28 29 30 30 29 29 29
58 60 60 59 50 49 47 45 42 38 39 45 46 50 51 40 38 31 29 28 31 28 20 18 20 26 31 35 35 35 36 35 32 31 30 32 31 30 31 33 32 31 29 28 30 28 27 28 28
61 64 67 59 51 51 48 41 44 39 41 44 45 48 45 35 33 28 26 27 32 27 24 21 23 26 31 36 36 35 37 33 31 31 31 31 29 31 30 30 30 26 27 30 29 27 27 29 29
66 65 61 58 55 54 53 48 48 42 40 47 48 42 34 31 27 26 27 28 29 26 28 25 24 31 31 36 35 35 34 31 31 30 32 31 31 30 28 28 28 27 28 30 29 27 27 27 27
57 59 61 59 59 57 58 52 49 44 42 48 47 35 31 29 24 28 25 29 25 28 24 23 31 34 30 34 34 34 33 31 31 31 33 31 31 28 31 32 33 32 31 30 29 24 24 23 23
59 63 64 61 60 61 60 54 52 48 41 44 42 30 28 24 25 25 28 26 24 23 21 27 31 29 30 32 33 33 31 31 31 32 33 31 32 33 34 30 31 32 29 29 21 19 18 18 17
50 53 56 56 57 58 58 55 56 51 44 39 34 29 23 20 24 27 30 25 23 20 24 25 25 27 28 31 32 31 30 30 32 32 30 32 33 32 30 28 25 23 25 14 16 14 13 15 17
44 43 41 46 49 54 53 51 51 43 39 31 28 24 22 22 24 30 29 22 18 18 19 20 23 25 28 31 29 27 28 29 29 27 31 31 31 30 27 25 20 12 12 13 11 10 8 7 11
43 36 36 36 37 41 46 53 48 32 33 27 22 21 21 24 23 26 22 21 19 17 18 20 23 24 27 26 25 26 27 27 25 28 28 30 26 24 23 15 11 11 10 8 7 7 7 10 12
33 30 24 24 31 39 43 52 37 28 27 22 22 21 26 18 24 20 21 17 16 16 19 20 20 22 24 23 23 24 27 23 27 27 27 25 23 22 13 10 8 7 5 5 13 14 13 14 17
38 32 30 30 34 44 33 41 32 15 17 21 19 24 19 22 21 16 16 18 15 14 17 19 19 21 21 22 22 24 24 23 22 24 22 23 20 14 9 6 4 3 13 17 15 14 12 12 17
44 38 35 35 40 39 26 39 4 12 11 15 22 26 22 23 16 15 16 17 12 15 17 18 19 18 19 20 21 23 21 19 21 24 22 20 17 7 6 3 4 12 16 14 13 11 13 17 19
47 38 35 35 32 36 26 34 19 14 16 13 16 17 23 19 18 16 14 10 11 14 15 16 15 17 17 18 21 17 17 18 23 18 18 17 9 5 5 4 11 15 15 12 11 12 14 17 18
44 43 33 32 36 25 35 22 13 15 12 18 19 15 21 15 17 14 7 9 10 10 13 12 13 15 15 18 15 15 15 17 17 16 17 12 4 8 5 8 11 13 13 13 15 14 18 16 14
45 36 36 40 41 32 33 27 15 13 18 19 11 19 21 21 16 8 7 9 10 11 11 10 13 14 13 15 12 14 14 17 16 17 11 6 6 8 9 10 12 15 13 17 18 16 10 12 13
51 50 46 44 39 34 29 21 10 17 18 17 14 21 24 20 14 6 7 7 8 11 7 9 12 12 12 12 12 14 15 15 13 13 8 8 10 8 10 11 12 13 15 17 20 18 15 15 15
46 43 42 38 36 33 28 20 13 19 21 18 19 21 19 16 6 6 3 5 5 6 5 9 9 10 13 13 12 13 15 13 9 10 8 9 11 9 9 13 10 11 10 13 16 15 17 17 15

GFSSGP_500_spd_024.txt.gz
Wind_Speed
16 17 16 14 15 15 17 21 21 19 21 25 25 26 27 25 23 22 27 31 33 34 38 40 40 39 38 36 32 33 35 35 36 37 38 38 36 36 35 35 36 36 36 36 35 34 35 36 36
19 21 20 18 16 18 18 20 21 22 25 28 30 30 28 26 27 26 29 32 35 37 38 40 42 41 37 35 34 35 35 35 35 36 35 34 35 36 35 34 35 35 36 37 37 36 35 36 38
21 24 25 21 19 20 13 22 25 26 28 28 28 31 30 28 27 27 28 30 30 29 34 39 43 42 37 36 38 39 37 35 33 31 30 30 31 35 36 33 33 34 36 36 39 38 38 36 38
28 26 27 25 23 24 23 27 29 28 30 28 28 30 28 27 30 30 30 28 33 35 37 40 43 42 38 37 39 40 38 36 34 34 34 33 29 25 24 24 28 29 31 34 34 36 36 37 37
32 30 29 27 27 27 29 29 30 29 32 32 32 29 28 27 27 28 27 30 33 35 34 38 42 41 38 37 38 38 38 37 36 36 37 38 36 33 31 28 26 24 26 28 31 34 35 35 35
31 33 32 29 26 29 28 31 31 30 33 35 35 28 30 31 28 28 30 31 36 34 32 35 38 39 38 39 39 35 33 34 37 38 39 42 41 39 37 35 33 32 31 28 27 30 34 33 34
37 36 34 34 31 28 28 31 32 31 34 39 34 32 33 39 34 34 36 39 41 35 32 34 37 40 39 40 39 36 35 36 39 39 39 38 36 36 37 37 35 35 34 34 33 31 31 33 35
40 42 41 32 27 31 29 29 32 36 38 39 36 34 34 39 38 40 41 42 44 37 33 33 35 37 39 39 39 38 39 40 37 35 34 33 34 34 33 33 32 33 33 35 34 35 36 35 36
43 45 43 39 31 31 34 35 35 39 39 38 36 35 40 38 41 42 43 46 46 36 32 34 36 35 37 39 39 40 42 40 39 35 33 35 35 33 31 30 31 31 32 32 32 33 34 36 36
46 48 44 37 35 37 43 42 44 39 40 37 40 41 42 40 44 43 46 45 48 34 32 35 37 36 35 38 40 42 42 38 37 35 33 32 32 30 30 30 30 29 30 31 31 31 31 34 34
55 54 47 40 43 45 48 48 46 47 46 41 45 46 44 42 45 46 45 47 44 31 33 36 37 41 37 38 37 36 34 35 35 35 33 32 30 31 29 31 30 29 29 27 26 30 32 31 35
61 61 55 49 41 53 55 55 51 45 49 35 37 43 42 43 44 46 47 48 44 34 35 37 39 37 37 30 28 31 34 36 35 35 37 32 31 31 30 30 28 29 29 30 29 28 30 31 33
55 55 52 48 44 50 50 56 50 47 45 37 41 42 42 44 41 44 45 47 41 36 35 36 37 37 32 28 27 31 35 37 37 37 35 32 31 31 32 29 28 27 28 29 28 27 26 27 30
56 58 54 53 46 49 53 55 54 46 40 38 43 40 42 41 44 47 45 43 35 34 36 38 38 34 29 26 27 32 35 38 38 36 33 31 30 32 29 28 29 30 29 29 30 30 29 29 30
63 61 61 54 52 50 47 54 50 45 44 42 41 41 40 42 46 44 40 31 29 33 35 36 37 36 31 31 32 33 36 38 38 36 33 32 30 32 29 27 26 26 26 28 27 28 29 29 27
62 63 64 60 55 52 52 54 43 43 42 43 43 42 41 45 43 36 31 28 28 29 32 34 36 34 30 35 42 36 36 38 37 37 34 32 30 31 29 28 28 26 25 26 27 27 28 27 26
59 52 57 61 60 61 56 51 45 45 44 47 46 44 41 45 36 31 28 26 28 28 31 32 33 34 30 39 33 33 35 37 37 36 34 32 31 30 30 30 29 30 29 29 30 30 29 27 25
54 62 57 56 52 60 54 47 49 50 54 50 49 45 43 41 26 27 21 25 24 32 30 32 33 36 31 33 37 36 35 37 36 35 33 32 31 31 32 32 30 30 28 28 30 31 27 27 27
58 59 57 54 55 61 58 52 52 57 58 48 46 50 40 37 24 20 21 24 28 32 29 30 34 29 31 35 35 37 35 36 34 33 32 31 30 33 32 31 30 28 26 26 27 36 28 21 23
52 52 53 50 50 54 55 51 50 55 57 49 47 43 37 30 22 18 20 24 31 30 30 31 29 30 32 32 34 34 34 33 32 32 28 31 32 32 30 28 28 26 22 19 15 13 14 18 21
48 46 47 44 45 51 44 49 44 49 53 44 43 37 35 24 23 18 21 26 29 28 31 30 28 29 30 31 32 30 30 29 31 28 30 30 31 28 26 25 24 15 14 15 13 12 11 14 16
48 45 44 40 41 47 44 53 47 43 36 36 33 33 27 24 21 19 26 29 21 26 31 29 26 26 26 27 26 28 28 28 29 26 28 29 27 24 23 15 13 14 13 12 9 7 7 8 8
51 52 44 41 43 48 50 54 42 34 32 28 25 24 26 22 19 22 27 20 21 28 27 24 25 24 23 23 24 26 24 26 24 25 26 29 26 21 13 11 11 11 10 5 7 7 8 8 7
50 49 42 45 44 50 42 43 40 24 15 20 22 26 22 21 20 26 20 20 24 27 23 22 22 21 21 20 23 20 22 21 22 24 26 22 20 13 11 10 6 1 9 12 12 9 8 8 10
58 55 50 49 49 48 39 39 30 19 15 19 22 19 17 19 21 20 17 21 25 23 20 17 18 17 17 19 17 19 17 19 20 21 19 18 14 11 10 4 3 12 12 11 10 8 7 8 11
59 55 53 51 47 38 33 33 8 19 17 17 15 14 18 18 21 18 18 21 23 18 15 15 14 14 16 14 16 14 15 16 18 18 20 14 8 9 6 3 9 11 9 9 9 9 10 11 12
60 55 46 46 44 35 25 22 19 17 14 9 12 10 13 19 19 19 18 21 16 13 12 14 11 15 12 12 10 12 14 15 15 17 16 8 7 7 4 7 9 9 10 12 11 10 9 10 10
58 46 49 51 47 44 30 18 24 15 12 12 11 12 16 19 20 17 19 18 11 11 12 10 11 11 10 8 8 12 14 16 13 15 9 5 8 6 7 10 10 9 12 16 13 12 12 8 6
61 56 50 47 45 36 27 16 18 15 17 11 10 17 18 22 21 19 20 14 10 9 10 6 9 7 9 11 10 11 13 15 9 11 6 7 8 9 10 8 8 10 15 16 14 8 5 11 11
56 53 51 48 50 41 22 18 21 20 15 12 15 15 18 22 18 21 19 10 9 8 4 5 6 6 9 11 11 9 13 10 8 7 6 6 8 10 14 9 8 8 14 14 13 9 11 9 13

GFSSGP_500_spd_027.txt.gz
Wind_Speed
17 15 14 13 13 13 13 13 13 16 17 19 20 23 25 23 21 17 27 30 36 37 37 37 38 41 41 37 36 34 33 33 36 38 39 38 37 34 34 34 31 33 35 35 36 38 37 36 36
19 18 17 16 14 12 13 13 21 11 17 22 24 25 29 24 27 26 34 30 35 32 35 37 39 42 44 41 37 35 35 36 38 37 36 35 36 35 35 34 34 31 31 34 35 36 37 37 36
19 19 20 18 17 11 11 21 8 18 23 26 24 27 26 27 32 27 30 32 33 31 35 39 40 42 43 40 35 34 36 39 38 36 35 33 34 34 34 32 28 28 28 30 31 35 37 36 36
22 23 23 23 18 15 19 13 17 35 22 28 23 24 33 35 28 29 29 29 31 32 36 42 40 41 42 37 33 34 38 39 34 33 34 35 35 36 36 36 33 30 25 25 28 29 34 36 35
30 29 29 28 23 20 22 22 24 23 18 24 21 22 23 41 30 30 31 32 34 33 35 40 41 41 41 38 36 36 40 34 32 34 37 38 39 40 40 40 38 36 32 28 25 25 29 30 32
33 35 34 30 22 20 25 26 27 24 25 21 34 23 21 38 34 31 34 34 35 37 39 41 40 42 40 39 37 38 41 33 32 35 37 39 38 39 37 35 33 35 35 33 30 28 28 29 31
36 36 33 27 20 19 25 25 26 25 25 24 28 29 26 31 40 35 37 40 38 38 40 42 41 43 38 40 38 40 40 32 35 36 38 37 36 37 35 33 31 30 30 30 31 29 29 30 30
40 42 40 35 31 30 24 29 30 24 21 34 34 39 23 25 42 37 40 44 41 40 41 46 47 41 38 36 38 42 38 36 39 38 40 38 36 35 35 33 31 29 29 30 31 32 30 31 31
44 47 46 40 35 30 24 32 23 38 37 38 40 42 40 41 44 39 42 44 44 44 41 46 48 38 37 38 39 42 39 40 39 38 39 37 36 36 35 30 29 30 30 31 30 30 31 32 32
49 50 48 41 36 33 24 22 26 36 38 39 45 40 39 36 45 44 43 43 40 43 48 47 49 41 38 41 40 41 41 39 37 36 36 36 36 36 35 31 31 32 32 32 30 29 30 31 32
52 52 46 44 37 40 37 36 33 38 39 40 38 39 46 49 48 39 42 42 39 42 46 47 46 42 39 41 41 40 40 35 34 36 37 37 37 37 33 30 32 32 34 31 30 30 29 27 29
55 55 53 49 48 48 44 40 44 49 51 52 53 44 50 46 44 41 43 43 36 36 48 52 44 38 41 40 41 41 36 33 33 37 39 38 35 32 31 33 33 34 32 29 30 29 31 31 30
63 60 57 58 61 59 57 63 56 56 56 58 57 44 49 49 46 44 42 41 38 38 42 48 41 35 40 38 41 36 35 36 36 40 39 37 36 31 33 32 33 31 30 30 31 30 29 29 29
63 65 65 63 59 60 58 58 61 60 54 56 58 49 50 48 43 45 42 44 41 37 42 36 34 33 37 37 41 39 38 44 41 41 40 37 38 34 35 34 31 30 29 28 28 30 30 30 29
70 74 70 62 56 58 53 58 56 55 51 49 53 51 50 50 44 41 42 45 43 36 36 31 31 32 33 38 40 38 41 51 43 41 39 39 38 37 36 35 32 29 29 29 26 25 25 26 27
64 66 64 52 54 54 47 57 51 51 48 48 49 45 49 48 43 37 41 44 40 34 32 30 30 29 33 38 40 35 40 49 43 43 40 39 39 38 36 35 34 32 31 30 29 29 28 27 27
59 59 49 52 53 50 45 50 45 45 49 50 50 50 50 47 44 42 42 40 32 28 27 27 27 29 32 38 37 40 36 40 42 43 42 41 38 38 36 35 34 33 32 30 27 28 29 30 29
51 50 59 54 50 45 46 49 43 39 43 45 48 51 53 45 43 40 41 35 28 25 24 26 26 31 35 36 38 35 35 44 43 44 42 39 38 37 34 36 35 33 31 29 28 27 31 29 29
55 61 57 50 46 40 46 47 43 52 45 42 45 47 53 42 42 39 37 30 26 24 24 23 28 30 33 34 35 38 39 42 43 43 39 38 38 35 36 35 35 28 32 30 28 27 25 27 32
56 59 53 51 49 38 43 45 49 44 45 43 43 44 48 46 40 34 33 28 26 24 22 25 28 31 33 35 37 38 39 40 40 39 36 37 37 36 35 33 31 29 28 23 19 19 19 20 18
58 57 51 46 45 41 44 52 44 46 47 42 38 38 45 38 30 30 33 27 25 22 23 26 30 31 36 37 36 36 36 37 35 36 36 36 35 33 33 32 28 21 17 18 17 16 16 16 17
57 52 49 50 50 52 40 50 43 44 43 39 41 42 35 29 28 28 31 26 24 22 22 25 29 35 36 35 32 31 32 32 31 32 33 31 30 31 29 21 16 16 17 16 15 13 12 12 12
51 44 47 48 54 47 42 48 39 41 39 45 36 29 27 25 28 26 25 25 21 19 21 25 30 34 32 32 28 28 28 27 30 28 27 29 24 23 16 14 13 13 13 10 6 6 7 6 6
54 48 49 47 50 50 41 50 40 30 39 33 27 29 28 27 26 22 24 20 17 19 23 28 32 29 30 27 22 23 23 26 23 23 25 25 20 15 12 10 8 5 2 2 4 3 2 1 3
60 56 50 47 51 47 41 48 35 27 33 28 26 26 25 23 20 25 20 17 17 20 25 30 26 26 23 19 20 20 21 19 20 21 20 18 12 11 9 4 2 3 3 5 4 3 2 2 3
69 64 63 56 49 40 42 48 33 25 28 19 17 17 21 21 25 19 14 14 16 22 26 24 23 22 17 19 18 18 15 16 18 17 15 13 10 8 4 2 5 3 4 4 5 6 6 4 6
70 64 53 41 28 29 25 28 25 20 18 15 16 15 17 21 20 15 13 13 18 22 22 22 19 16 17 16 17 13 13 16 17 13 10 8 7 5 2 3 3 5 6 6 6 4 2 5 8
63 56 52 53 49 32 26 21 18 18 18 13 13 12 15 16 14 12 14 15 18 19 19 17 14 14 13 12 12 12 14 15 13 9 7 5 4 4 3 3 4 6 7 6 3 2 4 7 7
70 54 59 46 40 33 28 20 24 25 23 19 13 17 16 12 13 15 15 18 18 17 17 14 11 12 10 11 12 11 13 14 6 5 4 3 3 7 3 4 5 7 8 5 1 4 3 5 3
59 54 55 57 48 32 22 24 22 25 21 17 16 21 17 17 17 16 17 17 17 17 14 9 10 10 10 11 11 8 11 4 2 3 4 2 4 8 5 2 5 7 8 7 5 5 3 8 9

GFSSGP_500_spd_030.txt.gz
Wind_Speed
17 16 15 15 13 11 6 6 14 16 22 21 22 17 21 17 20 23 29 28 28 32 35 35 37 38 40 39 37 35 32 30 30 32 33 35 34 32 31 30 32 31 28 29 34 35 36 38 36
18 19 19 20 15 12 6 10 14 13 25 21 17 23 19 12 29 31 32 31 33 32 34 36 37 40 43 42 37 33 30 29 31 34 33 32 34 35 35 34 32 29 28 26 28 33 34 36 36
19 21 21 21 17 7 7 18 25 24 28 13 20 32 29 26 30 27 28 30 34 31 34 36 37 39 42 43 36 32 31 29 33 32 32 33 35 35 37 36 35 33 32 28 26 27 31 33 35
22 25 28 24 18 12 13 8 18 17 5 27 31 26 24 35 35 33 28 32 38 35 34 37 37 39 41 44 38 32 31 30 34 31 33 36 38 37 37 37 37 37 37 33 30 25 27 30 32
31 30 28 27 23 15 16 12 26 14 13 12 14 21 27 31 37 36 31 31 36 42 33 34 36 38 42 45 39 33 31 32 32 31 34 38 40 40 40 38 36 36 36 34 32 32 27 25 28
33 38 40 38 31 18 17 18 25 20 22 29 21 20 33 34 42 37 32 29 38 43 43 34 36 39 42 43 34 32 32 36 31 32 36 39 40 41 40 38 36 32 31 30 30 29 29 28 28
38 42 40 37 33 24 16 18 20 26 26 17 22 32 22 34 39 40 34 42 42 41 45 33 34 39 42 39 31 32 32 36 33 35 37 39 42 41 37 36 36 34 31 28 27 28 28 26 28
39 42 45 43 40 35 26 20 22 15 18 31 32 37 34 34 45 50 51 44 46 52 53 56 33 39 44 41 33 34 34 35 35 37 37 41 40 37 36 36 36 36 30 27 27 27 28 28 27
41 46 46 44 40 36 30 23 18 15 31 26 33 35 37 46 49 49 43 35 40 39 48 56 54 30 40 42 37 35 37 38 36 37 37 38 34 36 37 36 37 31 29 30 30 29 31 29 28
51 51 44 40 38 38 36 21 25 22 24 27 36 39 32 35 41 46 45 46 40 36 36 49 52 40 33 40 37 35 37 39 37 36 34 37 35 35 37 37 34 31 32 30 30 33 32 29 28
45 49 44 43 43 41 39 35 33 27 28 29 33 27 29 43 47 48 45 44 41 41 38 36 52 47 38 40 35 33 36 37 37 37 37 41 40 39 34 36 32 30 28 33 34 32 29 27 28
54 54 51 50 47 46 49 45 44 44 42 40 38 43 49 54 58 56 51 45 44 41 38 32 47 52 43 38 35 29 33 34 35 37 40 42 39 44 37 38 36 34 35 35 30 27 27 28 26
61 60 56 52 48 47 51 55 55 51 45 50 48 51 56 57 63 63 54 49 46 41 40 37 43 51 43 36 36 30 32 33 34 37 43 50 42 41 39 38 35 35 36 34 29 29 28 28 29
59 59 59 57 58 58 58 60 59 58 57 59 64 61 58 58 57 57 49 49 45 43 42 39 44 49 37 32 33 34 34 37 37 39 41 48 52 42 41 40 39 36 36 35 33 31 29 25 27
64 66 67 66 68 70 55 62 62 53 47 50 55 55 52 50 47 51 51 46 46 44 41 39 43 41 31 31 29 34 35 40 40 40 43 42 41 45 43 42 41 40 36 33 33 31 31 28 26
71 70 69 56 55 47 51 61 50 44 45 48 48 50 48 45 48 47 50 43 45 42 39 40 39 34 27 28 27 32 35 39 41 38 43 45 45 46 44 43 43 42 36 34 35 33 33 32 32
64 66 59 47 45 51 49 53 41 40 41 41 41 42 47 49 49 55 56 43 46 42 37 39 35 31 25 28 26 29 36 38 39 40 43 45 45 47 45 44 45 40 39 36 33 32 29 30 31
54 51 41 46 43 43 42 46 37 40 36 35 38 37 34 40 47 51 53 43 43 39 37 35 31 30 26 27 27 30 33 35 36 42 45 46 46 45 43 43 42 41 39 37 32 30 31 31 30
56 51 53 50 46 46 43 42 37 37 39 39 39 42 35 39 39 42 49 39 40 33 37 32 28 27 28 26 27 30 35 37 40 41 43 44 45 45 43 45 41 40 38 36 32 34 33 32 30
57 58 59 51 48 44 37 41 44 42 39 37 38 40 40 40 40 43 41 34 35 30 34 29 28 26 26 27 30 34 38 39 38 39 40 40 42 44 44 40 39 41 38 34 30 27 23 22 22
58 55 52 49 47 45 46 43 45 37 40 42 42 41 40 37 38 37 39 39 32 29 26 28 26 25 25 29 34 38 36 36 35 37 38 37 39 40 38 37 35 32 25 24 22 22 21 19 18
61 51 55 52 53 51 42 53 42 35 37 36 41 37 34 37 36 34 33 36 28 25 23 24 22 24 26 30 37 35 34 35 34 34 36 36 31 32 30 30 24 23 22 21 20 17 15 14 13
52 49 50 50 52 51 49 49 26 30 33 37 37 35 34 33 30 27 29 31 24 22 20 19 20 22 28 32 33 31 33 28 30 32 30 32 30 29 27 22 21 18 14 11 7 5 6 6 7
59 54 51 50 48 45 44 44 34 31 33 33 32 33 36 34 27 27 32 20 22 17 16 18 20 25 30 30 27 26 26 27 28 26 27 28 28 23 18 17 13 8 5 5 4 1 2 2 3
64 61 56 52 55 53 35 42 37 25 34 35 34 31 29 29 28 33 18 21 16 16 16 17 22 28 27 24 25 23 24 25 23 23 25 24 20 17 14 10 5 3 4 2 2 3 1 1 4
65 65 61 62 56 52 44 48 29 27 25 25 22 24 21 22 24 15 20 16 14 13 14 18 24 24 22 24 21 21 22 21 21 22 22 19 15 11 8 4 4 5 4 3 4 5 5 2 1
50 60 56 52 44 44 41 29 32 27 18 20 21 16 17 9 16 19 18 13 13 12 15 19 20 21 22 19 19 20 19 19 20 22 18 13 9 5 4 3 5 3 4 5 6 6 7 3 4
56 47 63 52 52 43 42 24 15 22 20 18 12 13 16 6 18 16 14 14 13 14 15 17 19 20 16 15 16 17 18 18 20 17 12 9 4 3 4 3 2 2 2 6 8 7 10 10 3
56 54 49 54 44 47 33 19 16 28 22 20 16 15 15 14 15 16 15 13 14 14 16 16 18 15 14 14 15 17 18 15 17 10 8 6 3 2 2 1 0 1 3 7 13 13 8 6 3
46 53 54 60 54 46 34 29 29 31 26 24 21 21 18 19 16 15 12 12 12 14 14 15 15 12 12 14 15 16 13 13 12 7 6 4 3 4 2 1 2 3 2 4 13 16 5 6 3

GFSSGP_500_spd_033.txt.gz
Wind_Speed
20 18 17 16 14 11 12 6 14 12 14 22 28 28 25 30 27 30 22 25 29 30 33 35 37 37 37 35 34 32 27 25 23 23 25 25 24 23 25 27 28 30 29 28 27 27 29 32 34
22 22 21 18 15 11 12 11 12 15 27 30 26 23 22 32 31 30 31 28 33 33 35 36 36 36 35 37 35 34 27 23 22 23 25 25 24 25 26 27 28 31 30 29 29 29 30 29 31
24 24 24 20 17 14 17 21 22 25 28 35 26 28 19 29 38 29 35 31 30 35 34 37 37 36 32 34 39 36 25 21 21 25 26 24 25 28 29 30 30 32 32 30 28 28 28 29 28
26 26 26 22 17 15 18 22 23 25 26 18 8 10 24 31 28 28 38 35 31 33 32 40 39 37 35 35 37 36 24 21 22 26 24 25 27 30 33 35 35 34 31 31 31 28 27 28 27
27 26 27 26 22 25 23 26 21 25 18 9 15 17 19 26 32 31 38 37 37 36 40 40 39 36 34 35 36 32 22 21 26 25 26 28 31 34 36 36 35 33 30 30 30 28 24 27 28
35 37 40 40 32 22 21 2 27 24 23 20 19 19 27 31 34 36 40 39 42 44 44 36 35 36 35 36 36 30 24 23 27 27 28 30 32 35 36 33 32 30 27 26 28 27 24 22 27
34 48 48 42 39 34 28 19 23 24 28 29 25 28 33 33 36 46 45 45 49 49 44 44 40 36 37 34 38 35 27 26 28 29 29 30 33 33 33 34 34 32 29 26 27 24 23 21 22
46 54 46 43 41 40 33 29 26 23 19 27 33 31 32 33 39 45 51 49 49 50 47 48 43 44 36 33 34 37 32 29 30 31 30 28 31 32 33 35 36 33 33 33 29 27 26 24 23
42 52 51 44 41 38 30 39 36 35 19 24 31 27 30 37 34 44 49 49 48 47 51 50 50 49 37 37 32 35 35 32 31 32 30 28 31 30 38 33 35 33 33 31 29 28 28 28 27
56 64 59 42 39 43 34 38 39 27 33 30 29 31 29 33 39 44 46 50 44 45 53 49 50 49 42 40 37 33 36 33 32 32 32 30 32 32 42 35 35 33 35 30 29 30 30 31 29
59 62 51 48 41 41 39 40 40 35 34 29 29 27 32 32 30 33 44 49 53 52 54 51 48 47 44 37 39 35 38 34 31 32 31 32 34 34 39 46 42 35 34 30 31 30 30 28 25
59 55 52 47 44 40 39 38 44 43 44 44 41 36 36 35 41 41 53 58 61 56 52 50 45 46 43 41 40 34 36 33 31 30 30 33 34 39 43 42 38 38 36 32 31 31 29 27 26
58 53 52 49 45 45 45 45 46 48 46 45 45 45 46 51 48 53 60 64 58 49 46 39 37 43 42 43 41 33 34 32 29 28 29 34 34 38 41 46 43 39 38 35 35 32 27 26 26
57 56 56 54 55 54 52 52 50 49 44 46 52 54 54 54 61 60 64 59 50 47 45 38 34 39 40 44 43 33 33 31 27 27 28 34 33 39 40 44 44 43 39 38 37 32 30 28 27
69 66 67 64 60 57 54 56 46 46 54 57 47 44 52 49 44 45 48 52 49 49 43 36 36 38 41 44 39 32 33 33 27 27 29 33 34 37 43 44 44 43 40 39 37 34 35 34 31
76 76 75 63 62 59 55 49 48 48 45 45 42 40 41 41 41 40 43 46 47 51 46 39 38 36 41 39 34 34 34 35 30 29 31 32 32 37 43 45 47 45 42 41 38 36 34 34 33
61 67 65 56 53 52 59 58 47 38 42 40 37 35 35 33 29 31 27 37 44 50 49 36 37 35 39 33 31 32 34 32 31 32 33 34 36 40 44 45 47 46 45 45 40 37 36 34 31
55 52 51 48 46 48 49 50 41 32 36 33 32 33 31 30 30 30 31 38 45 49 42 35 34 33 35 29 27 30 31 28 30 33 37 39 39 42 44 45 46 46 45 43 40 39 37 34 32
55 55 49 47 46 45 44 47 42 31 34 34 32 31 28 34 33 34 31 36 43 43 39 37 28 35 29 27 27 29 29 28 31 36 37 37 38 40 42 44 44 43 41 42 41 39 34 31 29
58 55 51 48 48 44 41 45 42 32 33 35 32 29 32 35 32 29 29 33 41 39 32 34 33 35 27 25 28 27 27 30 34 35 36 35 36 39 41 43 40 41 37 34 28 25 23 22 20
57 55 50 48 52 44 47 49 45 34 31 28 36 31 35 29 24 28 32 38 43 42 35 30 32 31 25 25 26 26 28 33 33 32 32 33 35 38 38 38 38 34 29 30 27 24 22 21 20
59 55 54 53 55 47 45 55 46 33 29 31 31 36 27 24 27 30 33 36 36 38 29 25 27 25 23 23 24 26 31 32 31 28 29 32 32 30 33 34 31 27 26 23 20 19 16 15 14
58 56 56 55 55 52 51 51 27 30 29 23 31 30 24 23 29 34 35 31 28 21 22 23 24 21 19 22 25 28 29 28 26 28 28 28 28 30 29 27 24 22 18 14 12 9 6 6 9
60 61 57 52 53 56 43 50 24 26 23 28 31 24 25 29 33 34 33 24 17 19 19 21 19 17 19 22 25 26 27 24 27 26 24 25 28 28 23 20 15 12 12 11 10 9 7 4 6
60 62 59 58 57 53 42 48 35 20 21 23 19 23 24 28 32 28 23 16 20 17 18 20 15 15 19 24 24 25 23 24 24 23 23 25 24 21 17 13 9 10 11 10 9 7 7 4 4
62 64 66 64 62 51 48 50 40 18 22 15 15 20 19 24 18 20 14 15 14 15 17 13 12 16 21 21 21 21 22 24 23 20 22 23 19 15 11 6 8 9 8 8 9 9 6 4 3
56 64 60 62 60 55 51 45 40 33 34 12 11 16 12 13 14 11 12 13 12 15 12 9 12 17 19 18 19 19 19 20 21 21 22 19 15 10 6 5 5 5 7 9 12 10 9 2 2
60 54 58 60 59 59 49 48 44 23 23 10 19 16 12 9 11 9 10 11 13 12 10 9 14 17 16 15 17 18 18 21 20 19 18 14 12 8 5 6 4 4 6 12 11 9 3 4 3
58 56 57 61 56 53 50 45 23 20 17 15 17 11 9 12 16 12 12 14 13 11 9 11 15 14 13 14 16 16 19 19 17 16 12 12 10 7 2 3 2 2 5 9 11 7 2 6 2
58 60 51 53 60 53 50 43 22 7 16 23 16 14 15 19 18 14 16 15 11 9 9 11 11 11 12 15 15 15 18 17 15 12 11 10 8 6 3 1 2 0 4 7 12 10 8 6 5

GFSSGP_500_spd_036.txt.gz
Wind_Speed
21 20 20 20 18 17 16 20 16 15 16 19 22 27 27 28 30 26 25 23 28 27 31 32 29 36 34 30 25 28 26 18 16 16 15 16 17 18 19 20 21 23 24 26 26 26 26 27 27
23 23 21 21 21 18 20 19 16 17 22 24 26 27 38 27 33 27 26 25 22 29 28 30 33 37 38 33 29 28 27 17 14 14 15 16 17 17 20 21 22 25 26 26 26 26 26 27 30
28 28 27 26 21 20 22 19 17 22 30 28 33 31 36 26 26 26 26 21 24 30 28 36 36 35 40 36 32 30 28 19 17 16 16 17 18 20 22 23 25 24 24 25 26 26 26 27 28
29 29 29 27 23 22 21 20 21 24 22 30 37 38 35 33 26 25 22 26 31 31 32 38 42 37 38 35 33 29 28 21 19 19 19 19 21 22 24 23 20 22 23 23 21 23 25 26 25
34 34 33 27 24 25 19 20 27 31 35 30 27 39 26 22 21 25 28 29 31 35 35 38 40 35 35 38 33 31 30 23 20 21 22 22 24 23 25 23 23 25 25 25 24 21 21 22 22
38 37 35 28 25 27 22 33 36 26 22 24 18 19 15 23 25 30 34 30 35 32 34 36 33 37 37 38 33 33 32 30 22 23 24 25 25 26 26 25 27 28 28 27 24 21 21 20 20
38 40 37 36 32 34 24 35 34 32 19 24 25 25 31 26 28 34 36 36 39 34 32 33 38 42 37 38 39 35 32 34 28 29 28 27 27 28 28 27 27 27 29 27 28 26 24 21 22
43 48 46 44 38 38 33 40 32 33 17 19 31 26 26 28 33 39 44 41 31 37 36 41 42 49 51 38 40 39 32 33 33 33 30 30 30 30 28 28 26 30 31 28 30 30 26 24 25
47 56 52 48 44 40 35 40 33 36 35 34 41 30 28 30 37 39 40 43 40 44 46 50 50 51 54 43 38 36 36 34 38 35 32 31 31 31 29 28 28 31 32 30 29 30 28 27 27
54 59 53 44 44 43 35 47 31 36 39 43 29 33 27 30 35 37 39 40 38 49 52 55 54 59 58 42 37 36 38 35 38 35 32 31 30 30 29 29 31 32 32 33 30 29 30 29 29
60 64 54 49 45 44 41 41 41 39 40 40 44 37 34 33 36 42 40 40 39 50 53 56 56 60 46 37 34 32 36 37 37 35 33 32 29 30 30 30 34 38 35 35 35 29 28 30 30
61 62 60 50 51 49 52 53 52 42 36 36 39 41 34 36 37 42 43 45 47 52 55 64 59 52 40 35 34 32 36 39 39 37 33 31 29 28 32 31 37 38 39 38 36 31 30 29 29
66 55 61 57 56 54 50 54 46 45 42 34 38 42 43 42 45 48 50 50 51 57 63 57 53 42 34 37 35 34 38 39 39 35 32 30 28 28 32 35 39 38 42 40 37 33 32 29 26
66 66 62 62 60 55 52 50 45 41 38 40 42 43 44 44 44 47 54 53 55 60 54 54 52 38 37 38 35 37 40 41 37 32 30 28 26 29 33 37 39 42 44 42 40 36 33 31 29
73 76 74 63 60 55 50 55 50 39 40 44 45 45 45 47 51 51 44 49 53 52 48 47 45 36 35 36 34 39 39 41 34 30 30 27 26 29 34 39 42 44 44 44 42 39 36 34 31
65 68 69 55 58 59 55 54 45 43 46 47 44 44 48 44 38 34 37 42 44 44 39 38 41 40 35 35 34 38 40 37 31 30 29 25 25 29 37 41 43 45 46 44 42 40 39 34 33
62 61 61 56 60 63 63 50 48 49 48 49 48 44 39 36 30 30 32 35 36 31 35 37 40 43 44 36 37 39 38 32 31 30 26 25 26 32 39 42 44 44 44 43 43 41 39 36 34
58 56 55 54 50 49 54 52 47 41 39 41 42 32 29 28 29 29 32 30 31 33 35 36 39 44 49 39 41 37 35 31 32 28 26 27 31 35 40 42 42 42 42 43 41 40 36 34 33
59 60 56 51 49 47 44 46 45 38 39 39 33 29 28 28 29 29 26 25 28 28 32 38 41 37 30 30 36 34 32 31 31 27 26 30 34 40 39 39 39 40 40 40 37 32 27 25 24
60 59 53 51 51 48 45 45 41 38 39 37 27 30 27 31 25 25 23 26 27 28 35 40 43 36 29 29 28 32 30 30 27 27 29 33 36 36 36 37 37 37 35 35 32 31 29 26 24
62 60 54 54 52 47 51 48 43 38 36 30 30 29 29 29 25 20 23 26 29 33 37 41 43 34 29 25 27 29 28 24 26 30 33 34 32 32 34 33 33 33 30 26 25 23 22 21 20
64 61 58 56 54 51 48 51 47 32 33 33 29 28 32 26 18 20 24 27 30 35 35 32 25 25 22 23 25 25 23 24 27 32 32 29 30 29 28 30 27 25 21 18 16 17 16 13 12
60 63 61 59 58 57 52 53 30 34 33 28 24 32 26 18 21 23 27 27 31 30 23 24 21 18 18 22 25 22 21 25 28 29 28 27 25 24 26 23 18 14 14 14 13 13 13 10 8
61 64 64 62 60 62 46 48 20 29 24 20 25 26 21 18 23 27 29 27 29 20 19 22 19 17 20 22 20 19 22 26 26 26 26 25 21 24 21 16 13 10 12 12 13 12 10 8 6
62 63 62 63 66 54 47 48 24 18 16 23 28 23 17 19 22 25 23 24 23 19 19 19 16 17 19 18 17 19 22 23 23 23 24 20 21 19 16 10 8 8 8 9 12 13 11 7 6
61 62 63 62 61 57 56 48 36 26 19 24 20 17 14 15 19 21 23 24 22 20 17 15 14 14 16 15 17 20 21 20 20 21 21 19 19 14 10 7 9 5 6 9 14 11 10 9 6
56 64 60 62 60 61 55 48 44 33 29 30 14 15 9 12 14 18 19 12 11 13 12 14 12 13 14 14 18 19 19 19 21 23 18 18 12 11 8 7 9 5 6 11 11 10 6 7 7
55 56 54 59 60 61 56 51 45 30 29 26 17 17 11 12 12 13 12 8 10 13 14 12 11 13 14 15 17 16 18 19 21 18 16 11 10 10 8 5 8 3 4 9 11 10 6 8 5
52 54 55 56 60 61 55 51 42 25 25 23 18 14 9 10 10 10 14 14 14 15 11 10 13 13 14 14 14 16 18 19 19 15 10 9 9 8 7 4 6 1 4 8 12 5 6 6 5
46 54 60 60 60 58 57 49 42 30 31 27 13 16 10 10 10 12 14 15 15 12 12 13 13 13 12 12 14 17 18 16 14 10 8 7 8 6 7 3 3 1 5 9 7 5 6 8 7

GFSSGP_500_spd_042.txt.gz
Wind_Speed
23 23 24 25 25 24 27 25 23 21 21 20 16 18 19 19 22 20 19 22 26 23 20 22 20 17 19 23 27 28 28 26 25 25 26 26 26 26 25 25 26 27 28 28 26 26 27 26 25
26 25 26 27 26 26 27 27 27 26 24 22 21 20 19 21 24 26 25 29 30 26 19 24 20 16 19 24 28 29 27 26 23 22 23 22 23 24 25 24 26 26 25 25 25 24 23 24 22
27 28 29 29 27 27 27 28 27 25 23 21 22 25 22 20 25 27 28 33 34 25 22 26 21 17 20 25 30 32 30 26 24 22 21 21 21 24 25 27 27 25 25 26 28 26 24 23 23
29 31 30 29 27 28 29 28 28 26 26 27 26 24 24 18 25 31 35 32 27 26 20 24 25 19 20 28 33 35 32 27 22 19 23 22 23 23 25 26 27 27 26 25 27 27 26 24 24
32 32 29 27 29 29 32 32 32 32 30 29 27 30 27 23 26 34 38 27 25 20 22 27 25 22 22 28 34 37 32 29 26 25 24 27 27 27 26 25 27 28 30 29 30 26 25 23 23
38 37 37 32 33 33 34 35 36 34 33 33 33 36 34 26 23 30 35 31 26 23 29 26 26 23 23 31 35 35 36 31 30 29 27 27 29 31 32 30 31 29 31 31 30 27 26 25 25
40 39 38 38 37 39 37 40 38 38 38 39 36 37 38 38 35 34 35 30 28 32 25 25 25 26 29 34 35 33 37 34 31 31 30 30 30 32 33 34 32 33 33 32 33 29 23 22 23
44 44 43 42 39 40 41 39 43 47 43 43 43 39 41 41 42 42 40 36 35 29 23 22 25 29 32 36 41 36 32 31 33 32 33 32 31 32 34 35 34 34 35 34 33 29 23 21 21
48 51 47 42 41 41 42 40 45 45 44 44 48 46 45 45 44 42 39 38 35 31 25 26 24 29 39 40 41 43 35 30 30 32 33 35 33 34 34 35 35 36 36 36 35 30 27 25 22
53 55 47 41 43 40 43 47 45 47 46 48 49 44 43 44 45 38 40 37 35 35 35 31 34 37 38 43 45 46 44 42 32 33 34 35 35 35 35 35 35 36 38 37 36 32 29 30 26
57 58 49 45 48 47 50 52 52 55 54 49 52 48 45 46 38 38 35 33 37 40 40 38 40 41 43 47 47 49 51 51 36 32 35 38 35 36 36 35 35 35 38 38 37 32 31 32 29
58 57 54 49 52 52 50 54 59 62 60 52 45 45 47 39 35 39 39 35 37 36 38 41 44 45 45 51 50 55 57 48 36 35 37 40 37 36 36 35 33 34 38 37 36 32 34 35 34
60 60 60 54 54 54 54 59 61 62 58 51 46 44 42 38 42 45 45 39 35 34 38 43 48 48 49 52 55 56 48 40 35 35 39 41 39 35 35 34 33 33 37 40 37 34 36 39 38
64 65 64 60 62 61 59 61 66 62 54 54 51 49 48 46 41 43 40 37 35 35 38 44 47 50 52 56 56 57 45 34 30 33 36 40 36 34 36 31 31 35 35 41 42 33 40 40 39
71 70 71 69 66 67 66 68 67 60 53 51 47 50 53 47 42 40 35 37 36 38 42 46 48 48 52 55 56 49 36 32 32 34 35 37 34 34 36 32 35 33 36 41 42 37 42 39 37
76 81 78 71 70 67 65 66 63 61 61 61 51 49 51 50 40 41 38 36 36 43 45 44 49 48 47 50 46 41 38 34 33 31 34 34 33 33 34 36 36 35 36 41 42 40 40 39 36
71 72 76 80 73 72 71 69 68 63 59 58 55 52 54 44 45 41 38 40 42 46 45 46 47 45 43 47 45 43 38 35 32 30 36 35 31 30 33 37 40 39 37 38 39 40 40 37 36
69 67 68 71 72 74 79 68 65 63 64 61 56 51 51 48 47 45 44 46 47 47 47 45 44 42 41 44 44 43 40 36 35 36 35 34 28 31 34 39 41 38 37 36 38 38 37 36 34
64 67 68 67 68 67 68 67 64 63 58 56 49 46 45 44 45 46 46 48 45 47 43 40 39 41 41 43 44 42 38 38 37 33 33 28 27 31 37 40 36 32 34 36 36 35 31 29 27
67 67 65 63 61 61 62 65 62 60 53 47 43 42 42 41 42 45 46 41 41 39 40 39 38 39 41 39 42 40 37 36 31 29 27 25 29 33 38 34 29 32 31 33 31 28 26 24 22
69 68 65 63 60 59 60 63 56 54 51 45 42 39 37 36 39 38 34 33 36 38 38 37 37 40 35 38 39 34 32 30 26 23 24 25 31 35 32 28 29 28 30 29 24 26 23 21 21
72 68 65 65 59 59 58 64 56 47 46 45 39 34 27 30 34 32 32 36 40 37 34 36 38 34 34 38 35 27 26 22 21 19 24 28 31 29 28 28 28 26 27 24 23 23 20 19 19
68 68 67 64 62 61 60 60 47 41 42 36 32 28 32 33 33 32 35 38 37 30 31 38 34 33 36 36 27 25 21 18 19 23 25 29 24 25 26 25 22 24 22 21 21 16 17 18 17
66 64 63 64 65 67 57 56 48 37 34 33 34 33 33 32 35 36 34 32 30 31 32 33 34 37 34 31 23 22 18 20 21 24 25 21 20 22 24 23 21 20 19 18 16 16 19 15 12
62 64 63 63 66 59 55 58 40 32 38 37 36 36 33 32 33 31 27 27 27 27 30 33 35 35 31 22 22 18 20 21 23 24 18 19 20 23 23 21 18 17 17 15 15 16 15 14 9
52 58 62 66 66 55 53 53 38 35 38 26 20 33 35 33 32 24 22 23 25 28 28 29 31 30 22 20 18 17 19 21 22 17 18 19 21 21 21 18 16 15 14 12 14 15 15 10 9
40 51 51 54 60 60 58 44 40 42 39 29 16 20 28 28 23 20 21 24 23 19 23 22 23 18 17 16 15 16 19 19 15 16 19 20 21 21 17 16 15 14 9 11 14 17 14 9 11
38 42 47 51 54 58 55 49 45 44 40 31 29 18 16 21 22 23 24 21 18 18 16 12 11 12 14 13 13 17 17 13 15 19 21 20 19 17 15 14 14 12 7 13 15 13 11 8 8
30 41 47 47 48 53 54 52 49 49 42 32 38 36 30 23 21 23 18 19 15 16 12 11 11 11 12 11 14 15 12 12 17 20 19 17 16 13 14 14 11 9 8 10 14 9 9 10 11
33 34 45 50 51 53 55 55 54 50 45 37 29 38 28 23 24 25 18 17 15 16 12 11 9 10 11 12 13 12 11 15 17 16 12 12 11 12 13 9 8 7 8 9 10 8 12 10 9

GFSSGP_500_spd_045.txt.gz
Wind_Speed
25 25 25 26 27 25 27 26 24 24 21 19 17 16 15 11 13 10 12 14 18 21 18 17 17 20 20 20 22 25 29 30 29 28 26 24 23 21 22 24 24 25 27 28 28 27 26 25 24
27 26 27 28 27 27 29 28 28 27 25 21 19 18 20 16 16 14 13 15 22 24 21 18 20 18 20 22 25 28 30 32 30 27 23 22 22 21 22 24 26 26 27 27 28 28 29 29 28
29 28 29 30 28 27 32 33 31 29 26 23 22 22 21 16 16 17 15 21 25 29 20 23 17 20 20 20 24 28 32 33 30 25 18 18 21 22 23 24 27 29 27 27 29 29 30 30 30
32 32 31 31 27 28 31 32 31 30 27 25 26 26 19 15 19 18 20 22 27 26 17 14 16 22 20 21 23 29 32 34 34 28 22 18 22 24 23 24 25 26 27 24 27 29 29 29 28
34 34 34 30 29 29 32 35 34 31 28 28 28 25 22 23 20 22 23 23 25 27 23 19 23 23 22 20 23 31 35 33 32 30 27 26 24 26 26 26 26 25 25 24 26 28 28 29 29
37 35 35 30 30 30 33 34 34 31 31 31 30 29 26 27 26 25 27 29 30 27 17 22 27 24 22 22 26 30 36 34 33 31 31 30 28 27 30 31 29 29 28 27 27 28 28 29 29
40 39 36 36 33 35 36 39 38 36 34 35 33 30 30 32 33 32 33 33 34 32 28 30 27 24 25 28 31 31 37 34 30 32 33 33 32 31 31 32 32 32 31 29 29 30 29 29 26
42 44 40 38 37 37 41 42 41 39 40 37 35 34 37 36 36 35 36 36 38 30 29 31 26 27 28 26 30 35 36 34 29 30 35 35 35 34 34 35 35 34 33 30 30 31 31 31 28
47 52 48 41 41 39 39 42 44 42 42 43 41 39 41 40 40 39 37 35 37 31 33 26 24 26 28 31 30 35 39 38 37 34 33 32 34 36 35 37 35 35 34 32 30 32 32 32 29
53 54 48 40 42 40 40 44 45 47 47 48 46 45 45 45 45 41 36 40 30 32 30 29 31 30 31 33 33 37 40 43 43 43 38 31 32 36 37 36 36 36 35 33 30 32 31 31 28
58 58 46 46 45 44 43 49 52 53 51 48 47 46 46 46 48 42 39 35 31 34 34 33 33 31 32 37 38 39 43 43 45 48 45 35 35 36 38 38 36 37 36 34 30 34 33 31 31
61 60 52 49 50 49 46 51 55 55 51 51 51 50 50 50 48 44 38 31 33 38 35 34 33 34 36 39 41 41 44 45 46 51 45 33 35 32 33 32 34 36 38 37 28 33 34 35 31
65 60 60 54 53 53 49 56 57 61 55 54 53 53 52 49 46 45 38 40 39 39 35 34 36 38 40 41 42 44 44 46 48 52 40 31 33 33 32 30 31 33 35 34 33 33 36 40 35
70 64 64 59 58 54 57 57 62 60 62 61 59 55 55 50 44 42 43 43 43 42 36 35 38 41 43 41 42 45 47 48 48 48 35 33 33 31 30 29 30 30 35 36 34 35 37 38 36
67 77 72 67 62 62 61 62 66 59 62 64 65 61 55 50 48 43 46 48 48 44 37 37 43 45 44 45 43 45 45 46 45 43 42 35 35 33 30 28 29 29 34 33 32 38 38 39 38
63 70 79 73 69 62 66 66 59 60 62 62 60 56 56 55 55 49 46 47 48 45 41 41 45 46 45 45 47 43 45 48 47 44 42 37 35 34 32 29 28 32 35 32 34 37 39 37 37
64 66 68 69 75 76 72 70 64 63 61 59 59 59 58 57 59 58 53 51 47 46 46 44 47 48 45 45 47 45 42 47 47 45 41 39 38 36 33 29 30 34 37 35 36 37 38 37 37
62 62 63 68 68 73 78 73 69 67 65 66 63 62 61 61 58 56 53 54 51 49 48 46 49 50 46 45 42 39 43 44 46 43 43 42 38 33 31 30 31 34 35 38 36 36 35 36 38
66 68 69 66 65 68 67 70 72 75 69 65 64 64 62 59 57 52 48 48 52 49 48 48 50 51 47 42 39 41 44 45 44 44 42 38 33 29 29 30 31 35 39 34 34 35 35 35 31
71 71 71 67 66 64 66 65 66 63 63 62 57 57 54 50 50 50 45 45 48 51 52 51 52 50 44 39 40 43 41 43 44 39 31 27 26 27 28 31 34 35 33 32 33 33 32 27 27
77 75 72 69 66 65 64 65 63 60 55 54 50 44 41 39 42 43 44 46 50 49 48 50 49 44 37 39 41 41 40 39 36 30 26 24 25 26 28 32 34 32 31 32 30 31 25 24 25
76 75 73 69 68 66 62 68 61 54 55 51 47 44 40 36 38 39 41 43 43 42 45 44 43 37 36 39 39 37 37 35 29 26 23 24 25 27 30 30 29 29 29 27 29 24 20 21 23
72 74 73 70 70 67 64 67 53 50 50 45 40 34 34 37 39 37 40 40 40 41 41 38 32 35 35 37 37 37 35 28 25 24 23 25 25 27 27 26 26 27 26 27 22 19 17 23 26
60 67 70 70 69 71 65 63 52 48 41 37 36 36 37 36 37 38 41 39 39 38 31 29 32 32 36 34 37 36 28 26 23 23 24 24 25 25 24 25 26 25 25 21 18 18 18 22 23
45 57 63 66 72 68 67 63 39 42 38 38 41 39 37 35 36 39 38 36 36 30 26 29 29 32 33 35 36 29 25 24 22 22 22 22 23 23 23 25 24 22 19 17 18 17 18 21 22
31 48 50 66 67 63 63 57 41 39 24 24 38 42 37 36 38 34 32 30 27 25 26 28 31 31 33 32 27 25 23 22 20 20 20 19 21 21 24 24 22 19 17 16 16 16 19 22 15
32 33 46 44 54 64 63 49 44 43 44 27 24 28 34 38 36 33 29 22 24 27 28 26 25 25 27 25 23 19 19 18 17 18 17 20 21 24 24 21 18 16 15 16 13 17 20 15 12
33 28 33 42 46 56 58 52 48 47 45 47 45 36 31 25 34 30 24 25 29 28 21 21 21 22 20 18 16 16 16 16 16 16 19 20 22 22 20 19 16 14 14 16 11 17 14 13 12
29 32 32 33 44 49 53 53 51 49 43 41 37 38 31 27 25 24 27 31 25 19 20 17 17 16 14 14 14 13 14 14 15 17 19 20 20 19 18 16 15 12 13 14 10 14 10 13 11
21 30 28 34 40 47 50 50 50 51 46 40 36 35 31 23 18 27 29 21 18 18 15 16 17 15 13 13 12 13 13 14 16 17 16 15 17 15 13 13 11 10 12 12 11 11 12 14 13

GFSSGP_500_spd_048.txt.gz
Wind_Speed
31 31 30 29 29 28 27 29 30 28 24 20 19 17 15 16 13 10 6 6 8 12 19 16 15 14 19 22 24 25 26 28 31 31 29 25 22 20 21 22 22 23 23 24 25 23 24 23 22
32 32 32 32 30 28 29 31 31 29 27 22 21 19 17 17 14 13 9 8 13 15 21 16 15 15 17 22 25 26 28 31 36 36 31 25 22 21 22 22 23 24 24 25 25 25 24 25 23
33 33 34 33 31 28 30 33 36 31 28 25 23 21 22 16 15 14 13 9 11 17 21 15 14 11 20 21 26 27 27 30 35 38 33 28 26 24 25 25 26 26 25 25 26 27 26 26 26
34 35 35 33 28 28 32 37 36 32 30 28 27 27 25 20 18 17 17 12 11 14 21 21 18 15 25 25 25 28 30 32 35 36 33 30 27 25 25 25 25 26 27 26 25 27 25 26 27
37 37 38 33 27 29 35 39 39 37 34 31 30 29 26 21 20 21 19 16 18 19 21 25 20 18 27 27 25 27 31 32 34 33 32 31 29 28 27 26 26 27 27 27 26 26 24 25 27
38 37 39 33 30 32 38 39 38 37 35 34 33 30 26 22 24 23 23 21 22 23 24 24 22 26 30 26 24 25 31 32 35 32 31 33 33 32 30 30 29 29 29 29 31 28 24 24 26
40 41 39 36 35 36 36 39 38 38 38 36 36 31 30 28 26 26 26 25 25 26 26 26 25 28 27 24 26 28 31 31 32 31 33 30 31 33 33 32 32 33 33 32 32 31 28 25 27
41 43 43 40 37 35 38 40 40 40 38 40 36 36 36 31 28 29 29 27 29 31 26 25 25 29 26 25 26 29 33 32 33 33 32 31 31 33 33 33 34 35 36 35 34 33 30 26 26
44 49 46 41 39 35 37 41 44 46 43 41 43 42 35 32 33 34 32 31 34 34 29 24 25 26 26 28 30 33 34 34 34 35 37 39 34 33 33 35 36 37 38 38 35 33 31 29 27
51 54 48 41 43 37 38 43 47 50 47 46 45 43 41 38 37 36 36 37 36 33 31 26 27 29 29 30 30 32 34 35 34 35 43 41 40 38 34 34 35 38 39 35 34 34 33 31 29
60 60 49 47 48 47 44 47 50 49 51 50 48 48 47 43 42 41 40 41 40 36 35 29 30 32 31 33 35 36 34 34 33 36 39 43 43 43 33 34 34 38 36 32 32 32 32 30 28
65 63 58 51 54 51 49 49 50 54 54 50 54 50 48 48 45 45 44 42 40 35 32 33 35 36 34 37 37 39 35 36 37 38 39 43 46 40 34 34 33 35 33 32 31 30 31 24 27
53 55 66 60 61 56 50 51 53 55 51 56 55 55 53 50 46 48 50 43 42 39 35 39 41 41 38 38 39 39 37 37 40 40 42 44 43 40 36 34 34 33 33 32 30 29 31 29 30
54 58 58 68 65 61 56 53 58 57 53 58 58 59 57 52 48 52 52 47 47 43 38 43 44 45 44 39 41 40 37 38 41 45 47 45 43 41 39 38 35 33 34 32 30 32 33 30 32
55 60 61 61 66 66 63 61 65 58 59 58 61 59 58 55 54 53 50 47 40 39 35 40 48 50 49 44 43 42 41 38 41 47 48 43 41 41 42 41 37 35 33 33 31 33 32 34 37
58 59 62 57 63 64 76 72 65 61 62 64 56 58 57 56 57 58 53 48 44 47 41 45 48 51 52 49 48 45 44 43 42 44 42 40 40 42 42 44 37 35 33 32 33 34 34 37 40
63 63 61 58 59 63 72 74 63 62 66 67 63 62 58 61 63 61 57 52 49 55 49 55 57 56 52 50 52 49 45 42 43 42 39 40 42 43 46 43 37 33 32 32 34 34 38 38 37
59 64 63 63 58 66 68 66 69 67 66 68 67 65 65 64 64 61 57 57 51 51 56 57 58 55 54 54 55 51 45 42 41 42 41 42 43 44 44 39 34 32 32 33 34 37 38 38 34
68 70 68 68 65 68 68 66 65 70 73 70 70 63 60 60 59 61 56 55 57 57 59 56 56 56 55 54 55 50 45 41 41 42 43 42 44 42 39 33 29 30 30 34 35 39 37 35 33
74 75 72 72 71 69 70 68 63 64 67 72 72 70 68 65 63 62 60 59 59 61 60 57 56 55 52 53 51 48 43 42 41 42 40 42 42 35 29 28 28 28 32 34 36 37 36 32 32
70 75 75 76 77 69 71 70 65 64 66 64 62 65 66 64 63 57 56 60 57 59 60 58 54 54 51 51 51 48 42 41 40 40 40 41 33 30 26 27 28 29 31 33 35 32 29 30 26
66 72 77 79 79 75 70 72 68 61 61 60 57 54 53 51 51 48 48 51 53 55 57 54 53 50 47 45 45 43 40 40 39 38 40 35 30 25 26 28 28 28 30 32 33 31 29 25 23
47 61 69 74 80 79 75 74 70 64 61 55 52 49 47 44 45 42 42 44 47 48 51 49 45 42 40 39 39 36 38 39 38 38 35 31 24 26 28 27 26 28 29 32 31 28 24 23 22
29 33 40 45 49 62 75 72 67 62 57 52 46 44 44 45 44 43 43 41 42 44 45 41 39 33 31 33 30 33 37 36 37 37 30 26 26 27 26 26 27 27 29 28 28 24 22 21 21
24 25 30 43 52 60 72 54 66 59 53 48 46 44 42 41 39 41 44 44 44 42 40 38 30 27 28 28 30 33 34 35 36 31 26 25 26 25 25 26 26 28 28 26 23 21 20 19 22
24 25 29 35 41 50 51 50 61 52 47 49 48 40 41 40 39 41 42 41 41 39 36 30 28 27 26 29 31 32 34 33 30 26 23 25 25 25 25 25 27 27 24 22 19 19 15 19 22
23 28 27 31 26 37 39 52 65 54 55 39 34 43 41 41 41 42 38 35 32 30 28 27 28 28 29 27 29 31 29 27 24 22 23 24 24 24 26 27 26 23 21 20 18 16 13 20 18
18 24 23 36 25 23 30 36 59 55 53 48 30 36 45 44 40 38 34 31 29 27 27 29 28 27 27 28 29 26 23 21 21 21 23 24 23 25 26 24 22 21 20 17 16 16 14 17 18
9 26 27 24 34 16 27 27 42 58 51 47 41 33 35 38 38 31 34 33 30 29 30 25 26 26 25 24 22 20 19 19 20 22 23 22 23 23 21 20 19 18 17 15 16 15 15 17 18
13 18 30 23 26 32 27 16 40 53 52 45 49 44 39 33 24 20 29 34 31 30 24 24 24 23 22 19 19 19 18 19 21 22 21 22 20 18 19 18 16 16 13 13 14 13 14 17 18

GFSSGP_500_spd_051.txt.gz
Wind_Speed
33 33 32 33 31 29 26 25 21 25 28 21 21 20 19 18 17 18 16 10 7 8 14 16 15 14 12 17 22 25 26 26 28 29 31 33 30 26 24 22 21 22 24 25 25 24 24 22 21
36 36 36 35 32 29 25 25 28 30 22 29 22 22 20 23 21 20 13 12 9 7 12 15 13 16 9 16 23 26 28 29 30 31 33 35 29 29 28 26 25 24 23 24 27 27 25 24 23
38 39 38 38 35 30 18 19 24 29 37 25 24 24 23 27 23 18 15 13 10 9 12 15 18 14 16 20 24 27 25 28 32 34 35 36 31 28 29 29 28 28 28 27 27 27 27 27 25
36 39 40 39 34 31 30 18 22 26 38 31 28 27 26 26 22 21 19 16 15 13 14 18 21 20 21 22 26 28 25 29 32 33 34 34 33 31 31 30 30 31 31 32 31 30 29 29 27
36 38 40 39 35 34 32 25 37 35 34 35 32 28 26 28 26 23 23 19 16 14 16 18 21 21 20 25 27 27 27 29 32 33 33 31 30 32 33 31 30 31 30 31 31 31 31 30 28
37 39 39 38 33 32 35 28 35 37 36 34 35 31 31 30 28 27 27 23 20 17 18 18 20 21 21 22 27 26 29 30 30 33 33 32 32 32 33 31 29 29 30 32 32 32 33 32 29
35 38 39 38 35 37 29 32 37 35 36 37 36 36 32 33 32 30 29 24 22 21 20 22 23 23 22 24 23 26 28 31 32 35 35 32 32 32 33 33 31 31 32 33 34 34 32 31 30
41 40 43 41 37 37 38 42 44 41 42 43 44 37 27 38 31 32 30 26 24 24 24 25 26 25 24 21 22 25 28 31 34 36 35 30 32 29 29 30 31 32 33 35 35 35 34 31 32
47 47 48 42 39 39 36 38 38 37 42 47 48 42 43 45 31 33 31 30 28 28 27 28 27 25 24 25 28 30 31 31 34 33 31 32 34 34 31 30 31 32 35 37 38 38 33 31 32
54 58 51 42 41 44 44 37 39 40 47 46 48 51 45 44 36 34 35 33 30 32 32 29 29 30 28 28 33 33 32 33 33 32 30 32 34 35 36 35 34 34 37 37 38 38 32 31 34
57 57 54 46 44 46 47 41 40 44 46 44 49 50 44 45 43 39 38 34 34 35 36 33 33 31 29 29 34 35 35 37 34 33 31 33 34 36 40 38 36 35 38 36 37 36 31 30 30
54 54 60 58 52 51 53 46 47 46 49 48 44 44 42 51 48 42 39 33 32 33 37 38 35 34 33 35 36 38 39 39 37 35 34 34 35 40 40 38 38 36 38 36 37 37 30 30 30
53 46 49 61 60 61 56 52 51 51 47 49 54 52 61 54 49 47 45 43 43 43 39 38 40 35 38 36 35 37 41 43 38 37 38 37 38 42 40 38 37 39 38 37 36 38 31 30 30
47 50 52 52 60 63 66 61 52 58 54 52 56 60 63 56 54 51 50 45 46 47 44 42 44 41 39 37 36 40 41 43 40 38 40 38 41 45 38 37 38 39 40 39 38 36 34 30 33
52 54 56 56 55 58 59 71 69 57 55 59 60 60 61 54 56 55 54 51 51 49 48 46 45 43 40 38 43 48 48 44 43 42 42 41 41 40 38 38 38 39 42 40 40 37 34 32 34
56 58 60 53 56 56 63 66 70 67 64 61 59 59 61 57 58 58 56 54 56 52 51 48 45 47 45 46 48 49 50 47 46 45 46 44 41 38 37 40 39 41 43 40 39 36 33 34 36
55 58 59 57 56 59 61 65 54 59 70 71 65 62 63 53 59 60 58 58 61 57 52 50 48 47 51 50 51 55 53 51 49 47 46 47 41 37 40 41 41 42 43 40 35 33 33 36 37
56 59 59 60 56 54 58 65 58 54 60 70 65 66 64 62 58 60 63 65 58 57 53 51 52 52 51 51 54 56 55 54 51 48 47 48 39 39 41 41 42 44 42 33 30 32 35 36 38
63 65 66 63 60 48 55 65 63 60 64 65 73 71 66 66 63 61 65 68 61 55 52 50 52 55 55 54 56 59 57 58 52 47 46 45 38 39 40 41 41 38 32 29 29 34 36 37 37
66 68 70 68 69 44 65 69 70 68 66 64 64 74 72 71 64 66 68 69 60 55 55 53 57 59 57 57 60 62 60 57 50 50 47 42 38 39 40 39 36 32 27 28 32 35 35 35 34
61 66 69 74 74 62 74 76 73 71 69 67 63 63 71 72 70 72 72 68 55 55 55 56 59 60 60 57 57 60 56 52 49 48 43 38 39 38 41 36 32 28 30 31 34 33 33 35 32
58 57 65 72 75 79 76 78 75 70 70 70 62 63 67 73 70 65 64 61 62 62 60 60 60 62 62 59 58 53 48 46 44 41 35 36 38 38 38 33 30 30 32 31 32 32 34 32 29
35 35 41 46 64 74 64 72 78 68 71 69 65 65 60 60 59 56 58 61 61 61 57 56 59 59 59 53 48 44 41 38 32 32 32 35 35 39 34 31 30 31 31 30 32 32 31 29 24
33 36 38 39 42 52 66 64 81 70 45 44 64 66 60 55 54 51 50 49 50 49 51 53 51 48 44 42 38 35 33 28 27 30 33 33 36 36 31 30 30 29 31 30 31 31 26 23 22
24 24 28 33 40 51 50 54 59 56 48 45 52 64 58 54 49 48 48 47 46 46 47 45 41 39 36 31 33 31 25 27 28 31 33 33 35 31 30 29 28 29 30 31 30 26 22 19 19
22 27 27 30 28 28 38 51 45 53 42 38 58 59 55 48 44 46 47 45 44 46 46 43 40 36 30 31 29 25 26 27 29 32 31 34 30 29 28 26 28 29 31 29 26 23 21 20 19
26 32 22 29 31 36 32 38 42 38 44 45 54 53 51 51 47 44 43 44 41 42 42 41 38 33 31 30 25 26 27 28 29 29 33 29 26 25 26 26 29 31 28 25 22 22 21 20 22
27 15 21 21 30 31 18 31 28 45 39 32 44 50 50 45 45 45 45 42 39 39 37 35 32 30 31 26 26 27 27 28 27 30 27 25 26 24 25 27 29 27 24 22 21 20 19 21 23
16 9 21 19 27 28 20 27 22 28 42 37 34 43 37 46 47 46 42 40 36 36 32 30 29 29 26 26 26 26 27 26 27 23 23 24 25 23 25 26 24 24 21 20 19 17 19 20 21
12 11 19 27 21 27 23 25 31 33 33 35 40 53 50 41 44 42 39 37 34 33 30 31 31 26 26 25 25 26 25 24 22 22 23 23 22 23 24 22 22 21 19 17 15 16 19 19 19

GFSSGP_500_spd_054.txt.gz
Wind_Speed
34 33 31 32 32 30 25 21 20 14 22 27 24 27 26 20 25 28 29 20 9 8 10 11 12 13 9 6 12 18 21 22 23 25 27 28 30 28 26 24 26 27 27 26 26 24 24 22 23
36 35 34 34 32 31 25 17 19 14 20 28 28 18 19 20 27 25 29 15 12 11 10 9 12 14 12 14 19 22 24 23 25 28 29 30 30 29 27 26 26 27 28 29 28 28 26 24 22
38 38 37 37 35 29 25 7 27 22 22 27 26 24 24 23 33 31 22 17 16 11 13 13 16 15 14 15 17 20 23 24 25 28 29 30 31 31 29 29 30 31 30 29 29 28 28 29 27
36 39 39 39 35 31 24 21 9 23 25 33 29 26 27 31 39 24 20 20 19 14 18 19 17 17 16 17 19 19 21 23 25 27 29 32 32 32 32 30 31 31 30 29 29 29 30 29 29
35 39 40 38 37 33 33 23 13 19 20 32 32 29 29 28 34 27 23 23 22 20 18 21 17 18 18 19 20 20 22 24 26 29 31 34 34 32 31 31 30 30 28 29 29 31 32 32 30
35 37 39 38 35 36 36 34 17 25 23 19 24 23 29 34 35 28 26 27 27 20 21 20 18 19 20 20 20 20 20 24 27 30 32 34 34 31 30 30 31 30 29 28 29 30 32 34 33
34 37 39 40 37 38 37 34 27 23 28 36 18 21 24 35 33 31 31 31 27 21 22 22 21 20 21 21 21 18 22 28 30 30 33 34 34 31 30 29 30 30 29 29 29 30 32 35 31
38 39 44 42 39 39 34 39 40 33 32 28 21 23 21 31 40 35 36 35 30 25 24 24 22 22 22 23 24 23 26 30 30 31 32 33 31 32 31 29 30 29 28 29 30 30 33 35 30
47 53 50 47 44 41 38 38 39 38 39 35 34 29 34 40 37 29 30 34 34 28 28 27 24 23 24 25 24 22 25 29 29 33 34 31 32 33 33 34 32 30 30 31 32 32 34 34 29
55 60 56 47 40 39 43 42 39 41 37 33 43 46 45 41 43 36 32 33 36 34 32 31 28 25 25 26 24 24 29 31 29 32 35 34 32 32 34 34 34 33 32 31 33 35 36 34 30
51 52 48 54 46 42 40 42 47 41 40 31 36 45 48 46 48 43 41 41 38 37 39 35 32 29 27 28 24 27 30 28 29 32 34 35 33 33 34 35 32 32 32 31 34 36 36 35 33
52 52 50 47 58 58 50 46 47 46 42 40 28 32 33 42 49 47 44 43 42 39 39 42 26 21 30 32 28 28 28 29 31 34 35 36 35 36 39 39 34 32 32 32 34 36 38 37 35
50 46 46 51 56 58 56 57 55 51 43 40 50 36 30 42 49 51 46 39 37 33 36 37 36 31 36 38 35 33 32 31 36 36 36 34 36 37 41 42 36 33 32 31 35 37 40 38 36
44 47 50 49 50 53 58 62 64 57 43 45 49 51 40 41 48 53 50 50 49 48 42 46 49 39 36 41 39 37 35 37 40 40 41 37 36 38 41 42 40 37 34 33 34 37 41 36 34
45 49 50 50 49 52 55 57 64 61 59 50 51 51 53 45 52 49 37 47 53 52 50 51 49 49 39 42 40 40 38 39 41 44 48 42 40 40 41 42 38 36 36 37 37 38 42 35 32
48 51 52 44 50 48 52 59 49 53 62 64 56 55 54 58 62 63 58 55 56 55 52 52 50 52 47 44 42 42 41 41 43 46 48 48 45 44 42 40 37 35 36 39 38 41 39 33 31
47 50 51 49 50 53 53 58 51 47 53 63 68 64 61 60 63 65 59 54 60 54 55 56 52 48 52 48 44 44 44 42 46 49 50 49 48 43 42 40 36 35 37 38 39 40 35 33 31
50 53 53 53 48 55 54 56 56 52 54 55 59 67 67 67 62 66 65 58 61 59 61 55 50 50 51 50 43 41 45 44 50 52 55 52 50 42 41 39 36 36 38 38 36 33 32 31 34
57 58 59 57 58 57 46 43 58 56 57 57 59 62 64 69 72 66 62 63 60 62 64 57 53 49 49 49 48 47 47 48 52 54 52 52 48 40 39 36 36 36 38 36 33 31 32 33 34
58 63 62 63 63 65 65 66 63 60 60 58 61 62 61 60 69 73 73 66 69 69 67 57 52 49 50 49 50 47 48 52 56 55 52 48 44 38 35 34 35 37 36 32 31 31 33 33 32
55 58 62 65 67 69 70 72 69 63 64 60 51 63 62 60 61 67 68 64 69 71 72 56 53 48 46 53 51 47 51 57 59 58 48 44 38 32 30 33 34 36 34 30 31 32 32 32 33
53 52 55 59 63 68 61 73 71 66 67 70 67 64 64 63 63 64 66 74 71 76 72 61 59 54 51 49 50 53 56 54 55 52 42 38 28 26 29 32 35 34 32 30 32 31 31 33 32
39 38 39 46 48 55 62 61 73 69 69 72 69 66 63 66 63 62 65 64 60 68 63 61 60 58 51 45 55 60 56 54 46 42 37 27 25 26 28 32 34 32 32 31 29 29 31 32 30
29 42 43 44 43 51 66 50 75 72 73 70 56 57 60 66 66 62 59 58 53 52 58 60 55 53 46 49 55 51 47 42 38 35 27 26 25 25 29 32 32 30 30 29 29 30 32 31 27
19 25 29 34 34 43 40 40 58 67 66 66 47 29 28 31 52 69 59 54 52 50 48 45 42 39 41 47 41 38 38 35 34 26 28 24 25 27 30 31 29 28 28 27 30 32 30 26 24
21 29 32 38 33 25 29 35 41 48 52 55 44 42 43 44 47 54 62 54 52 50 47 42 42 40 43 39 35 33 32 32 30 27 25 25 26 29 29 27 27 26 27 30 31 30 27 22 22
27 25 22 31 32 37 28 34 39 32 43 45 45 29 41 48 48 63 53 51 47 46 44 40 41 43 42 40 34 30 31 29 27 27 24 26 28 26 25 24 24 24 28 30 30 26 24 23 23
23 22 25 25 30 31 25 30 12 17 30 32 42 42 39 47 55 53 45 45 50 45 40 40 41 41 42 36 30 31 29 28 26 25 27 26 23 21 22 22 22 26 28 27 27 23 23 22 21
20 18 15 19 25 24 20 15 8 19 36 37 47 44 27 44 45 41 45 48 45 41 38 40 39 38 34 31 31 28 29 26 24 25 26 23 20 19 20 20 24 26 25 25 25 23 21 20 19
22 22 22 32 24 23 27 26 28 11 43 35 32 29 48 56 48 41 43 46 43 40 39 37 33 31 30 29 29 29 25 25 23 23 23 22 19 19 19 21 23 22 23 25 21 18 18 19 20

GFSSGP_500_spd_057.txt.gz
Wind_Speed
36 36 34 34 31 28 23 20 21 19 17 7 18 27 29 33 34 32 18 20 9 10 8 9 8 8 8 5 10 15 17 17 17 17 18 19 23 26 26 25 24 24 25 24 21 21 22 23 23
36 38 38 38 33 28 22 22 14 6 12 17 30 31 34 35 35 36 21 22 14 14 11 12 12 13 12 8 10 13 16 18 17 19 20 21 24 26 26 26 25 26 25 24 23 24 25 25 23
37 39 40 40 34 26 22 26 27 10 16 23 31 36 32 35 34 30 25 28 18 15 12 14 16 17 16 13 11 14 14 15 16 18 20 24 26 27 26 25 26 26 26 24 23 22 23 25 25
36 38 41 41 33 29 24 27 19 18 11 29 34 32 28 37 31 29 27 27 18 20 17 16 18 19 17 15 14 14 13 16 19 22 23 24 26 28 28 27 25 25 25 23 23 22 23 24 28
30 36 41 41 35 31 28 32 30 24 12 24 35 31 34 31 30 30 21 23 24 23 19 20 21 21 19 16 16 16 13 15 22 24 25 28 27 28 29 28 26 27 26 25 24 25 26 26 28
37 39 35 36 36 36 34 37 39 31 21 10 21 26 31 37 28 27 25 26 28 26 24 22 24 23 21 17 15 17 16 19 25 24 26 28 29 28 28 28 27 27 26 26 26 26 25 27 28
38 39 44 35 34 38 34 39 43 40 32 25 20 14 20 30 32 30 31 29 29 28 28 26 25 23 20 18 17 18 17 18 24 25 24 28 29 28 28 30 30 28 26 26 26 26 25 27 28
42 46 48 46 37 37 35 41 43 44 44 35 27 23 21 27 29 30 30 32 31 32 28 29 26 25 22 19 20 19 18 20 25 25 24 25 27 28 28 30 31 30 27 27 27 27 26 28 28
48 55 49 42 42 35 35 36 42 46 45 44 36 33 30 30 32 33 36 37 34 36 31 29 28 28 25 19 20 20 19 21 24 24 25 27 26 28 28 30 32 32 29 28 29 29 27 28 30
55 51 55 40 38 39 35 35 37 46 43 41 42 41 39 37 35 34 37 33 28 35 29 29 30 31 29 23 19 21 21 22 25 26 28 29 29 29 29 30 32 32 30 29 30 30 28 29 32
47 49 48 52 47 47 42 42 43 42 47 43 37 40 39 37 39 37 39 37 38 32 28 30 33 31 33 27 18 21 23 26 26 27 29 28 31 30 31 32 32 34 31 30 31 30 29 29 33
48 48 47 45 52 55 62 53 47 60 53 43 43 43 46 46 48 48 44 40 43 45 41 39 38 40 35 26 21 24 25 28 27 29 29 28 32 31 33 34 34 35 33 32 31 30 29 29 32
46 43 46 47 49 51 51 56 55 48 52 52 44 46 48 48 43 43 48 40 40 50 43 46 32 31 33 17 20 26 26 30 31 30 31 29 31 34 35 37 35 34 33 33 32 30 30 29 32
41 43 45 47 47 48 53 54 59 60 54 49 36 42 46 48 48 47 38 45 49 42 53 50 45 24 23 28 33 30 29 31 32 32 32 31 32 34 37 38 36 34 32 33 32 31 30 31 33
40 42 43 43 44 45 49 53 53 51 61 63 50 43 49 49 52 51 43 48 52 50 42 49 43 48 40 42 40 37 33 34 33 35 34 33 34 37 41 40 36 35 32 33 31 32 32 32 32
44 44 45 41 41 44 45 52 43 45 52 58 58 55 52 51 54 51 49 41 50 57 57 58 52 48 45 42 41 41 39 39 36 37 35 37 35 40 41 41 37 34 33 33 33 33 32 32 31
42 42 45 44 42 46 48 51 43 45 48 52 54 50 60 55 58 59 58 55 49 56 50 47 47 54 51 45 44 42 42 40 37 37 39 42 41 41 44 44 38 35 34 32 35 33 32 32 31
43 45 47 46 48 52 51 53 51 50 50 52 50 51 55 68 59 58 59 59 59 60 59 58 54 56 56 51 48 45 41 38 39 39 41 42 43 43 46 46 38 35 31 30 34 34 33 31 31
47 49 51 50 54 60 59 58 53 56 59 57 54 52 54 56 69 62 62 59 60 59 59 61 61 59 56 54 53 48 43 39 38 40 40 43 46 46 47 44 37 33 30 30 32 32 29 31 31
48 51 52 54 55 56 57 61 57 57 57 58 61 57 56 57 56 61 72 64 69 68 64 65 68 61 55 54 55 51 46 39 39 40 43 43 45 46 46 40 36 29 29 30 31 30 29 30 28
49 52 55 57 57 60 64 64 61 58 59 57 58 60 60 59 60 57 58 64 67 71 71 70 69 67 61 51 52 50 45 41 43 44 46 44 45 49 41 35 31 27 27 30 30 29 30 28 27
48 48 53 56 57 61 56 68 67 62 61 61 60 62 61 60 62 62 59 56 59 61 63 66 70 73 62 51 47 46 47 48 44 48 49 46 47 42 34 32 29 26 27 29 28 28 29 27 28
41 39 46 51 57 64 65 69 69 67 65 65 64 65 62 61 60 59 55 55 58 61 61 58 52 49 45 50 49 49 51 47 48 47 48 48 41 35 31 29 27 26 28 27 27 27 26 27 30
41 40 39 39 44 53 56 53 69 66 67 67 66 68 66 64 58 58 57 53 50 57 57 55 50 50 45 42 47 42 42 45 48 46 44 37 34 32 28 30 26 27 28 25 25 25 26 29 29
27 27 29 30 34 39 29 34 50 67 66 67 68 67 66 63 54 59 62 61 51 51 49 50 50 50 46 36 33 38 44 44 39 40 33 32 32 27 30 27 25 28 26 23 23 25 28 27 26
26 25 25 32 29 34 38 42 25 29 38 48 61 64 58 58 50 53 51 58 62 53 55 54 50 45 42 32 29 32 34 36 34 30 28 31 27 27 27 25 26 25 22 22 24 27 26 27 24
26 32 23 34 35 35 30 28 31 26 30 42 47 54 53 48 43 45 42 57 59 59 49 48 51 42 39 36 35 37 35 31 31 27 30 27 26 27 24 25 23 21 20 22 25 25 25 24 21
22 23 29 23 28 35 24 18 24 25 33 34 31 39 49 51 46 44 43 57 58 48 44 45 42 35 39 38 37 35 32 32 28 28 28 26 27 25 24 21 19 19 20 22 24 24 23 21 22
22 24 26 24 25 31 25 22 21 27 29 30 30 50 54 52 48 46 42 50 62 45 42 34 35 36 39 36 36 34 31 29 27 27 27 25 25 23 20 18 19 19 20 21 21 23 21 19 17
25 20 22 21 26 29 32 28 22 36 34 30 30 56 55 53 53 48 51 53 53 48 37 34 33 37 37 35 35 30 28 26 27 27 25 25 23 20 17 18 18 18 19 19 20 21 20 19 17

GFSSGP_500_spd_060.txt.gz
Wind_Speed
43 42 39 37 34 28 24 21 25 22 21 28 23 16 14 19 26 29 31 22 14 11 6 4 3 8 12 9 8 11 15 15 15 15 15 14 17 18 19 20 20 20 20 20 19 20 20 22 22
46 43 41 38 35 28 24 26 23 26 27 28 26 19 22 27 30 32 36 30 21 13 10 7 8 9 13 14 11 10 12 13 14 14 14 15 18 19 20 20 19 20 21 19 19 20 21 22 22
38 46 44 44 37 28 26 27 33 32 32 23 26 22 29 34 33 36 36 33 29 19 11 11 11 12 15 15 13 12 13 13 13 14 16 18 19 20 19 20 19 20 20 19 18 18 19 22 24
44 37 47 44 36 30 27 33 36 40 35 28 23 24 31 35 36 38 35 31 27 20 14 16 16 15 16 15 14 13 11 10 14 20 20 19 19 20 21 22 21 21 21 21 20 20 20 21 24
36 43 42 42 37 32 33 37 43 43 36 30 18 23 32 35 32 32 34 24 25 28 19 19 19 20 19 17 15 14 14 13 14 19 22 21 19 19 20 20 21 22 21 20 21 22 22 24 26
39 44 36 35 37 36 36 42 41 40 32 26 23 15 27 34 32 29 32 27 25 24 24 22 21 24 21 18 17 16 16 14 14 19 22 23 22 21 21 22 24 24 23 22 22 23 24 26 27
57 47 47 35 32 38 33 41 37 39 32 30 29 31 29 29 27 32 30 27 27 28 25 24 24 25 23 20 15 14 15 15 16 19 21 24 23 22 22 23 24 25 24 23 23 25 25 26 29
39 50 59 51 40 35 30 44 43 39 31 29 31 25 25 25 26 31 31 33 30 30 27 27 25 24 26 23 18 15 15 16 15 18 20 23 26 25 23 23 25 26 26 26 25 25 27 29 30
43 39 33 54 49 38 34 44 48 45 40 33 32 27 23 29 28 29 29 31 30 31 30 28 27 25 25 25 22 18 15 15 16 19 21 23 25 26 25 24 24 26 28 26 25 26 27 29 30
46 43 36 42 46 50 46 38 45 50 46 40 39 38 34 31 29 30 29 28 30 32 30 32 30 27 25 28 25 19 17 16 17 19 21 24 25 25 26 27 27 27 27 28 26 27 29 30 29
42 43 37 44 50 45 45 53 37 49 52 48 42 45 43 39 40 37 32 33 34 32 29 24 26 28 28 28 30 18 17 18 17 19 21 24 25 25 26 28 30 30 28 30 28 27 29 29 28
45 46 45 40 47 51 45 43 52 41 46 53 51 47 51 49 42 45 44 42 33 28 37 27 25 29 32 32 34 25 20 19 18 19 23 24 26 26 27 31 33 33 31 30 30 28 29 29 28
45 45 46 44 43 47 51 55 49 55 50 46 54 56 55 56 51 50 48 44 46 43 39 37 36 37 37 31 27 31 21 23 22 22 25 28 29 26 27 32 34 35 34 31 33 30 29 30 29
40 41 42 42 42 47 52 54 61 54 48 56 54 48 52 55 52 52 52 51 46 48 46 45 46 46 41 31 29 24 18 25 27 24 26 30 31 27 29 30 34 36 36 32 33 32 30 31 31
39 42 43 41 41 42 45 50 51 48 53 64 70 64 52 55 56 54 55 54 54 48 46 46 48 51 46 44 39 26 38 31 30 27 26 28 32 29 31 31 35 39 39 34 33 32 30 31 30
39 41 41 40 40 40 42 48 42 46 49 53 53 57 54 54 64 60 62 59 58 54 50 48 45 47 43 42 39 35 32 35 34 31 28 29 32 33 32 32 35 39 40 37 33 31 30 32 29
42 43 44 44 45 46 47 44 43 46 52 53 53 59 66 55 54 60 61 59 55 52 49 54 56 50 54 51 43 39 37 39 38 34 30 33 33 34 32 34 35 39 40 38 35 30 32 32 28
41 42 45 49 48 51 50 49 49 48 53 55 57 59 58 62 58 59 59 60 58 56 51 52 53 52 50 43 41 38 43 42 43 38 32 34 35 35 33 34 37 42 40 38 34 31 32 31 27
41 44 47 51 53 53 53 51 49 51 53 55 55 56 57 56 58 70 65 58 63 61 61 59 58 56 54 48 50 50 46 43 45 42 36 36 38 39 37 38 41 45 40 38 33 32 32 29 26
41 44 47 47 50 55 58 54 51 53 53 53 55 58 57 56 58 61 58 68 66 64 68 67 65 60 60 59 58 52 46 48 41 43 39 42 42 39 40 41 44 45 40 36 32 31 31 29 25
41 44 48 50 51 54 57 57 57 57 58 57 57 58 57 57 58 57 59 74 72 71 66 66 65 63 63 62 58 55 54 46 43 46 43 45 44 39 40 44 47 43 38 32 33 30 29 27 24
41 41 46 50 52 55 56 60 58 59 61 62 61 60 61 60 59 58 59 62 75 75 69 67 66 62 59 58 57 53 53 53 52 53 47 46 43 38 40 46 45 40 34 32 32 29 27 25 24
39 38 43 47 50 53 55 61 55 58 60 60 64 66 64 64 63 61 60 56 61 65 71 73 72 69 66 64 57 43 40 44 50 46 48 44 41 36 41 45 41 36 32 34 29 27 25 23 25
41 44 47 49 47 52 50 50 59 59 60 63 64 66 69 69 66 66 62 61 58 60 67 67 68 66 61 58 47 37 31 40 43 44 43 41 41 35 42 39 38 33 32 33 27 25 24 23 26
38 36 43 39 30 36 28 40 52 52 50 60 70 68 69 70 69 67 65 64 62 58 56 57 62 61 60 57 47 41 36 37 42 42 45 43 34 39 40 37 33 32 33 29 24 23 22 24 26
37 29 34 40 30 25 20 33 26 31 43 49 58 68 70 71 68 67 66 65 64 60 55 55 57 59 58 54 46 34 33 35 39 44 35 28 35 40 35 33 32 31 32 23 22 22 22 25 25
28 31 31 35 33 34 27 22 20 24 33 40 41 45 55 60 69 62 62 64 61 60 58 50 53 54 55 52 42 32 33 35 38 36 29 30 36 34 32 31 32 31 26 20 20 21 23 24 25
27 26 21 20 30 36 29 24 29 28 29 35 38 44 44 51 51 60 61 65 63 56 53 53 46 49 42 38 40 36 35 37 38 35 30 31 33 32 30 30 30 28 20 19 19 21 20 23 21
22 22 21 25 27 35 33 26 22 25 25 31 34 36 43 43 45 53 66 64 60 55 52 51 43 40 40 37 37 37 35 38 36 28 29 32 33 30 28 28 28 22 19 18 20 19 20 22 19
20 21 19 24 23 23 31 28 24 29 27 31 36 32 36 33 51 49 62 58 54 53 51 49 43 36 36 37 40 39 38 39 33 29 32 33 31 29 28 26 24 19 18 19 20 19 21 20 19

GFSSGP_500_spd_063.txt.gz
Wind_Speed
44 42 40 40 39 34 28 23 26 27 34 40 36 29 26 24 11 12 11 14 10 9 9 9 5 4 8 10 11 12 14 15 15 13 13 13 15 15 15 14 15 16 15 14 14 16 17 19 20
47 44 43 43 43 34 27 28 29 36 39 43 39 36 32 30 14 12 19 23 25 19 14 13 14 9 8 10 12 13 14 14 15 15 15 16 17 17 17 16 16 15 15 16 16 17 18 20 22
42 41 45 47 43 33 29 31 37 41 39 44 43 38 34 24 13 17 23 26 29 27 22 17 17 12 11 9 12 13 13 13 15 17 20 20 19 18 17 18 18 17 17 17 17 17 19 21 23
60 40 42 49 41 33 33 36 41 41 43 42 44 41 35 23 15 20 27 30 33 28 24 23 19 16 12 12 11 13 14 15 15 16 19 19 18 18 17 18 18 18 19 18 18 18 18 20 23
43 55 43 44 39 36 35 38 43 42 43 43 45 43 36 20 20 24 30 33 36 36 29 23 21 20 17 15 12 14 14 14 14 16 19 20 21 19 19 19 19 19 19 20 21 21 20 22 24
38 41 55 40 32 37 39 40 43 45 47 45 42 41 32 24 24 29 33 32 33 34 26 23 24 22 20 15 12 12 14 14 13 15 18 20 22 23 20 19 19 20 21 23 23 22 23 24 25
41 43 40 49 30 40 39 41 45 47 47 47 46 42 33 30 27 33 31 31 27 29 28 25 23 22 23 18 14 12 12 13 15 15 17 20 22 24 22 20 22 23 23 23 24 25 24 25 27
41 40 42 42 38 34 37 43 49 49 40 46 50 48 38 36 30 28 30 31 29 27 31 29 25 23 22 22 16 14 14 13 13 16 17 17 21 22 23 22 23 24 25 25 25 26 25 26 27
52 44 33 43 45 34 40 47 56 51 39 46 53 49 45 37 30 26 30 31 32 32 33 30 26 24 22 20 19 17 15 15 14 15 16 17 20 20 20 21 24 25 27 27 26 28 27 26 28
49 43 35 39 42 51 49 47 50 54 42 42 49 46 44 40 37 31 31 28 29 28 27 27 27 23 23 21 23 21 16 15 15 15 16 17 19 22 21 21 23 26 26 27 27 27 29 29 29
48 48 43 42 45 52 43 53 43 51 50 40 46 45 44 41 38 35 31 31 25 26 30 29 27 26 28 24 24 23 17 17 17 16 17 17 21 24 24 23 24 27 28 30 30 28 29 31 31
46 45 47 46 41 43 51 45 53 47 50 48 42 51 51 49 40 38 37 36 32 32 29 29 30 28 30 28 25 24 21 21 21 17 19 18 20 23 23 24 26 29 31 32 34 32 30 32 31
46 46 47 46 45 49 43 48 51 66 54 49 50 47 50 48 50 41 40 33 37 37 36 32 31 32 32 26 26 21 19 22 22 18 20 20 20 22 26 26 27 30 33 35 36 35 33 34 33
43 47 45 45 44 45 46 43 51 38 55 50 51 51 48 50 51 51 50 45 43 43 38 41 40 33 33 29 30 26 26 25 20 18 22 23 23 23 25 26 29 32 33 36 37 37 35 36 35
40 43 43 42 42 43 46 46 45 42 54 59 47 45 50 50 52 55 57 56 55 52 43 42 44 44 40 37 35 34 32 28 30 23 25 25 26 26 26 26 30 33 34 35 39 40 38 36 36
37 41 42 42 43 44 47 44 42 49 53 57 62 54 49 52 53 52 54 59 58 57 52 48 49 40 44 42 43 44 38 33 31 34 27 31 29 31 28 27 29 34 36 36 40 44 40 38 36
39 41 42 43 44 44 46 46 46 49 53 58 61 73 60 55 57 57 53 56 59 60 57 55 52 50 51 46 41 39 50 40 36 33 30 33 31 34 34 30 29 33 37 38 42 45 41 38 36
41 43 45 45 47 46 45 47 48 49 52 53 60 63 75 77 70 62 61 54 59 60 60 62 60 57 51 47 47 48 46 44 38 30 32 36 35 36 37 38 32 33 37 40 42 43 40 37 35
39 41 44 46 47 48 46 46 49 50 49 52 54 59 62 62 67 73 72 64 59 66 65 64 63 59 51 49 48 44 47 55 54 39 34 36 34 37 39 40 37 36 38 41 43 41 41 36 35
38 40 42 44 46 50 49 46 47 50 49 53 55 56 59 60 60 61 63 69 65 67 67 62 61 62 58 55 50 48 43 47 48 38 36 35 35 39 39 41 40 40 41 42 46 42 39 36 37
38 40 42 45 48 49 53 50 50 50 52 53 56 57 59 61 60 60 62 65 70 71 69 69 71 64 65 61 61 57 52 51 49 43 39 40 41 43 46 42 42 43 43 44 45 43 38 37 38
35 38 40 43 47 47 50 56 53 56 57 58 59 61 61 63 63 62 61 61 63 73 77 73 74 75 72 67 65 60 58 54 47 44 43 44 49 52 52 45 44 46 42 43 44 41 37 38 37
35 36 38 42 45 46 49 55 50 52 58 61 60 66 66 65 64 65 63 62 62 64 69 76 72 75 76 71 67 61 56 53 44 47 47 44 47 53 50 45 43 44 42 42 41 38 37 38 35
30 32 35 39 41 46 46 51 49 51 55 59 65 67 69 70 69 67 65 64 63 65 65 67 66 73 76 73 70 66 59 56 48 36 37 42 45 48 44 43 42 46 42 39 38 36 36 37 29
26 29 37 41 42 44 45 51 48 55 55 62 65 66 68 70 71 70 70 67 65 64 64 65 63 60 73 73 65 59 52 43 35 37 41 39 44 45 42 43 45 42 40 37 35 35 36 34 25
22 26 29 39 41 45 41 51 46 49 52 47 60 67 67 69 71 74 73 70 70 67 64 64 62 62 61 62 63 62 54 39 35 43 44 42 47 51 50 45 44 39 36 34 34 35 36 26 24
22 25 29 33 37 41 40 35 35 30 36 38 44 54 59 63 69 71 74 73 71 71 69 64 62 61 60 60 59 61 55 43 42 42 42 46 46 36 38 44 37 36 31 33 33 34 28 25 22
22 26 30 33 37 36 31 28 23 24 27 32 30 34 40 46 57 66 66 75 74 70 67 66 61 57 57 56 56 59 54 46 42 44 44 43 38 37 40 37 33 30 30 32 33 28 26 24 21
23 28 30 32 33 36 35 25 19 24 29 26 22 27 32 33 36 44 51 61 73 68 68 66 63 58 53 54 53 53 47 45 46 48 45 39 34 35 35 33 31 30 31 32 29 27 25 22 20
19 22 26 30 29 31 30 22 19 20 23 26 25 24 27 35 40 45 41 45 59 60 67 67 66 60 53 52 51 47 45 41 45 48 42 37 33 34 35 31 32 30 30 29 27 26 24 21 21

GFSSGP_500_spd_066.txt.gz
Wind_Speed
44 42 43 44 44 40 32 26 25 31 36 37 35 33 26 23 20 13 10 7 2 7 9 7 8 9 7 9 9 10 12 14 15 17 17 17 17 17 16 16 16 16 15 15 14 14 16 17 19
43 43 44 47 48 39 32 30 29 35 37 41 41 39 30 23 19 19 16 11 7 11 14 11 11 10 11 10 9 10 13 13 14 15 16 18 18 18 18 17 17 17 17 17 16 17 18 19 20
42 39 50 49 49 38 35 35 33 35 38 44 44 40 33 27 24 22 17 8 12 16 20 17 19 18 13 12 11 10 11 13 14 13 14 16 17 17 17 19 19 19 18 19 20 20 22 24 24
45 46 46 53 46 38 38 36 38 37 41 49 47 42 38 32 31 28 19 10 15 20 21 22 18 17 15 14 14 12 11 12 12 12 15 16 17 18 18 18 19 19 19 18 19 22 21 23 24
43 47 48 42 44 39 41 40 41 40 44 49 50 41 40 35 35 35 18 16 21 22 23 24 24 21 17 16 15 13 10 12 13 14 15 17 18 20 20 20 20 21 19 19 20 21 22 24 25
45 43 49 46 47 43 42 43 43 44 45 49 48 50 49 43 40 32 24 24 19 22 24 26 27 22 23 20 15 12 10 10 12 16 17 18 19 21 21 22 22 23 23 23 23 24 25 26 26
47 48 49 45 45 53 50 47 43 46 47 49 51 51 46 47 43 25 28 30 28 24 22 22 25 20 22 20 16 13 10 8 10 13 17 18 19 20 21 21 22 23 24 26 27 27 27 29 29
54 51 50 44 44 50 53 46 46 49 50 50 46 48 46 45 44 36 30 33 31 27 23 22 25 23 21 18 15 13 11 8 9 11 15 17 17 19 19 20 21 22 23 25 27 29 29 30 31
55 56 48 42 32 44 51 50 47 51 50 49 43 44 47 47 51 46 33 30 32 27 26 25 25 24 23 22 16 13 13 10 8 9 13 15 17 18 19 20 21 21 23 24 26 27 28 30 33
50 54 47 41 39 42 51 58 48 50 51 47 45 45 45 47 48 50 38 32 32 29 28 28 24 25 24 23 21 17 15 12 9 11 13 14 17 18 19 21 23 24 24 25 27 29 29 31 33
49 48 47 51 54 46 50 64 45 50 50 48 45 48 46 46 49 48 49 34 29 34 27 29 27 26 24 23 23 23 18 15 11 11 11 15 16 18 19 20 23 24 25 26 29 32 32 34 35
51 52 48 50 50 49 45 54 58 53 48 52 49 44 47 45 47 47 46 48 43 35 30 28 31 29 27 23 30 27 24 17 16 17 15 16 19 19 22 22 23 26 28 28 31 32 34 35 38
50 49 48 47 49 47 47 53 56 63 50 53 53 47 42 47 48 48 47 46 45 37 33 29 28 29 27 29 26 30 23 20 21 19 16 16 17 21 22 24 24 26 29 29 31 33 34 37 40
45 49 49 47 44 42 47 46 48 57 52 50 55 51 48 49 49 53 51 47 45 40 34 32 34 31 30 26 29 28 28 20 22 20 20 17 15 21 21 24 26 29 31 30 33 35 37 40 41
39 43 45 45 46 47 48 48 44 40 52 62 59 59 53 53 50 50 55 50 46 47 45 43 39 38 36 35 30 26 31 27 27 26 26 25 17 20 21 23 27 31 33 32 32 36 39 42 43
32 35 37 39 43 45 46 41 42 47 51 50 64 72 61 50 53 51 53 54 51 49 43 44 42 42 45 41 38 39 35 32 32 31 34 37 34 21 23 23 27 32 35 35 35 36 38 42 44
32 34 35 35 39 40 42 44 46 48 49 49 53 68 73 62 54 55 56 56 55 54 56 52 49 46 44 44 43 39 37 35 34 36 42 39 30 29 24 26 27 33 35 37 39 38 38 41 45
35 36 37 37 39 39 40 43 43 44 47 47 49 55 72 71 66 60 55 58 59 60 60 57 58 55 52 49 50 48 43 42 40 35 48 45 31 27 29 26 31 33 37 38 42 42 40 41 44
36 38 39 40 41 42 42 42 44 44 46 47 48 48 53 66 70 75 58 58 59 61 62 61 61 58 60 56 56 52 48 49 50 45 45 55 50 42 33 30 33 38 36 37 42 45 43 42 43
38 40 41 42 42 44 43 42 45 47 47 49 50 48 51 56 63 74 71 65 62 61 61 60 60 62 67 67 63 60 56 53 48 49 51 43 52 38 24 32 37 37 41 40 45 47 44 42 42
37 38 39 42 43 44 45 43 41 46 48 51 53 53 54 56 59 61 79 78 73 72 67 63 60 64 56 57 67 62 62 60 50 46 47 39 36 37 37 38 37 42 46 51 51 47 44 41 41
35 38 39 41 43 43 45 48 45 45 47 49 52 54 56 58 59 60 61 68 78 85 78 81 72 69 68 73 69 62 56 56 53 53 47 41 44 45 42 41 42 45 49 54 53 46 41 42 39
33 36 36 38 39 40 40 44 43 46 46 47 52 57 59 59 60 63 65 66 66 66 67 68 67 65 76 75 70 62 60 58 56 55 53 50 47 52 45 47 46 45 51 52 47 43 39 41 37
31 31 34 37 38 40 40 43 43 44 46 50 53 54 58 62 64 65 65 67 67 68 67 69 69 67 63 71 71 69 62 60 60 64 59 45 48 50 47 50 44 41 47 48 48 40 38 39 35
29 29 32 34 34 34 38 43 43 49 51 53 56 57 59 60 63 67 69 69 69 69 69 71 70 68 68 65 72 69 66 63 55 61 55 53 48 52 55 40 44 45 47 50 45 40 36 37 34
25 22 24 30 30 31 32 39 43 48 53 54 58 60 61 61 64 66 68 70 71 71 70 71 71 71 70 66 63 67 68 64 59 58 57 52 53 57 46 45 45 45 47 49 42 40 35 34 33
25 20 21 26 29 33 32 33 41 37 47 49 48 57 60 63 67 68 70 70 71 72 72 71 71 70 69 67 64 63 63 68 61 48 53 48 51 50 46 45 44 42 43 38 39 35 34 31 33
24 20 22 26 31 30 26 26 26 23 28 31 38 30 33 42 53 65 68 73 74 72 72 70 72 69 68 67 67 64 64 65 57 48 46 54 54 44 42 44 40 40 37 35 31 35 30 30 32
24 21 19 21 26 29 28 20 18 18 22 25 26 31 28 25 28 38 49 64 70 75 75 70 69 70 68 65 63 62 61 57 56 51 48 50 48 40 43 42 36 36 33 32 31 33 27 30 30
26 22 21 25 27 31 31 18 12 19 22 25 26 27 30 30 28 29 31 36 47 59 76 75 70 66 68 66 63 60 58 57 55 49 41 43 44 45 45 39 35 33 33 32 33 29 28 31 30

GFSSGP_500_spd_072.txt.gz
Wind_Speed
41 39 40 42 40 38 36 38 36 36 36 38 33 31 29 25 19 16 15 14 11 12 11 6 3 4 5 2 4 6 8 8 10 11 14 15 17 18 17 17 17 17 14 14 15 16 16 17 17
42 43 41 44 46 41 37 40 37 42 38 36 34 35 30 29 26 20 18 18 17 16 15 9 6 7 6 4 2 3 7 7 9 9 10 13 13 15 16 16 16 16 16 17 17 16 17 17 17
41 41 44 49 47 49 39 47 43 44 41 39 39 36 37 33 29 24 23 21 20 20 13 10 7 9 9 6 5 4 6 6 6 6 8 9 10 12 13 14 15 16 16 16 17 17 17 16 18
45 45 43 45 47 46 51 50 47 45 44 42 39 40 41 37 32 27 27 27 25 24 17 14 11 12 10 10 9 6 5 5 5 5 5 7 9 10 10 12 13 15 15 15 16 17 18 19 21
44 47 49 46 45 52 50 54 50 47 45 42 41 44 45 41 36 30 30 30 28 25 22 20 18 15 12 13 12 9 7 5 5 4 3 5 6 7 9 11 13 16 17 17 17 18 20 21 22
45 46 49 50 46 51 51 55 54 47 45 44 43 43 45 45 41 37 34 33 34 30 24 22 23 18 17 17 17 15 11 9 7 5 4 4 5 7 9 11 13 14 16 19 18 17 20 23 24
45 49 49 50 51 51 52 53 62 49 43 45 45 43 44 45 45 42 39 37 37 35 28 23 21 20 18 18 17 17 14 11 10 7 7 4 5 6 9 12 14 15 16 17 19 20 23 24 27
43 47 51 54 54 51 51 55 55 66 47 46 46 47 46 43 45 43 41 39 40 39 34 29 24 22 21 21 20 17 16 13 10 7 7 8 7 7 9 12 14 16 16 16 18 21 23 26 29
41 46 47 52 56 52 50 53 53 56 62 43 45 46 46 45 46 45 42 41 40 44 40 36 29 26 25 25 24 21 20 16 13 9 9 9 9 10 10 10 12 14 14 16 18 20 23 26 29
41 45 46 46 55 55 54 50 55 52 67 51 45 46 47 45 47 46 45 45 42 41 44 43 30 29 29 28 27 24 22 20 17 13 12 12 10 10 12 12 14 16 18 15 16 18 22 25 28
39 43 45 45 52 55 55 54 54 56 59 63 53 47 47 47 48 49 48 46 46 45 48 45 39 31 32 31 29 29 23 21 20 17 15 15 12 13 13 13 15 16 20 18 16 17 20 23 27
39 40 43 46 47 47 58 55 57 57 57 61 57 54 50 49 50 51 51 49 48 48 50 47 43 34 34 32 31 30 27 24 22 21 20 18 17 16 16 16 18 19 18 22 20 18 20 22 25
38 40 41 43 46 45 55 58 55 58 53 68 63 57 55 52 53 55 55 53 53 54 53 52 47 37 34 35 32 32 30 28 28 28 25 24 21 20 18 18 20 22 21 19 22 20 22 23 23
39 39 42 45 46 46 50 56 55 54 55 59 64 65 61 58 55 59 61 58 57 57 54 54 48 45 45 41 44 37 34 32 33 33 30 30 26 25 20 21 23 27 28 23 23 24 22 26 24
34 37 41 44 44 47 51 54 57 57 58 57 51 70 67 62 61 63 64 64 60 59 60 54 52 50 50 46 52 41 37 35 42 36 34 38 32 31 24 26 28 32 33 34 28 29 29 22 23
30 32 34 37 41 40 48 47 55 57 54 52 54 64 73 68 68 66 68 68 66 63 64 63 60 59 58 50 42 46 47 43 36 39 42 46 34 29 30 35 34 36 38 41 38 36 29 27 23
32 30 35 36 32 35 39 43 46 52 52 54 51 49 70 72 70 70 66 76 75 72 66 63 65 70 65 60 48 59 47 48 42 48 44 36 27 24 29 32 38 45 42 46 44 35 23 21 26
35 31 36 33 38 33 34 37 40 43 48 50 51 51 55 79 74 72 73 72 68 79 74 72 70 66 62 63 62 62 55 43 41 34 31 32 33 30 32 39 41 40 40 53 50 47 35 29 29
34 33 34 36 37 36 35 36 35 36 40 41 42 44 45 71 74 73 72 74 72 68 69 80 72 75 68 62 63 64 66 55 45 39 33 30 33 38 43 47 37 39 46 51 50 48 46 31 31
31 32 34 37 37 39 38 38 37 36 38 39 38 39 42 51 73 75 72 72 73 76 77 65 62 69 65 61 56 64 63 47 46 38 37 34 38 42 45 42 43 42 43 49 37 42 43 36 32
27 31 33 36 38 36 40 39 39 40 39 41 39 40 41 43 45 70 74 76 73 72 73 76 78 73 69 69 69 63 50 58 50 38 37 35 39 42 47 44 45 46 47 45 30 41 43 44 36
28 32 32 34 35 35 39 39 40 40 40 43 42 42 44 45 45 45 46 77 72 77 72 72 70 74 74 74 74 68 59 49 55 39 46 44 47 43 48 48 48 44 49 53 47 45 47 42 38
31 32 33 33 33 34 33 38 35 38 39 40 43 45 46 47 47 48 49 50 54 66 75 83 74 75 70 74 75 65 59 54 50 50 55 54 53 51 55 54 53 50 52 49 50 44 44 39 41
34 35 35 35 34 35 30 31 27 34 32 36 39 42 44 46 47 49 51 53 55 56 56 67 81 78 77 73 72 71 68 61 60 60 61 60 59 54 58 59 54 51 48 49 53 49 42 43 43
35 36 32 26 24 23 35 32 29 35 31 33 36 40 41 41 43 47 50 51 54 56 59 60 60 64 75 78 77 78 75 75 74 69 68 67 63 62 60 57 53 48 52 50 49 41 42 42 43
30 34 31 29 23 21 35 33 28 31 31 34 38 40 41 42 44 45 47 50 52 55 58 60 62 64 66 66 67 75 72 68 75 78 76 73 66 65 61 58 58 58 53 52 52 46 50 40 41
30 39 35 39 38 39 37 32 31 30 34 37 37 39 42 44 45 46 49 51 53 54 55 57 59 62 65 67 68 69 70 69 73 80 80 75 68 66 60 57 58 54 50 49 50 48 45 39 37
33 33 37 30 38 31 26 23 21 29 29 34 37 37 38 39 41 43 45 50 54 56 57 58 60 60 61 65 67 67 67 66 63 61 75 75 70 62 59 57 57 52 51 50 50 49 41 37 36
30 33 38 36 32 29 26 19 28 22 22 27 32 34 34 33 32 37 42 48 52 57 60 62 64 65 65 63 63 66 65 64 64 62 61 60 57 55 54 54 52 48 50 50 48 46 38 36 33
31 32 32 35 30 32 35 32 30 20 20 22 28 30 29 29 30 32 34 37 42 52 58 66 68 69 70 69 67 64 64 64 63 61 58 56 53 51 51 49 46 45 46 45 42 44 37 35 32

GFSSGP_500_spd_075.txt.gz
Wind_Speed
41 40 41 38 35 33 31 27 26 39 38 38 44 31 26 24 23 25 28 22 18 16 14 16 12 11 9 7 6 3 2 4 6 8 10 11 12 13 14 15 15 15 15 15 15 14 12 11 12
46 41 39 43 41 35 27 23 41 35 36 42 37 33 30 29 36 32 28 23 21 18 18 18 15 13 10 9 8 6 2 1 4 6 6 7 9 10 11 12 15 16 15 15 15 14 14 15 15
44 38 42 43 44 45 22 30 38 38 50 39 39 41 42 42 35 30 24 23 24 21 21 19 17 15 12 8 9 8 7 3 4 3 3 4 6 8 9 11 13 15 15 15 14 15 17 17 18
47 43 40 43 45 45 51 30 47 43 48 46 43 37 42 45 36 32 26 26 24 25 24 22 20 20 15 12 11 10 10 7 4 4 2 3 4 4 6 9 11 13 13 13 14 15 16 19 21
44 46 48 45 45 44 53 58 58 50 46 47 46 42 44 44 40 34 30 28 27 28 26 26 24 22 19 17 15 13 11 10 7 6 3 4 2 3 4 5 7 9 11 11 12 13 15 17 20
43 44 45 48 49 47 51 52 49 59 45 41 48 44 45 50 42 36 33 32 32 33 31 30 27 23 20 21 18 18 17 15 12 9 7 3 2 2 3 4 6 8 11 10 11 12 14 15 19
42 45 44 43 46 46 55 53 47 47 50 32 32 52 43 56 41 42 39 34 34 35 34 34 29 26 25 22 19 20 18 18 15 12 10 7 5 3 4 5 5 7 10 12 11 12 15 16 18
37 39 41 43 47 49 42 58 55 51 55 29 50 42 43 60 39 46 46 41 39 39 39 38 34 30 24 24 22 20 19 18 18 16 12 11 9 6 6 7 9 9 11 13 13 13 14 17 18
38 41 40 40 41 42 46 47 57 54 57 51 46 47 56 44 41 47 51 45 44 42 44 43 38 35 30 25 26 24 22 20 20 18 16 14 12 10 9 10 12 12 13 15 14 14 17 20 23
42 43 40 38 38 38 34 35 54 55 55 58 62 51 48 47 46 46 50 51 50 44 45 44 43 41 36 31 29 29 25 23 22 21 20 19 17 14 13 12 15 15 15 18 17 17 19 23 25
41 41 39 40 38 40 40 39 43 51 58 56 61 68 71 49 47 47 50 56 54 49 49 47 46 46 43 36 32 31 29 25 23 23 22 22 20 18 16 16 17 18 18 19 20 19 19 23 29
40 39 39 40 42 44 45 49 49 47 45 59 61 59 66 56 50 51 54 58 56 54 51 52 48 47 46 43 37 35 32 28 26 26 26 25 24 23 20 21 20 21 21 21 22 22 23 27 27
38 38 38 40 43 45 48 49 46 51 58 61 62 55 56 54 53 54 57 59 59 58 57 56 50 44 43 43 39 39 36 37 33 31 31 29 28 27 26 24 24 22 24 23 25 26 28 30 26
37 40 39 40 42 39 47 48 46 48 53 61 65 57 52 56 55 58 59 64 63 63 60 60 60 49 47 46 43 41 45 37 38 37 34 33 31 31 29 27 27 24 24 26 26 30 32 33 28
37 39 38 40 42 42 45 47 47 43 52 58 70 61 57 53 59 62 64 66 67 66 65 64 63 59 57 54 49 48 45 51 43 39 38 37 34 34 36 33 32 29 27 28 30 34 40 43 43
36 37 38 36 39 42 46 43 43 45 48 55 68 61 59 58 53 66 67 69 71 71 70 70 72 69 64 60 56 54 51 49 44 46 44 42 43 42 40 40 34 28 27 28 34 38 40 44 51
36 36 36 32 42 42 40 42 39 40 48 52 61 58 60 52 53 62 71 73 75 75 75 74 74 75 74 67 63 61 59 51 51 47 46 48 44 47 44 42 29 29 26 29 33 33 38 44 44
18 23 29 35 29 43 36 38 35 36 50 49 51 54 56 55 54 53 72 73 78 80 77 78 77 72 73 71 69 62 65 58 56 50 52 47 47 45 46 25 32 29 31 33 30 36 38 45 46
35 36 39 35 37 43 43 38 37 36 45 47 45 47 51 55 58 58 54 77 81 84 82 82 83 80 75 75 70 72 72 65 62 62 49 52 49 42 36 29 25 29 28 33 35 38 41 40 40
28 32 36 38 39 45 45 43 40 40 44 42 41 40 44 49 53 54 59 64 83 84 91 88 83 86 76 73 72 71 69 63 64 62 55 64 49 40 33 28 27 27 28 34 38 40 45 42 44
29 31 33 36 37 44 43 40 41 39 42 47 43 40 41 43 49 54 51 57 78 86 87 83 80 84 78 59 72 75 70 61 63 50 57 59 51 40 37 31 34 34 33 34 41 44 44 49 51
32 31 35 39 38 39 31 41 37 37 44 46 44 44 42 44 42 46 49 49 60 87 88 86 78 83 89 69 64 53 70 74 78 60 62 69 53 50 50 41 33 35 33 35 41 44 47 56 48
35 34 38 36 37 38 36 38 35 29 34 42 41 42 44 45 46 44 44 44 41 63 82 88 88 71 63 68 83 72 74 61 63 57 53 62 60 51 55 46 35 34 35 38 42 52 57 50 45
34 36 37 37 35 35 33 31 31 19 34 37 38 40 41 43 44 45 44 44 45 44 47 93 74 87 83 74 67 59 57 63 70 73 65 68 65 60 54 33 42 31 38 41 50 57 57 52 36
35 32 29 27 27 28 26 30 23 18 33 27 35 31 36 39 40 42 44 46 47 47 48 47 55 86 76 81 78 77 72 69 68 71 71 69 58 61 58 39 39 39 37 45 53 61 49 48 50
25 29 28 29 27 27 21 26 25 28 29 43 38 35 35 35 36 38 40 42 44 47 49 52 53 54 55 62 62 83 79 78 71 69 68 62 64 63 57 56 55 54 53 52 55 60 54 56 43
30 32 32 40 40 34 36 36 33 43 38 39 34 36 37 37 38 39 38 39 41 42 43 47 52 55 58 61 61 57 69 80 80 76 74 62 61 60 57 58 55 55 54 55 60 61 47 44 41
37 30 33 33 34 33 33 30 31 33 40 36 40 38 39 41 39 40 41 42 43 44 46 47 47 50 53 57 60 62 64 61 60 63 72 81 70 67 64 66 62 59 61 58 61 57 49 46 46
30 30 31 30 37 37 30 24 29 33 33 18 24 36 38 39 41 39 38 39 42 44 46 49 51 52 54 55 57 60 62 63 64 64 61 58 68 67 66 66 65 64 65 61 53 50 53 49 46
35 35 31 34 34 32 33 36 39 24 33 30 30 29 28 37 36 36 36 34 35 38 42 47 51 55 57 58 59 59 60 63 64 63 62 61 60 59 60 63 69 70 70 63 54 53 49 45 43

GFSSGP_500_spd_078.txt.gz
Wind_Speed
36 37 37 35 33 32 27 24 19 21 34 37 38 34 28 24 25 33 36 27 18 20 17 16 16 15 12 10 6 4 4 2 1 2 3 3 4 5 8 11 12 11 11 12 12 12 12 12 13
39 38 38 39 39 35 26 18 13 29 41 46 53 41 29 26 35 41 37 30 19 22 21 20 19 18 15 13 9 8 8 5 3 2 1 1 2 3 6 8 11 12 12 12 12 13 13 13 15
40 43 42 40 44 40 27 25 29 25 43 50 47 47 46 43 45 39 23 23 21 24 23 22 21 20 18 15 13 11 12 11 7 3 2 1 0 2 5 7 10 12 12 13 13 13 13 15 17
44 44 46 42 43 40 35 28 33 27 31 43 49 44 44 50 44 34 28 26 26 26 25 24 23 22 20 18 15 14 13 14 12 6 4 3 3 2 2 5 7 10 13 11 11 13 14 15 17
40 42 50 50 46 40 43 45 33 42 19 19 39 42 40 51 48 38 32 31 30 28 27 26 25 23 23 22 19 15 15 15 12 11 7 6 5 4 3 2 4 8 12 12 11 12 15 16 16
39 41 45 50 45 44 39 48 54 56 54 35 12 33 33 51 50 41 36 37 35 33 30 29 28 26 25 24 24 22 19 19 16 14 12 10 8 7 5 4 4 6 9 12 13 12 13 15 17
33 40 44 44 44 41 23 40 54 49 53 43 44 33 31 52 56 40 42 41 39 37 34 35 32 30 27 27 26 27 24 22 21 18 16 13 11 10 9 6 5 7 8 12 15 13 14 16 20
32 33 36 43 42 42 35 37 47 50 48 51 48 46 38 54 58 43 48 45 43 43 38 38 36 33 32 29 27 27 25 22 20 20 18 16 15 14 12 10 7 7 9 12 15 15 16 18 23
36 36 34 33 35 39 40 35 41 54 58 43 55 46 51 57 61 48 46 49 47 46 42 41 39 37 36 34 31 28 27 24 22 21 20 19 18 17 16 14 12 10 11 12 13 14 15 18 22
40 40 37 34 36 37 35 31 27 44 54 57 48 45 51 63 65 49 48 53 52 49 47 44 44 42 40 39 36 32 28 27 24 22 23 23 22 21 19 17 16 14 14 14 13 14 16 20 19
40 40 40 39 38 39 39 38 29 30 49 57 56 44 49 56 60 57 52 54 60 57 52 49 49 45 46 43 41 38 33 31 28 25 24 25 25 24 22 21 20 16 16 17 15 16 18 21 22
39 40 41 41 42 42 43 42 38 39 35 45 53 54 43 51 52 50 62 58 60 62 57 55 52 51 50 48 46 45 41 35 31 28 27 28 28 27 26 25 22 20 19 19 18 18 22 24 28
38 39 39 40 42 46 47 48 50 48 48 44 50 62 57 51 52 53 54 60 64 62 61 58 55 57 52 49 49 50 46 39 36 33 32 31 31 30 29 26 25 24 22 23 22 21 22 25 27
37 39 40 41 42 44 46 50 47 48 47 49 51 63 67 51 48 52 53 62 66 61 63 63 63 57 52 56 51 49 49 47 44 40 37 35 35 33 31 28 29 29 26 24 22 24 27 31 32
39 41 40 40 40 42 43 49 44 45 45 50 46 51 59 65 47 51 51 59 68 62 63 66 64 59 64 53 54 52 48 45 45 45 45 42 39 37 35 34 34 35 29 26 21 22 29 28 29
37 39 43 39 40 40 42 47 42 45 48 48 45 45 49 59 49 52 60 52 68 65 69 67 69 67 66 64 64 54 54 55 48 47 50 47 42 41 40 40 38 37 33 24 19 21 26 24 29
35 37 36 37 34 33 36 47 42 41 43 46 47 47 49 60 49 50 60 61 48 67 69 72 70 71 69 67 70 64 67 60 56 56 57 50 47 47 45 44 42 42 39 25 19 24 23 24 26
28 16 23 24 25 25 43 46 43 39 38 40 47 48 50 50 47 51 57 60 63 54 70 73 77 76 76 74 77 76 66 66 61 56 56 53 56 47 47 46 45 44 44 28 21 21 22 26 28
28 33 40 38 28 34 38 42 48 42 39 40 47 46 50 45 44 43 57 64 65 55 67 74 77 81 81 83 81 73 74 63 69 58 61 59 56 53 52 51 42 45 45 25 19 21 24 24 32
29 30 32 34 42 44 46 49 49 51 43 43 44 46 45 41 39 42 53 59 64 53 47 79 83 80 84 85 84 81 71 80 66 68 71 65 61 59 50 49 48 48 41 28 22 20 25 32 24
29 31 32 35 36 37 40 47 49 44 40 41 43 46 47 49 41 40 46 56 58 61 59 51 82 84 87 90 88 84 83 83 80 79 71 71 58 61 57 53 45 45 47 30 27 22 29 33 35
33 30 30 32 31 38 31 44 39 35 30 28 44 49 48 47 45 46 45 55 55 55 57 58 59 88 85 88 91 86 85 83 73 78 76 75 69 68 61 57 46 53 47 34 29 34 38 33 39
33 32 36 39 39 38 39 37 41 34 36 36 32 37 44 41 46 48 47 48 53 51 52 52 51 68 95 75 87 88 85 91 77 88 81 76 68 72 63 62 52 57 50 41 33 45 42 33 29
33 39 41 39 33 38 38 32 36 29 28 33 30 42 47 44 44 47 48 48 49 47 48 46 50 50 68 78 88 73 71 79 69 60 59 69 67 68 65 69 57 47 59 57 46 46 30 34 22
35 34 35 31 31 35 28 27 42 25 31 36 38 45 45 38 41 44 45 44 47 51 50 49 46 46 41 80 93 86 71 70 77 69 72 66 61 58 57 51 53 48 46 52 48 58 41 38 30
31 32 29 40 41 35 33 30 36 24 24 28 36 46 49 42 34 32 38 43 43 45 47 47 48 43 44 42 74 85 87 76 75 73 63 67 63 60 69 64 56 54 45 55 63 58 24 35 34
42 42 44 40 41 43 41 45 39 41 39 32 37 34 38 41 43 40 42 40 37 39 41 42 45 46 48 48 46 50 70 65 69 75 68 63 61 63 50 49 49 52 54 57 55 58 54 49 39
43 44 43 44 50 47 40 37 35 31 33 29 35 39 41 38 39 43 41 41 40 40 40 40 42 44 46 49 50 52 51 48 50 50 68 74 73 65 60 55 58 57 62 55 60 53 46 45 41
37 43 42 43 42 41 48 41 38 34 37 31 39 40 40 41 43 38 41 44 44 43 42 42 42 42 43 45 47 49 51 53 53 48 47 53 55 66 67 63 66 66 65 53 56 52 50 48 42
40 43 32 38 39 41 40 38 30 30 39 33 37 26 20 28 34 35 41 42 46 44 43 42 42 43 43 46 47 48 48 50 53 55 57 58 55 52 60 66 67 71 69 57 54 54 51 50 47

GFSSGP_500_spd_081.txt.gz
Wind_Speed
34 35 34 38 35 33 26 17 16 18 15 21 27 32 32 32 32 31 22 20 20 17 16 17 14 13 14 12 8 6 5 3 2 2 3 3 1 1 2 6 7 9 11 12 12 12 13 14 15
36 39 36 38 39 36 27 22 20 27 25 28 29 34 41 40 38 37 31 19 17 18 20 19 17 16 17 15 11 9 8 7 7 5 5 5 3 2 2 4 7 11 11 11 11 11 12 13 14
40 43 37 39 40 38 26 31 25 29 31 32 35 38 46 44 47 43 30 25 22 24 24 24 23 21 19 18 15 13 12 12 11 9 6 5 4 3 2 3 6 10 12 11 10 12 14 15 16
44 45 43 42 39 34 32 39 37 30 34 38 37 43 47 47 52 46 41 28 25 25 24 26 25 23 20 20 19 17 15 13 13 13 10 7 6 5 4 2 3 8 11 12 12 12 14 17 18
41 40 50 46 43 41 39 41 45 42 35 35 45 45 55 55 55 58 54 41 31 26 28 28 28 26 23 20 20 19 19 17 14 14 12 10 10 8 6 5 3 8 9 13 15 13 14 15 19
40 38 41 48 46 45 42 41 47 51 43 29 44 49 55 59 59 55 48 45 39 34 32 30 30 29 26 24 21 20 20 21 19 18 17 14 13 11 10 8 5 7 8 12 14 13 13 14 20
35 39 40 41 42 45 47 42 38 49 46 37 33 41 56 52 54 56 49 48 47 36 35 35 33 32 30 28 26 24 23 23 24 21 20 19 16 14 13 12 9 5 6 8 12 12 13 16 20
30 32 33 36 40 42 39 43 39 36 46 47 36 35 54 59 55 56 51 46 51 42 39 38 37 36 34 32 31 28 26 24 22 22 21 19 17 15 15 14 14 10 7 6 7 11 12 16 21
34 34 31 30 30 32 36 42 41 40 43 40 48 47 41 53 54 54 59 50 50 50 44 42 41 39 38 36 34 32 30 26 24 22 22 21 20 17 17 17 15 14 12 9 7 8 15 16 21
36 35 33 32 32 32 31 39 42 36 44 44 44 45 34 49 65 63 47 41 50 54 49 46 46 43 42 40 37 35 32 29 27 24 23 23 22 21 19 20 18 17 16 13 10 6 10 18 21
37 35 36 34 35 36 35 36 42 38 46 43 41 39 31 36 52 52 51 45 41 54 53 52 51 49 46 44 41 39 36 33 31 30 28 25 26 24 22 23 22 20 17 17 14 10 10 14 19
37 37 39 38 38 37 39 41 43 46 48 45 44 48 51 41 52 54 45 42 41 45 62 57 56 56 52 50 46 43 40 38 36 34 32 29 27 27 26 26 24 22 18 20 18 15 14 15 21
36 37 38 39 39 41 42 43 45 45 46 45 42 54 57 40 45 51 38 37 43 48 55 63 58 57 57 53 53 50 47 44 41 40 37 35 31 30 29 29 27 25 23 22 21 19 18 18 18
34 37 38 39 41 41 44 46 46 41 42 47 51 53 55 57 48 51 52 38 42 51 59 64 59 60 59 58 55 55 54 51 46 46 42 40 37 35 33 32 30 29 27 25 23 20 18 17 12
34 36 36 36 37 39 41 43 44 41 43 43 44 52 59 53 56 54 46 49 40 50 58 65 67 59 64 63 62 65 61 61 49 46 47 44 41 40 37 36 33 33 31 29 26 24 20 19 13
31 33 35 31 35 37 39 45 40 41 47 46 46 48 51 49 50 54 53 48 47 49 49 64 67 63 61 67 64 63 58 63 51 47 48 45 42 42 41 38 39 38 36 32 30 25 18 14 15
27 27 30 30 31 33 32 45 41 42 46 47 48 47 49 48 50 53 56 47 40 41 46 59 73 70 65 67 71 66 67 61 54 53 52 50 47 44 46 45 45 42 40 37 37 33 24 18 19
25 28 29 32 28 22 25 36 38 44 46 43 45 46 48 51 52 53 52 47 43 41 45 48 67 74 64 69 67 70 66 67 64 66 60 60 54 52 52 53 51 46 45 42 40 38 36 22 19
31 31 33 33 33 34 38 39 41 46 46 41 42 43 47 48 48 49 54 50 42 45 45 54 49 75 73 64 75 69 80 73 73 67 60 70 57 61 56 59 55 50 51 46 44 36 29 27 23
29 32 32 30 30 37 41 45 46 45 46 48 45 42 44 46 47 49 50 51 45 45 42 44 55 53 77 67 71 76 76 80 78 74 70 69 64 66 61 63 59 56 58 45 44 38 35 29 27
29 30 34 34 34 37 41 49 51 51 54 53 46 42 42 45 47 53 52 44 42 43 44 41 48 55 47 79 77 72 72 79 66 76 75 82 83 80 69 68 59 57 60 51 42 40 43 35 30
34 30 36 38 42 45 41 50 46 45 47 45 42 40 41 39 44 51 51 47 43 45 46 43 43 56 56 56 70 91 73 81 81 77 73 81 72 70 65 69 58 62 61 57 50 40 43 42 32
37 31 36 40 44 46 43 46 43 39 39 35 25 34 38 36 38 43 50 53 49 48 43 40 39 48 59 56 61 65 97 88 94 80 87 74 82 85 67 69 64 72 65 60 57 47 43 46 39
30 38 41 42 45 52 43 36 45 37 29 26 34 32 30 35 39 44 44 43 46 47 46 45 43 43 51 58 60 63 68 72 96 87 82 87 80 76 75 81 70 75 76 62 54 58 52 45 41
35 34 41 49 49 53 40 34 45 28 31 37 30 35 31 43 47 46 41 40 42 45 47 46 48 47 47 52 54 60 60 66 66 92 87 88 92 74 80 80 74 75 68 67 61 62 51 44 49
39 43 38 50 52 51 49 51 46 30 34 25 29 26 30 39 45 46 46 39 41 40 46 47 45 46 48 49 50 55 59 55 68 63 85 79 75 91 89 82 70 68 77 62 62 64 41 38 41
43 42 46 49 52 51 53 43 53 25 34 35 45 42 31 39 44 45 44 39 41 41 42 47 46 47 47 50 50 50 51 51 50 67 77 82 67 55 69 86 78 68 79 53 50 61 54 56 34
48 50 50 52 56 61 59 60 52 45 39 44 36 34 34 37 39 44 36 36 37 37 40 40 39 40 43 45 48 49 50 50 48 43 40 47 72 69 68 64 70 53 46 50 39 48 45 48 30
36 43 48 52 49 52 53 42 44 37 38 34 38 39 38 41 36 42 41 41 43 41 40 39 41 40 39 40 42 44 46 48 48 47 44 39 37 41 57 56 60 62 60 53 53 52 44 39 33
43 49 46 48 52 57 43 37 24 39 36 33 35 43 45 41 49 43 41 32 34 35 37 39 36 40 40 40 40 42 42 43 45 47 48 46 46 42 38 48 52 56 58 57 59 50 47 44 43

GFSSGP_500_spd_084.txt.gz
Wind_Speed
38 36 34 35 33 29 20 20 32 31 27 23 19 16 28 29 30 25 21 21 21 14 15 13 13 10 10 11 10 6 5 4 4 4 5 7 8 6 6 6 8 9 9 9 11 11 11 12 13
40 40 37 37 37 33 22 28 33 34 31 21 27 22 27 31 30 30 27 26 21 15 15 16 17 14 13 13 13 11 7 5 5 6 7 8 8 8 6 5 7 9 10 9 9 9 10 12 15
43 44 43 41 38 35 26 34 35 37 35 30 27 31 31 33 36 40 37 33 28 27 24 20 20 20 16 16 15 14 13 12 9 8 8 9 9 8 6 4 4 8 8 8 6 6 8 12 15
47 44 48 45 40 32 32 37 38 41 41 38 36 37 36 36 37 46 43 36 35 34 31 24 23 22 21 17 16 16 15 15 13 12 11 10 9 9 8 6 3 7 7 9 8 8 10 13 14
41 47 49 48 45 35 34 40 46 46 46 42 46 44 44 43 44 45 45 44 37 35 31 30 27 25 24 21 19 18 16 15 14 14 15 15 13 12 10 9 6 6 5 8 9 9 11 13 16
42 42 46 48 45 41 40 45 53 49 45 50 49 51 52 53 50 51 52 48 44 38 40 36 33 29 27 25 22 21 19 16 16 18 17 17 16 16 15 12 9 7 6 6 8 10 11 13 15
38 41 42 43 41 42 42 47 46 51 47 40 47 54 54 53 58 58 58 51 49 47 46 46 37 32 31 29 28 25 23 20 19 19 20 18 18 17 16 15 13 11 9 7 6 8 9 12 14
31 37 40 43 40 37 33 43 47 44 50 52 46 57 60 56 57 60 57 58 53 48 43 46 43 37 34 33 32 30 27 23 22 20 19 19 17 17 15 14 14 14 13 9 7 6 9 9 13
34 33 28 26 31 29 34 41 45 48 45 47 52 45 54 60 58 58 58 55 49 44 45 47 47 44 39 37 37 34 32 28 27 24 19 20 19 17 16 15 16 15 15 13 11 7 7 10 13
34 32 30 29 31 30 28 36 40 46 48 45 38 42 56 57 55 55 56 54 50 39 37 43 51 48 45 42 41 39 36 33 30 29 25 21 20 20 18 18 18 17 17 15 13 12 11 10 13
36 35 34 34 35 36 32 36 40 44 48 49 46 37 46 50 55 58 60 63 56 43 40 40 48 56 50 47 45 44 40 38 35 32 30 28 24 21 22 22 21 20 19 16 16 15 14 10 12
39 40 40 36 36 37 38 35 41 44 45 47 50 51 48 53 48 47 49 55 55 42 42 39 39 48 54 52 48 47 45 43 40 37 35 33 30 26 25 25 24 23 22 20 18 19 16 12 14
34 35 39 41 41 41 39 40 41 41 46 48 49 50 51 52 52 50 45 43 42 38 37 40 43 47 55 57 54 53 51 48 46 44 40 36 35 32 30 28 26 26 25 22 22 23 21 13 14
33 36 36 37 39 41 43 42 42 37 40 45 48 48 52 54 53 47 47 42 37 37 35 42 47 49 52 59 57 58 58 54 54 49 47 44 40 38 34 33 31 30 30 25 26 27 26 20 15
31 33 32 31 32 33 36 41 42 37 35 37 41 45 50 52 54 55 46 47 43 41 41 42 45 54 54 56 61 61 65 60 60 52 51 46 46 43 40 36 36 36 35 30 30 31 30 26 19
25 27 28 26 31 30 32 42 38 37 41 42 42 45 53 56 56 56 51 48 48 44 42 43 46 54 59 59 57 60 63 68 57 60 56 49 49 44 45 39 40 41 41 36 34 35 34 31 24
25 25 26 26 30 37 40 43 42 44 45 47 47 45 44 49 56 54 56 48 52 47 40 39 45 53 56 63 62 64 57 69 66 61 63 50 57 47 51 45 43 46 47 42 40 40 39 36 32
29 31 30 30 33 38 40 38 40 44 45 48 48 49 49 48 51 53 54 53 54 54 37 38 41 52 58 56 67 67 72 64 64 68 72 68 58 53 57 50 49 50 51 50 46 45 40 37 33
32 33 34 33 35 36 38 35 36 41 40 42 44 47 48 49 51 50 52 52 52 53 45 41 41 46 59 61 61 71 73 82 73 65 71 69 55 62 62 56 55 54 53 54 53 50 42 41 39
31 32 32 33 33 35 36 40 40 41 45 43 42 42 42 43 42 45 48 50 48 48 50 46 42 45 52 57 63 62 72 78 75 66 52 73 64 59 65 61 61 59 56 58 56 54 53 43 43
35 34 32 33 33 36 39 42 41 43 44 45 47 46 45 44 42 48 51 50 50 48 45 45 44 43 45 51 61 59 64 73 82 80 73 61 55 68 74 76 68 63 61 61 60 59 58 50 42
35 32 35 36 39 43 40 47 40 36 38 50 56 58 52 45 46 44 46 51 51 52 47 46 46 44 48 50 51 61 66 62 74 84 81 83 67 81 75 78 69 67 67 67 61 65 60 53 49
38 36 38 39 40 44 46 47 43 39 39 39 42 45 49 49 49 47 44 43 45 51 48 47 49 49 46 52 55 55 62 63 55 78 89 88 88 65 70 78 73 79 73 75 67 69 67 61 51
39 40 40 43 45 50 46 46 45 37 35 35 37 39 42 46 45 45 47 42 44 44 45 40 44 49 46 43 49 56 61 66 67 63 67 80 81 73 71 59 73 68 81 78 86 73 62 53 52
41 43 48 49 47 51 45 49 48 41 38 42 39 33 37 40 39 41 42 44 40 40 34 36 37 42 46 47 51 53 57 63 69 63 61 60 68 85 77 77 72 68 63 71 76 70 68 57 53
41 40 41 47 49 53 51 56 50 40 43 44 41 33 39 34 41 36 43 41 43 45 35 33 37 38 42 47 52 52 52 54 56 61 62 62 59 62 65 70 82 89 78 63 62 70 77 65 67
41 45 45 50 55 58 58 57 54 39 41 43 46 35 41 39 35 38 46 38 42 49 41 39 41 43 41 41 49 52 52 52 52 53 55 60 61 55 61 73 63 70 81 69 76 79 67 66 63
41 41 42 50 57 59 63 64 61 54 51 41 35 39 41 43 48 49 45 40 41 34 35 44 45 44 42 40 44 47 47 52 54 55 55 54 57 59 59 62 59 64 61 78 59 65 71 68 58
33 38 43 48 52 57 61 60 54 47 39 39 34 29 34 39 41 41 42 41 34 42 39 40 39 41 43 40 39 47 48 47 51 54 54 55 51 50 47 49 62 63 69 75 77 74 56 64 57
36 42 43 47 53 56 53 54 39 50 39 37 24 33 30 39 39 39 46 40 38 43 45 44 43 43 34 34 35 37 43 44 44 46 50 52 52 47 43 39 38 44 53 69 72 56 50 61 43

GFSSGP_500_spd_087.txt.gz
Wind_Speed
32 32 29 32 31 29 23 28 29 32 34 36 34 31 28 16 19 20 19 17 17 14 15 15 14 11 10 8 7 7 7 5 4 5 7 8 10 9 9 9 10 11 12 11 10 9 9 8 7
36 34 30 34 33 32 27 30 31 33 37 40 38 35 32 22 22 22 24 22 22 17 14 13 16 16 14 13 10 7 6 7 7 6 7 8 8 9 9 9 8 11 11 9 7 7 8 8 8
38 37 38 40 36 31 30 31 33 35 39 42 42 39 33 30 28 29 30 29 26 23 22 24 23 20 16 17 16 13 8 8 8 9 9 8 8 9 9 9 8 12 11 10 8 7 8 7 8
45 43 40 41 38 35 33 35 39 37 43 43 43 44 39 36 33 32 33 36 32 31 29 31 31 25 22 17 18 17 15 12 10 11 10 9 11 9 8 8 8 10 12 11 8 5 4 7 10
47 49 48 46 42 35 37 38 44 43 46 47 46 47 46 40 38 37 37 36 35 35 33 33 33 30 25 22 20 18 16 14 13 12 11 12 12 10 8 7 8 9 10 9 7 6 7 9 10
44 43 48 48 46 39 40 44 41 48 46 51 50 50 48 46 46 45 44 39 38 38 38 36 32 30 28 29 26 22 20 17 15 14 14 13 13 13 10 9 9 10 11 9 7 7 8 8 9
43 43 45 46 40 42 39 44 49 45 51 50 54 54 56 53 49 48 45 43 43 40 39 40 38 40 40 37 35 29 24 20 18 17 16 15 16 14 11 11 10 9 10 11 10 10 10 9 10
38 42 44 46 39 34 34 42 47 50 50 48 50 52 59 57 55 55 53 49 46 45 45 45 43 43 43 40 37 35 31 26 22 19 18 17 15 15 12 12 12 11 10 12 13 12 10 11 12
33 37 34 30 33 31 37 44 48 52 59 50 56 59 56 58 59 59 59 56 52 48 48 48 46 46 42 43 39 38 35 32 28 24 24 22 19 18 16 14 13 13 12 13 15 15 13 14 15
34 33 30 30 33 31 38 45 45 50 53 53 44 48 51 56 55 56 61 63 60 52 49 50 46 51 48 45 44 42 40 36 33 30 27 27 24 21 19 18 17 15 14 15 16 17 15 14 15
34 32 34 34 35 34 33 41 39 47 49 47 47 46 55 58 62 64 61 58 56 48 46 42 39 40 50 50 47 45 42 39 37 35 32 31 29 27 25 22 21 19 17 16 18 19 18 17 17
35 36 37 34 36 37 35 39 41 42 41 46 49 50 52 53 53 58 53 55 56 57 50 44 45 46 47 49 48 50 48 43 41 39 37 34 33 31 29 28 25 22 22 21 21 21 22 19 18
32 32 37 37 38 39 39 38 39 39 42 44 45 47 49 51 50 50 51 51 52 50 49 43 41 47 53 55 50 49 50 49 44 44 43 40 38 36 34 33 29 27 24 24 25 25 24 23 20
34 35 35 37 34 36 37 34 36 34 41 45 45 45 46 48 49 50 49 47 44 43 38 34 34 39 47 51 46 50 50 52 52 50 47 46 43 41 42 38 35 32 30 28 27 28 29 27 23
32 36 37 36 36 36 38 42 39 33 37 42 43 45 44 44 47 48 50 49 47 41 40 37 37 36 37 49 46 43 50 53 56 55 51 47 49 49 47 43 40 36 36 34 33 31 32 32 29
29 31 30 30 35 37 43 43 41 44 44 46 49 53 53 53 51 52 54 54 53 49 43 41 41 40 41 42 53 52 46 45 56 59 58 58 59 56 50 47 45 42 42 40 39 37 34 37 34
28 30 31 30 34 38 42 42 43 44 46 47 48 48 50 51 52 52 53 55 56 53 48 43 43 43 44 47 49 57 59 56 48 65 68 65 69 62 53 51 47 47 48 46 44 43 40 39 39
33 35 33 32 31 36 37 36 39 42 43 45 47 47 48 51 51 51 52 59 63 62 49 50 45 44 43 45 49 53 58 66 64 64 57 72 72 68 64 58 49 52 49 50 49 47 46 42 43
29 33 34 34 35 42 41 41 37 39 40 41 42 44 47 48 50 53 54 56 57 63 65 49 48 44 44 50 52 53 54 63 69 66 70 74 76 63 66 56 61 58 53 53 53 53 50 46 45
32 33 31 33 33 37 38 41 40 41 43 43 43 43 43 44 45 42 45 52 56 57 58 57 53 47 49 51 51 55 54 59 65 75 71 74 61 67 69 70 70 75 62 57 61 56 55 52 51
33 34 36 37 35 40 42 42 39 41 42 40 41 42 42 42 42 42 44 45 47 50 50 52 54 50 47 51 56 54 53 55 62 68 72 75 68 56 63 63 75 72 72 68 65 59 60 59 54
37 34 39 42 43 43 41 48 40 37 38 39 38 44 46 46 46 45 46 47 51 53 51 52 51 54 48 46 51 54 56 55 58 64 69 69 77 79 78 75 56 77 67 71 62 59 64 63 61
40 39 42 44 46 48 47 49 44 39 34 31 37 43 44 46 47 51 48 45 48 50 54 50 48 50 51 50 49 50 56 57 56 60 63 66 70 69 80 82 85 61 57 67 68 64 64 62 64
42 44 43 44 47 52 46 48 50 46 42 33 35 39 38 37 42 45 48 48 48 48 50 51 49 50 49 49 53 54 52 58 60 61 63 66 67 68 63 65 83 93 78 58 58 66 67 69 72
36 40 44 48 48 50 48 53 52 48 44 44 43 41 43 46 43 43 40 46 45 46 49 48 49 46 41 40 43 51 56 55 59 63 63 65 67 66 68 59 61 68 51 71 62 51 71 71 69
33 37 40 51 51 51 46 53 47 48 51 49 46 48 47 47 47 44 37 39 40 42 45 51 42 43 39 37 37 39 50 57 58 60 62 63 64 70 65 67 62 58 60 80 81 65 63 52 63
39 44 45 49 51 54 52 52 50 53 55 53 51 51 51 51 50 44 38 40 34 39 47 49 45 45 47 42 42 40 39 51 60 59 56 58 61 59 65 65 64 61 59 56 60 73 77 71 64
40 46 46 48 56 57 53 54 57 60 57 55 56 58 54 43 41 42 45 42 40 33 40 49 53 51 48 46 44 40 40 39 54 59 57 55 54 54 57 58 60 62 59 58 60 56 66 54 56
40 44 43 42 44 49 57 61 62 58 60 61 53 44 33 36 39 37 35 39 37 35 34 41 50 54 50 49 42 40 39 40 42 52 57 57 54 53 51 53 52 52 56 53 58 55 52 49 47
39 37 38 44 48 53 56 64 50 44 50 50 50 47 40 33 29 30 31 34 35 39 42 41 38 34 37 42 43 44 43 45 47 47 49 52 55 55 54 53 53 50 50 52 52 54 58 50 48

GFSSGP_500_spd_093.txt.gz
Wind_Speed
26 23 26 28 32 31 29 29 30 30 31 30 30 27 27 25 24 20 19 17 11 7 8 7 5 3 4 9 9 8 8 6 5 6 7 8 8 8 7 6 6 8 10 10 10 10 10 10 10
31 27 27 27 30 28 31 31 31 32 33 30 34 33 31 29 29 28 25 22 17 14 13 12 8 7 5 6 7 8 6 5 5 7 5 5 5 5 5 4 4 5 7 8 8 9 10 11 13
28 32 30 28 29 25 28 30 32 32 34 34 33 36 37 35 34 33 30 29 27 19 18 17 15 13 13 11 8 9 7 4 5 5 5 4 5 5 4 4 4 5 7 9 10 9 10 13 14
37 32 34 33 31 27 30 30 33 35 34 35 36 35 38 40 38 37 34 31 30 29 23 21 20 20 17 17 16 14 11 7 3 4 6 3 4 6 6 5 5 6 7 9 10 11 12 14 13
42 39 38 36 29 33 32 35 33 33 37 38 37 37 38 41 42 41 40 37 35 33 29 27 25 24 24 23 22 19 15 11 12 8 6 6 8 7 6 7 7 6 7 9 10 12 14 14 14
44 43 42 40 39 38 37 35 38 38 36 34 42 40 38 41 44 44 42 37 34 34 33 30 28 26 26 26 26 25 19 17 16 16 12 9 9 7 7 9 9 8 8 9 11 13 15 15 14
46 44 49 44 42 40 41 43 38 41 41 40 36 40 42 41 45 46 45 41 35 31 32 32 29 29 29 29 29 28 27 25 22 20 18 15 11 9 8 8 10 10 11 11 12 13 14 15 15
44 43 44 44 41 36 40 40 46 49 46 46 44 41 40 47 46 48 49 47 43 38 35 35 32 31 32 32 31 31 31 29 27 22 21 19 15 14 12 10 11 11 12 14 14 15 16 16 16
39 42 41 39 39 36 40 45 45 51 50 50 50 51 46 43 44 48 49 50 51 48 40 39 37 36 36 37 36 34 33 33 31 31 27 23 20 18 18 16 13 13 14 15 16 16 17 17 18
36 37 37 36 38 39 42 45 46 49 52 51 51 53 48 48 48 48 48 53 52 54 51 43 40 40 41 39 39 38 37 34 34 31 30 29 27 23 21 19 17 15 15 17 18 18 18 18 19
31 31 33 32 33 34 33 38 44 48 48 49 52 53 53 52 53 52 51 52 56 56 56 55 48 48 46 45 44 43 41 38 36 36 30 29 30 26 24 24 22 20 19 19 19 19 19 20 20
30 31 34 32 33 33 32 34 38 40 44 48 51 54 53 53 52 52 53 52 52 55 56 57 58 53 51 50 47 47 48 48 46 40 35 32 30 28 27 26 26 25 24 23 23 21 19 18 20
29 30 31 33 34 34 36 33 37 39 40 41 45 49 53 53 53 52 53 53 52 47 49 49 50 51 48 46 47 45 49 46 45 38 38 35 37 34 32 31 31 31 30 29 28 27 24 21 21
28 28 28 29 30 32 35 37 37 39 43 43 44 44 46 51 51 51 52 52 50 46 44 41 42 39 41 44 41 42 45 46 44 44 42 43 42 46 37 37 38 36 35 36 35 34 31 27 25
28 29 30 30 31 31 33 34 34 39 44 46 46 47 48 48 51 52 49 47 47 44 42 38 36 39 37 41 45 46 47 50 51 50 49 49 48 49 50 41 38 44 43 44 42 40 39 36 32
32 34 34 35 34 35 38 35 36 38 40 43 46 49 50 50 51 53 54 52 50 47 45 43 44 42 42 42 42 44 43 43 46 49 49 43 57 57 57 57 50 45 47 51 46 47 44 42 39
33 35 34 33 35 36 39 41 35 37 39 40 42 44 48 52 53 53 54 56 55 54 52 51 50 48 45 44 45 45 44 42 39 44 50 55 63 59 60 63 56 50 49 55 55 54 50 48 46
25 24 23 23 27 32 34 35 38 35 37 39 39 41 43 46 50 53 55 56 57 59 59 58 56 54 54 53 48 50 49 47 45 43 42 50 56 60 71 58 65 61 58 63 61 57 55 54 51
25 25 25 25 27 31 29 31 32 34 37 37 36 37 39 40 44 48 50 54 56 59 60 58 60 59 58 57 53 48 49 50 52 51 53 54 55 62 57 65 62 56 69 66 64 62 62 61 58
29 29 30 29 33 38 32 36 33 33 34 34 34 36 40 43 43 45 47 51 54 55 55 56 57 56 54 55 52 49 47 51 56 58 60 61 60 59 62 64 66 66 63 58 67 66 64 64 62
32 31 33 34 35 39 38 40 34 34 38 38 38 37 38 41 43 47 50 51 52 53 53 53 54 55 55 53 54 53 53 53 53 58 61 62 62 60 60 64 69 65 68 70 71 59 77 71 70
34 33 36 35 37 37 39 47 37 37 40 39 38 40 44 45 46 47 47 47 49 52 54 54 53 53 54 54 48 52 53 56 57 58 59 62 63 65 61 59 62 63 61 64 40 64 63 72 59
33 35 36 38 39 41 38 43 45 38 37 38 41 44 46 50 51 51 51 51 49 50 50 50 53 56 56 55 55 55 53 54 53 55 58 61 62 66 67 65 64 60 66 70 72 60 56 67 74
35 35 38 40 42 45 39 41 44 39 32 37 39 44 45 50 54 55 55 54 52 52 53 55 55 56 58 59 59 57 54 54 54 53 56 58 64 66 68 67 67 63 61 64 64 73 68 55 55
35 37 40 43 44 45 44 47 45 39 38 38 39 42 44 46 51 54 57 56 56 57 56 55 57 58 60 61 61 58 56 56 55 53 54 56 62 64 64 68 69 69 66 64 65 67 64 64 63
37 37 39 46 48 48 46 49 46 42 41 41 42 43 43 43 45 47 51 54 57 58 57 57 57 56 57 57 57 57 57 58 55 53 53 55 60 64 66 66 68 69 69 66 64 63 58 57 61
36 35 37 43 46 50 49 50 49 43 43 39 41 45 46 47 47 46 47 51 56 60 61 61 61 62 60 58 57 59 61 59 54 52 52 53 59 62 63 66 67 69 69 70 67 63 58 49 44
34 35 37 40 46 50 49 50 49 49 43 43 47 49 50 53 55 56 57 56 53 57 63 65 66 66 64 60 56 53 52 49 50 51 53 55 55 58 60 58 60 63 65 66 65 54 53 52 46
36 37 37 39 44 47 49 49 49 45 44 47 52 51 52 55 55 53 49 46 48 51 43 46 54 62 63 57 59 55 54 52 53 56 57 57 56 52 50 52 54 57 58 62 63 59 51 50 49
35 36 37 41 43 45 48 48 42 42 46 50 50 48 47 46 43 42 42 42 44 41 34 35 40 42 47 55 52 52 55 58 60 59 59 59 56 54 48 50 53 55 52 54 57 56 53 48 45

GFSSGP_500_spd_096.txt.gz
Wind_Speed
25 25 26 29 29 30 30 35 30 30 31 30 28 26 26 24 22 22 13 14 11 9 9 9 6 4 3 1 3 4 4 3 3 4 5 6 8 8 8 6 5 7 7 7 8 8 11 12 13
27 25 25 26 30 30 26 34 33 33 32 31 31 30 30 28 27 27 22 19 18 14 13 13 11 8 6 4 1 2 5 3 3 2 2 2 3 5 5 5 6 7 9 9 8 7 9 11 12
31 29 30 29 27 27 27 34 34 34 34 34 33 31 33 32 31 30 29 26 24 22 18 16 16 14 13 11 7 5 6 8 4 2 2 1 1 2 1 2 3 5 7 8 9 9 9 11 11
29 33 34 35 30 33 34 29 35 36 37 35 34 37 33 35 37 35 34 33 31 28 26 22 20 20 20 19 16 13 10 10 10 8 4 3 5 5 3 4 5 5 6 8 9 10 10 11 11
32 33 37 35 36 33 35 31 32 33 34 36 36 35 36 37 37 40 42 39 35 33 31 28 24 24 23 24 22 19 16 14 11 10 11 8 8 7 6 6 8 8 8 8 10 12 12 11 12
38 39 40 38 37 38 37 36 36 36 33 34 38 38 37 39 39 40 43 43 40 37 35 34 30 29 26 26 24 24 22 19 17 15 14 15 13 10 7 8 9 11 11 11 11 12 12 12 12
44 44 43 45 43 41 40 41 39 40 35 40 35 34 38 43 42 42 41 40 39 38 34 33 33 31 29 27 26 26 26 23 19 19 17 16 16 15 12 10 9 11 12 13 13 13 13 12 13
45 46 48 44 47 43 45 42 47 44 47 42 37 40 39 36 35 42 44 41 42 41 38 36 33 33 32 28 28 27 27 27 27 24 21 19 18 18 16 15 13 13 13 13 14 15 14 13 13
43 46 45 44 41 42 46 47 49 47 47 46 45 43 42 40 41 38 40 42 45 43 44 39 34 32 32 31 31 30 30 30 30 30 27 24 23 23 22 21 19 16 16 16 16 16 16 15 14
38 40 40 42 43 45 48 50 52 50 48 50 48 47 46 45 44 46 45 45 43 44 47 46 41 38 38 36 36 36 34 33 31 29 29 26 24 25 25 25 24 21 19 19 19 18 18 17 17
33 33 38 38 40 41 42 44 46 50 48 46 48 48 47 47 46 47 47 47 49 48 48 49 50 50 46 42 40 36 36 34 33 32 29 28 26 25 26 26 26 26 24 22 21 20 19 19 19
30 31 32 34 37 36 36 40 41 44 47 48 48 48 49 47 48 47 47 48 50 51 51 50 49 50 52 49 46 44 48 41 38 37 34 31 32 32 28 30 31 30 28 26 24 24 23 22 22
27 30 32 34 36 37 37 37 39 41 42 42 45 46 49 50 47 48 48 50 50 49 49 49 49 47 49 48 48 50 50 49 42 39 38 39 40 42 43 38 33 34 33 32 30 29 27 26 26
26 28 28 30 34 34 36 36 37 38 41 42 44 44 43 45 45 46 46 48 51 50 48 51 50 47 49 50 51 51 46 42 44 43 46 47 47 49 46 51 48 39 38 36 36 36 35 33 32
25 26 26 26 29 29 31 32 34 38 40 41 42 43 44 46 47 45 45 45 47 47 49 48 48 47 46 48 47 46 46 48 49 47 45 47 48 46 49 50 51 44 43 41 41 41 41 39 37
28 29 29 30 29 30 30 31 35 34 37 39 41 44 45 47 48 50 49 48 48 47 47 47 45 44 42 42 41 42 43 43 47 51 46 43 43 50 57 58 58 55 55 49 47 47 45 44 44
34 32 33 33 32 35 35 35 33 32 35 37 39 41 43 45 48 48 50 51 51 51 50 50 49 47 45 45 44 45 46 46 45 47 48 46 49 55 59 61 65 61 60 56 53 52 51 49 52
30 25 26 26 29 31 33 34 35 36 38 36 37 37 38 42 46 48 49 50 51 52 51 50 50 51 51 50 50 49 49 49 48 45 47 45 46 51 51 51 58 59 63 66 59 56 56 56 56
24 23 23 24 29 30 28 31 30 29 30 32 36 40 39 37 39 44 49 51 52 53 53 53 53 53 54 55 55 53 52 51 51 51 50 51 48 50 55 64 54 60 70 67 61 65 63 61 61
28 28 28 29 34 33 31 35 32 32 32 32 32 32 35 39 43 47 49 49 51 53 56 57 57 56 56 58 60 59 57 55 54 51 52 55 55 57 57 58 62 62 68 69 62 56 64 65 62
31 32 32 34 36 35 36 38 34 35 37 36 37 37 38 41 44 44 46 50 52 53 54 56 58 59 59 57 57 59 61 60 57 55 53 51 54 58 63 65 65 65 65 65 68 65 56 57 61
35 32 34 34 34 35 41 40 36 36 39 35 39 41 44 47 47 47 48 49 49 51 54 56 58 58 57 59 59 59 59 60 60 58 57 58 60 59 61 66 65 63 65 65 65 55 68 60 57
32 33 34 35 36 39 37 45 37 38 35 37 39 43 47 47 48 50 51 51 51 53 54 55 56 57 59 60 60 60 60 59 59 60 63 63 62 63 63 63 64 61 61 58 66 51 59 64 71
36 34 36 37 37 41 35 39 36 37 34 31 37 43 40 43 46 49 52 54 55 55 57 57 58 58 58 59 60 62 62 60 60 59 58 57 60 61 62 62 61 65 65 63 64 60 64 66 65
35 35 36 36 32 35 29 40 37 38 35 32 35 38 37 39 44 47 52 54 55 57 58 58 60 61 62 62 61 61 62 61 61 62 61 60 62 61 61 60 58 59 62 64 65 63 62 62 63
32 33 36 36 30 28 32 41 35 47 37 36 36 34 37 39 43 45 48 51 54 55 57 58 59 61 65 66 66 65 64 63 63 66 65 63 63 64 62 60 62 63 63 64 66 68 66 63 61
35 39 36 41 41 46 41 44 43 46 41 36 36 37 41 41 41 42 43 45 47 51 55 57 59 61 62 64 67 67 65 63 61 61 61 60 63 63 58 57 61 64 64 65 65 65 65 63 59
35 36 38 38 43 45 39 37 38 48 44 42 39 43 45 44 45 46 46 47 48 50 52 57 61 64 67 68 68 69 69 67 64 60 61 62 59 58 58 58 58 62 62 61 61 64 66 66 64
40 37 38 37 39 44 44 43 45 45 41 42 45 49 47 47 46 47 48 50 50 47 45 45 49 59 66 73 76 76 73 71 68 64 63 64 63 62 63 63 60 62 60 56 57 59 61 64 65
37 35 36 40 40 39 44 44 44 42 40 47 47 49 48 47 47 47 46 45 42 42 42 41 41 42 48 57 59 61 70 71 66 63 63 62 64 65 64 59 57 55 47 47 49 53 54 54 57

GFSSGP_500_spd_102.txt.gz
Wind_Speed
21 20 28 29 27 23 20 19 3 20 28 39 37 20 17 27 22 26 21 18 10 8 7 8 7 5 5 5 5 5 5 4 5 5 5 3 2 0 1 3 3 4 5 5 4 3 4 5 5
22 21 26 32 30 26 17 7 26 22 30 38 21 25 18 33 24 24 21 19 17 13 11 10 9 10 9 8 7 6 6 7 7 7 8 7 5 3 3 3 2 0 1 2 2 1 3 3 4
25 23 22 30 32 27 14 28 16 28 35 37 25 26 33 39 30 26 26 24 22 20 17 14 14 12 13 14 13 11 11 11 11 10 11 10 9 9 8 7 6 4 3 2 1 2 3 4 4
28 27 27 27 29 28 25 22 21 21 39 42 32 33 36 36 33 29 29 31 26 25 23 21 19 19 19 19 20 19 18 18 18 17 16 14 12 11 10 11 10 8 7 6 4 3 4 4 5
32 33 33 32 27 27 24 24 21 22 16 22 31 31 43 33 37 31 32 32 32 29 27 25 24 22 22 21 21 23 23 23 21 20 20 19 16 14 12 12 12 11 9 9 8 8 8 7 7
34 32 34 34 31 28 25 22 33 32 21 27 25 33 42 41 36 33 32 33 33 32 34 32 31 28 27 26 25 26 26 26 25 21 18 17 17 17 16 13 13 13 12 11 10 10 11 11 11
39 37 35 32 32 34 26 34 38 40 38 31 35 34 40 47 40 35 33 32 33 34 34 34 34 34 35 33 31 28 27 26 26 26 24 21 18 17 17 16 14 14 15 14 13 13 13 14 14
40 42 41 40 37 36 24 28 43 45 40 43 46 31 43 49 48 31 31 34 37 38 34 32 32 32 34 34 33 31 30 28 27 26 27 26 24 23 20 20 18 17 15 16 17 16 16 16 17
45 46 44 42 41 38 33 33 40 43 41 49 54 35 47 51 46 36 34 36 37 35 33 33 35 34 34 33 33 32 32 31 30 29 29 29 30 30 27 26 23 22 21 19 19 19 19 20 20
42 44 44 41 41 42 45 44 49 52 43 48 47 42 43 47 42 37 38 37 42 43 38 34 33 31 31 30 32 33 33 33 33 31 30 30 31 30 28 27 27 26 24 23 22 23 22 22 23
38 41 40 37 37 48 49 53 52 51 50 50 46 42 45 47 50 43 40 40 41 45 46 43 39 36 36 34 33 36 35 36 37 34 34 35 35 34 31 29 28 26 26 27 26 26 26 25 26
39 39 38 39 43 54 44 48 54 52 49 50 51 46 48 47 49 45 44 40 43 47 50 37 37 42 42 40 35 36 41 37 41 40 37 37 37 37 36 33 34 32 29 31 31 31 30 29 29
35 35 37 40 42 48 40 43 45 46 49 49 45 45 46 43 45 44 44 42 46 46 49 54 49 45 47 40 40 40 44 44 43 42 45 44 41 40 38 35 39 39 36 37 36 37 35 34 34
29 30 33 38 41 41 38 39 39 38 37 40 39 35 39 38 38 37 39 43 46 46 50 52 50 47 42 30 39 42 43 38 44 47 38 42 45 44 46 45 50 46 43 43 41 41 43 41 42
30 30 28 31 32 32 36 36 36 35 36 39 40 35 35 36 36 35 36 38 38 37 43 50 45 41 48 32 35 42 45 45 47 48 37 44 46 42 45 45 49 49 52 53 55 53 48 52 51
28 30 31 29 31 32 36 33 33 33 38 41 35 36 36 36 35 38 37 39 41 37 38 45 47 46 43 42 42 43 43 45 48 50 50 51 52 52 52 50 49 46 48 50 53 55 53 56 52
26 25 24 24 24 29 34 33 31 36 38 38 38 39 38 39 40 39 39 42 43 43 42 45 45 46 49 43 45 44 45 45 44 44 45 48 48 49 55 57 55 48 51 51 51 50 59 55 53
23 23 24 26 16 34 38 39 33 36 41 39 38 42 41 41 43 42 42 44 48 47 45 47 49 48 50 51 46 47 47 47 47 46 46 46 46 43 46 48 50 50 52 51 55 52 55 54 51
29 27 29 22 18 28 37 36 31 35 39 41 30 31 33 33 37 40 43 46 49 53 49 48 49 50 51 53 54 52 51 51 50 49 46 47 50 50 46 45 47 50 51 51 54 57 59 56 56
29 32 34 29 31 33 36 34 31 30 30 31 31 31 31 31 33 34 37 40 43 36 35 39 41 43 46 50 51 51 52 53 52 54 52 52 54 53 48 47 49 51 53 52 54 56 58 58 57
33 33 30 31 32 34 33 36 35 31 33 35 36 35 34 36 37 39 43 47 46 41 29 40 44 44 43 44 46 47 50 50 52 54 54 55 55 55 55 52 54 56 57 56 57 59 60 61 61
34 32 31 35 36 38 33 39 32 23 30 33 35 33 35 37 42 48 49 48 47 46 44 44 47 48 46 46 47 49 50 50 51 54 55 56 53 56 58 58 57 57 58 57 57 58 59 62 62
34 33 34 31 34 38 38 41 36 30 30 31 31 36 40 41 46 48 46 44 47 47 48 49 48 47 49 53 53 53 53 54 54 53 55 56 58 48 63 60 61 58 59 59 59 59 59 59 61
37 37 38 38 37 43 37 37 34 30 27 27 28 35 39 48 46 38 38 45 46 48 49 49 50 46 48 50 53 56 57 56 57 57 58 55 61 57 63 55 63 48 59 60 59 58 57 62 62
37 34 35 37 36 40 26 25 24 16 27 30 36 40 48 54 41 35 42 47 46 48 49 49 49 51 50 51 53 55 57 59 60 60 61 62 61 60 60 61 69 67 68 62 60 58 58 58 59
32 30 32 35 36 36 30 33 29 20 32 32 33 46 51 53 45 49 45 42 45 47 49 49 51 53 54 53 54 56 57 58 60 61 62 64 65 66 64 56 70 51 76 63 58 57 58 57 58
27 30 28 42 46 48 42 40 41 31 38 32 39 46 51 55 51 41 41 44 44 45 47 47 48 51 54 56 55 56 57 57 59 60 62 64 65 67 67 62 67 68 57 56 47 57 58 60 61
39 34 38 40 42 40 37 29 30 36 41 43 45 44 51 52 47 46 46 46 46 49 48 50 50 49 52 53 57 57 58 60 60 61 62 64 65 66 67 66 68 70 71 70 61 59 61 59 69
36 36 38 38 39 42 41 37 21 32 31 33 40 47 51 54 55 55 52 43 44 47 47 51 52 51 53 55 56 57 58 60 61 63 63 65 67 68 70 69 70 73 70 70 70 70 59 63 54
27 31 37 39 43 42 44 47 38 37 42 45 46 49 52 51 55 54 57 50 51 47 50 49 54 53 55 56 54 50 50 50 48 48 51 56 62 64 68 72 73 74 74 73 76 67 50 61 46

GFSSGP_500_spd_105.txt.gz
Wind_Speed
24 24 26 30 27 19 22 16 11 9 26 26 30 31 31 30 24 23 11 12 9 9 7 5 4 5 4 4 5 4 3 4 5 6 5 6 6 5 3 3 3 4 6 7 7 5 2 0 2
27 27 25 30 29 22 25 23 16 22 20 24 26 31 37 34 30 25 17 18 15 14 10 9 8 8 9 8 6 5 4 5 6 7 8 7 7 8 8 7 6 5 5 5 5 5 3 1 1
29 29 26 28 29 25 30 33 17 28 22 25 29 33 33 35 30 23 17 21 20 18 17 15 13 13 13 13 12 12 12 11 13 13 13 12 11 9 10 11 10 10 10 8 7 7 5 3 3
31 30 29 26 26 28 31 28 28 31 36 29 30 34 32 34 32 26 22 24 27 23 22 19 19 18 17 18 18 18 17 16 16 16 17 16 17 16 13 12 11 12 12 12 11 11 10 7 7
34 34 31 29 24 31 31 19 24 23 21 34 32 38 39 37 34 31 25 25 27 28 26 24 22 22 21 20 20 20 20 20 21 19 18 16 14 14 15 14 13 13 13 13 13 14 13 11 10
36 37 35 28 24 27 37 13 20 18 19 15 16 32 35 36 33 33 33 29 23 31 30 28 28 26 25 24 24 24 24 24 25 25 22 19 17 14 13 13 13 13 13 13 14 14 14 15 14
34 37 34 34 31 30 32 16 29 22 24 24 20 35 41 40 31 27 32 36 27 28 31 30 30 30 30 29 29 28 27 26 24 24 24 24 22 19 17 16 15 15 14 13 14 15 15 15 16
37 41 37 32 32 34 35 24 15 24 33 37 37 40 43 44 45 29 30 34 30 29 31 30 30 30 31 32 31 30 29 27 25 25 23 23 25 25 25 22 20 18 18 18 18 17 18 18 18
44 47 42 35 33 29 29 38 32 26 34 39 40 47 45 46 46 37 35 38 35 27 27 25 27 31 32 32 31 32 31 30 27 25 26 25 26 25 25 25 25 25 23 23 21 21 19 20 20
46 45 43 37 39 39 36 40 43 35 42 40 41 37 41 46 44 43 37 40 42 33 32 30 29 30 29 28 27 27 26 29 30 29 28 28 28 28 28 27 26 25 24 24 25 25 24 25 24
42 42 41 44 43 45 44 44 48 51 50 48 42 42 35 43 47 46 41 40 42 47 40 35 24 35 35 37 36 31 30 30 34 33 33 32 34 32 32 30 30 28 28 28 27 28 27 27 27
38 36 38 35 39 43 49 48 52 52 50 48 49 47 41 42 45 48 44 38 38 44 51 49 38 35 43 41 38 39 36 33 35 35 35 36 39 31 33 38 35 32 32 32 32 32 32 33 32
38 34 34 36 40 43 47 46 42 45 44 45 48 47 45 44 41 43 43 34 39 44 49 52 52 38 39 45 39 47 38 40 37 35 40 43 44 29 40 42 39 39 43 37 36 39 37 36 38
33 35 35 35 36 42 45 43 40 43 43 41 44 43 39 38 37 39 40 37 37 44 46 50 52 46 36 44 37 32 37 48 40 41 44 43 46 47 45 40 43 41 43 42 41 42 44 43 43
30 33 34 34 34 33 37 38 38 38 39 38 42 43 37 35 35 37 36 35 38 41 43 46 48 47 34 25 34 39 18 38 44 49 45 43 43 45 45 42 45 48 46 49 53 52 45 47 47
33 32 30 30 28 31 35 32 32 35 36 38 40 39 33 33 35 36 36 38 42 42 43 44 45 45 41 41 38 38 37 39 43 47 43 43 47 51 51 52 49 51 52 50 49 48 49 50 52
35 31 29 26 28 30 34 34 33 33 36 37 38 37 34 34 34 34 35 39 40 40 41 43 42 45 46 44 45 42 43 40 42 41 39 40 46 51 53 51 52 54 52 50 52 53 53 53 51
31 28 27 24 14 20 31 35 36 31 37 38 39 38 37 37 37 38 38 41 43 43 43 43 45 46 47 48 48 45 44 43 43 41 42 44 45 48 49 51 51 53 51 50 50 49 49 48 50
29 33 34 31 19 23 26 33 40 43 39 43 41 41 42 43 41 43 46 48 49 51 50 48 44 47 50 46 46 46 45 46 46 46 47 48 49 49 49 50 52 53 54 52 51 52 51 50 53
32 32 31 34 30 33 37 40 41 28 22 27 30 30 29 28 30 31 34 37 38 40 40 37 38 42 46 50 49 49 49 47 48 49 51 52 52 52 52 51 50 53 52 51 53 55 55 55 55
34 34 35 38 35 40 39 41 38 36 32 30 30 31 34 34 35 36 39 43 44 40 38 32 30 36 38 43 44 44 44 42 43 45 46 45 47 47 51 53 53 56 55 56 54 56 54 54 55
33 31 33 35 33 38 40 45 40 36 31 30 32 34 31 31 37 41 44 45 43 41 39 36 37 42 43 43 44 45 46 47 46 46 44 44 45 48 52 53 56 57 62 60 58 58 55 56 57
35 33 35 37 38 38 39 43 40 32 33 29 28 30 31 34 40 41 43 42 42 45 45 45 43 42 40 41 45 46 49 50 50 49 49 49 48 49 53 52 56 71 43 51 56 56 56 59 55
35 36 38 39 40 45 39 36 36 28 25 21 20 23 29 38 44 45 41 33 34 40 43 46 47 45 43 41 46 49 51 51 51 50 49 49 49 51 54 52 60 54 52 39 31 55 64 59 57
33 36 36 39 41 46 36 39 34 17 16 31 29 33 33 43 48 48 46 40 37 41 43 46 48 48 47 46 45 49 52 52 52 52 52 53 51 51 53 56 58 55 49 65 56 53 61 63 65
45 46 48 48 44 43 39 43 35 26 32 31 31 39 36 46 50 53 50 47 48 47 50 47 47 49 49 50 50 50 52 53 53 53 54 54 55 54 55 57 61 61 60 62 62 58 57 45 53
26 25 26 36 36 39 37 32 27 33 40 32 29 36 37 42 52 54 50 49 55 50 46 44 47 48 47 48 52 54 53 54 55 55 56 55 55 55 56 58 61 64 65 64 63 58 59 50 33
31 28 30 36 39 38 37 31 30 33 43 45 47 41 46 45 49 51 55 56 56 53 49 48 49 50 48 47 48 52 52 53 55 56 56 56 57 57 58 60 62 65 68 69 68 65 61 51 59
32 35 40 43 46 44 41 38 35 30 31 38 42 47 50 48 55 59 58 61 59 56 53 45 49 52 52 50 48 53 54 55 56 56 58 59 58 59 60 62 64 68 71 74 73 66 61 66 63
31 30 35 38 38 40 41 39 28 36 42 44 46 48 46 49 55 58 60 65 65 59 55 50 49 50 50 53 52 51 54 55 55 55 55 54 55 56 57 58 58 62 69 75 75 74 70 69 66

GFSSGP_500_spd_108.txt.gz
Wind_Speed
31 31 29 25 25 22 26 23 23 16 15 11 22 19 24 20 15 17 18 8 7 7 4 5 3 3 4 3 3 2 2 4 5 6 7 8 9 10 10 10 9 10 10 11 11 10 10 9 9
33 31 29 25 28 24 29 30 31 23 18 16 29 29 30 29 24 23 24 18 15 13 9 8 6 7 6 5 5 4 3 4 5 7 9 9 9 10 11 11 11 11 10 11 12 12 11 10 10
35 32 30 26 27 27 32 34 34 26 21 23 29 29 30 32 28 23 30 26 22 16 12 14 14 11 10 9 10 10 11 11 12 12 11 12 13 14 14 14 13 12 13 14 15 16 16 15 15
35 34 31 27 25 32 36 34 35 22 22 25 26 31 27 25 23 21 23 26 24 22 21 18 18 17 17 17 16 16 15 16 15 16 15 14 13 12 13 13 14 14 15 15 16 15 15 17 16
38 37 34 28 24 35 36 42 39 24 20 28 33 40 35 25 25 23 20 24 26 26 25 23 21 20 20 20 20 19 19 19 18 19 19 17 16 15 14 13 13 15 15 16 17 17 17 16 16
40 39 35 29 25 33 36 41 45 38 31 31 32 37 39 33 29 26 22 23 25 27 26 25 25 24 23 24 23 23 23 24 23 22 21 19 16 16 15 14 13 13 14 16 18 19 19 19 19
39 40 35 33 28 31 38 45 47 48 30 30 40 32 33 33 28 18 18 20 25 27 27 28 28 27 27 27 27 27 26 25 24 23 22 20 19 18 17 17 17 17 17 17 18 19 21 21 21
41 42 37 34 31 29 35 38 48 49 32 30 36 34 35 37 38 30 21 20 23 26 27 30 31 30 30 30 29 29 29 28 26 23 22 22 21 21 21 22 22 22 20 20 20 21 22 22 22
42 40 33 32 36 29 35 39 43 42 40 32 34 39 42 40 39 34 31 25 25 27 29 30 32 34 32 31 31 29 29 29 29 27 26 23 23 24 23 24 24 24 24 23 22 23 23 25 25
44 40 32 30 33 34 40 40 37 36 33 40 41 41 41 38 37 37 33 30 28 26 30 33 36 34 34 31 30 27 26 27 28 27 28 29 26 26 27 27 28 28 26 27 26 26 26 25 25
50 46 40 39 39 43 40 40 40 38 42 45 42 42 42 38 37 35 40 41 34 30 28 32 39 33 30 36 33 30 30 33 32 30 31 33 33 31 31 35 30 32 32 32 31 30 30 30 30
48 44 44 42 44 46 46 47 47 47 45 46 45 45 43 41 43 44 40 44 42 40 39 34 36 39 38 38 37 35 34 34 33 34 37 36 38 37 36 36 35 33 35 37 36 35 36 36 35
42 41 41 38 41 46 47 49 49 48 46 47 46 44 43 41 41 42 44 43 42 45 46 44 38 36 38 40 38 33 37 36 36 39 41 41 39 39 34 38 40 38 39 39 38 39 43 43 39
38 39 40 39 39 41 43 43 43 39 39 39 42 44 45 45 40 40 45 44 40 45 49 47 46 44 36 37 41 40 43 46 39 40 41 45 46 39 47 43 47 44 41 42 45 43 43 42 42
39 37 38 38 38 40 43 40 37 32 37 41 43 44 45 43 42 43 40 43 40 41 45 45 46 47 43 35 38 36 35 40 35 40 44 49 48 48 53 51 49 50 49 49 51 51 50 47 48
33 34 35 35 34 30 33 39 32 33 40 42 44 45 44 41 39 42 41 43 40 40 40 42 44 44 45 41 34 35 43 36 40 39 37 37 46 52 54 53 52 49 49 48 51 50 50 50 49
36 36 32 26 29 29 34 34 30 34 35 38 41 39 41 39 40 39 41 40 39 39 40 41 43 43 43 42 41 39 40 39 42 43 40 44 46 48 49 48 50 51 52 53 55 56 54 53 51
33 33 30 31 30 35 37 40 37 34 37 38 41 40 40 39 37 37 40 39 38 39 41 41 43 42 44 45 45 45 45 42 39 36 39 41 45 48 49 51 50 53 54 54 53 53 52 53 53
36 37 35 35 35 39 39 40 39 39 40 43 41 41 41 40 37 37 40 42 43 44 45 45 44 44 44 45 44 42 41 42 43 42 42 43 45 48 49 51 52 52 53 49 52 52 51 53 51
37 39 39 34 36 41 40 41 43 45 44 44 36 35 37 36 36 34 38 42 44 45 43 42 40 39 41 44 44 43 46 48 48 48 48 49 50 49 47 48 50 50 53 53 52 52 52 53 51
34 34 33 35 36 40 41 43 43 44 43 26 20 25 26 28 29 30 33 37 36 36 34 31 31 30 32 35 40 41 41 40 40 42 43 43 45 48 47 46 48 49 52 54 55 57 56 56 56
40 38 39 40 41 39 40 45 40 38 32 30 24 26 32 31 32 37 41 39 38 38 35 35 35 34 36 36 39 46 47 47 46 45 45 45 46 49 52 52 51 52 53 52 54 56 61 62 63
39 37 38 38 39 36 33 41 37 34 32 27 28 34 37 38 38 39 42 40 38 37 35 33 35 34 36 40 41 44 48 50 49 48 47 45 47 50 53 55 56 56 56 54 52 53 51 50 47
38 38 38 37 37 40 35 39 40 28 29 36 40 43 41 39 40 43 42 41 39 33 31 33 37 37 36 35 39 43 46 49 51 49 48 49 48 48 50 51 55 58 54 53 52 53 54 43 45
36 36 38 39 40 43 37 38 42 29 37 43 44 41 38 34 37 39 40 40 40 36 37 38 40 41 41 42 43 46 47 49 50 50 50 51 51 53 54 55 57 59 61 55 54 56 55 52 56
38 39 42 45 44 42 39 45 42 34 36 38 43 38 37 36 37 39 40 41 46 46 44 47 44 43 44 44 46 47 48 50 50 50 51 52 54 56 57 58 59 61 64 64 60 59 59 53 52
30 42 46 47 49 47 44 40 38 36 44 42 45 42 40 39 42 34 38 45 51 53 49 48 48 50 48 49 52 51 51 51 53 54 54 54 55 57 58 60 61 62 64 67 66 62 53 57 58
22 23 28 31 34 35 35 28 23 25 31 31 33 39 43 42 36 39 41 45 49 51 52 55 57 55 56 55 53 53 53 53 53 52 54 57 57 58 60 61 62 63 65 66 69 69 69 63 56
28 30 32 33 39 41 40 33 29 30 33 35 35 30 39 44 49 51 51 52 51 55 58 57 57 60 61 55 53 55 55 55 53 56 55 55 58 60 62 63 65 66 67 68 69 71 72 71 69
28 32 32 35 39 43 43 39 35 34 35 36 34 40 41 40 45 49 49 51 56 59 60 62 65 63 59 57 56 57 55 54 54 53 56 58 59 60 62 63 65 66 67 68 71 74 75 75 74

GFSSGP_500_spd_111.txt.gz
Wind_Speed
36 33 31 28 28 29 34 27 23 20 22 19 15 11 13 14 11 12 11 14 12 5 7 6 4 4 3 3 3 3 3 4 5 6 8 9 10 11 13 14 14 14 14 14 16 17 17 17 17
39 36 33 31 29 29 33 32 29 25 26 27 21 19 17 18 17 17 17 17 15 15 13 12 7 8 8 5 3 3 4 5 6 7 9 10 11 11 12 13 14 15 15 15 15 16 18 19 19
41 38 36 34 30 32 37 37 31 29 28 33 23 27 28 22 22 22 23 22 22 19 16 14 12 11 11 10 9 9 9 9 10 11 12 12 13 14 15 15 15 15 16 17 17 17 17 17 18
42 40 37 34 28 33 33 39 38 36 33 32 27 23 24 24 24 25 22 21 22 23 20 20 17 14 14 14 15 15 15 14 13 13 14 14 14 14 13 13 13 14 15 17 18 19 20 19 19
45 41 39 33 27 35 35 41 44 42 40 38 34 30 27 25 23 22 23 21 21 22 21 20 19 19 19 19 18 18 18 17 17 17 18 18 16 15 15 14 14 14 15 16 17 17 18 19 19
48 44 41 33 30 40 39 43 47 46 44 39 34 35 30 26 27 24 21 21 22 22 22 22 22 22 21 21 22 22 22 22 21 21 19 18 19 17 15 15 15 15 15 16 17 17 18 19 20
49 48 42 36 31 31 43 44 48 47 47 48 42 37 31 26 22 21 23 22 20 22 24 24 24 25 25 26 26 26 25 25 23 22 21 20 18 19 19 17 17 18 19 18 17 18 19 19 21
51 49 45 39 32 29 50 50 48 49 50 50 47 39 36 35 28 20 17 18 19 20 23 25 27 28 28 28 28 28 29 28 27 25 23 21 21 21 21 20 20 20 21 20 19 18 20 22 21
43 51 47 40 33 30 39 47 48 49 50 50 49 47 43 37 37 28 22 19 25 28 27 29 29 29 29 29 29 31 31 31 30 30 29 27 25 25 23 24 24 24 25 24 23 22 22 23 24
37 37 41 41 43 47 43 44 50 49 51 50 51 52 52 46 37 30 25 29 21 25 28 29 30 31 29 29 30 30 29 30 32 30 31 30 27 28 28 27 27 28 29 28 28 28 27 26 26
42 33 32 41 41 41 41 37 40 40 44 45 48 49 47 41 36 32 32 33 30 29 29 30 31 32 32 30 29 29 28 30 31 31 31 30 30 32 31 36 28 34 37 35 29 30 32 34 32
43 37 37 34 35 37 37 37 41 40 39 43 41 41 41 38 37 36 35 34 35 34 34 35 35 37 37 34 34 35 35 33 33 35 36 36 33 35 35 36 32 37 40 42 36 31 36 39 38
48 44 42 39 40 41 41 42 40 40 41 44 44 43 44 44 43 43 40 37 39 40 35 34 36 37 40 40 38 38 36 39 37 39 39 39 37 36 36 36 35 37 39 41 40 40 32 36 39
51 49 49 48 49 49 50 48 46 44 45 45 46 46 47 46 45 44 46 42 44 43 41 41 38 37 39 39 40 39 38 39 41 39 41 41 42 44 42 40 39 42 38 41 43 44 42 41 42
49 48 50 48 48 49 50 50 50 43 45 44 46 47 47 47 47 46 43 44 44 46 43 42 44 42 37 35 34 35 37 37 34 36 42 47 41 44 47 46 45 46 48 50 48 49 47 48 45
43 41 41 38 40 42 41 38 37 39 39 41 43 47 48 50 48 46 46 45 45 45 44 42 42 43 41 40 34 32 34 35 32 35 30 34 38 40 46 47 50 51 51 51 51 51 48 47 44
36 34 35 36 34 35 38 42 41 43 47 47 49 48 51 51 50 45 47 45 44 43 43 43 45 43 40 40 39 35 34 35 37 38 41 43 45 47 51 48 47 53 55 53 54 57 57 53 52
33 34 33 30 35 39 43 45 44 45 47 45 46 48 50 50 48 44 45 43 42 41 42 42 42 41 39 39 39 38 38 39 39 41 41 43 46 47 49 50 52 54 51 51 53 55 57 56 53
36 37 36 32 37 40 41 46 46 44 44 43 43 47 47 42 43 42 40 40 41 42 43 43 43 41 41 41 41 42 39 37 38 40 42 45 47 48 50 51 51 53 52 51 52 54 55 55 55
36 38 38 34 37 42 41 42 44 42 41 42 43 42 40 41 42 42 43 43 44 46 45 43 43 41 37 35 36 36 36 37 39 44 48 47 48 50 51 50 51 52 54 53 53 55 56 56 55
37 38 37 35 33 40 39 39 37 39 39 41 40 35 31 35 39 41 41 40 41 43 42 38 35 31 32 33 33 36 38 40 41 40 41 44 44 44 45 45 47 50 51 52 53 56 58 57 59
39 38 38 38 35 36 39 39 37 38 41 41 38 28 29 33 34 34 33 34 35 35 34 34 33 33 35 36 37 38 40 43 46 48 47 48 49 48 48 49 49 50 52 51 51 52 53 53 53
34 37 38 38 39 40 41 46 41 42 44 39 31 29 33 37 37 35 33 36 37 35 36 34 33 31 30 32 33 36 41 44 47 51 52 53 52 51 51 52 53 55 56 56 55 55 55 57 56
40 41 43 43 44 44 43 46 44 38 36 36 36 38 37 38 38 37 36 39 39 38 36 35 32 29 29 30 32 33 39 44 47 49 52 53 56 56 52 52 54 55 56 57 55 55 56 56 58
39 38 39 40 41 41 39 40 42 41 35 38 43 45 41 40 39 39 40 41 39 38 37 35 34 35 35 34 34 34 39 43 47 51 52 52 53 54 57 55 55 56 57 57 57 57 55 55 57
38 38 40 42 42 42 42 44 44 42 33 38 42 44 45 42 39 38 38 39 41 41 40 38 41 44 42 39 39 40 43 45 46 50 53 54 53 53 52 54 58 59 60 60 61 61 61 58 58
39 41 41 43 45 45 46 46 44 42 39 41 47 47 45 40 37 38 44 47 49 46 45 43 43 43 44 43 43 47 52 52 51 53 56 61 58 57 57 57 57 59 61 62 64 66 66 66 64
23 33 39 37 41 37 34 29 25 23 26 31 32 35 38 37 39 38 36 38 36 36 39 43 44 46 48 51 53 56 59 52 54 59 61 63 65 61 60 61 61 61 62 64 66 68 68 69 69
25 28 29 29 33 36 35 32 27 28 28 28 29 32 34 35 34 36 39 45 40 47 50 53 49 53 58 61 59 56 56 59 62 64 61 61 66 67 64 63 63 64 65 67 69 69 71 71 72
24 26 28 30 31 31 31 29 29 29 32 34 35 37 38 37 38 40 38 36 44 49 49 52 54 55 57 59 62 63 65 68 68 68 61 59 61 65 67 66 65 66 68 70 70 71 72 73 74

GFSSGP_500_spd_114.txt.gz
Wind_Speed
40 37 35 33 36 38 37 31 28 25 24 25 27 21 16 15 12 5 3 5 8 7 6 6 7 4 4 4 4 5 4 4 4 4 6 8 10 12 13 14 15 15 15 14 14 14 15 16 17
42 40 37 36 35 36 37 33 32 28 30 25 26 24 21 15 13 9 8 9 10 10 10 9 10 10 7 8 6 5 5 5 6 7 8 9 9 10 10 11 13 13 13 13 14 15 16 16 17
45 42 40 38 35 33 37 36 33 33 31 27 26 26 24 18 13 12 13 13 12 15 13 10 11 13 11 11 11 10 10 10 10 10 10 11 12 11 11 11 11 12 12 12 12 13 15 15 16
47 45 43 39 33 33 37 39 37 35 38 33 27 24 24 21 16 16 19 16 15 13 13 13 14 14 13 12 12 12 12 13 13 11 12 11 12 12 11 12 12 13 14 13 13 14 14 14 15
48 49 45 40 36 34 36 41 42 41 40 39 37 29 23 20 19 16 16 17 16 15 14 15 16 16 15 15 15 14 15 15 16 17 17 18 17 14 13 13 12 13 14 14 14 14 14 15 16
51 51 48 41 37 43 44 44 46 44 43 40 37 34 31 25 20 19 17 17 21 20 16 17 17 18 17 18 17 18 18 19 19 19 19 18 17 16 14 13 13 14 16 16 17 15 15 15 15
55 52 50 44 40 41 40 48 49 48 48 45 42 38 36 29 27 22 24 24 20 21 23 21 20 20 20 21 21 21 21 22 22 23 22 21 20 18 16 16 17 16 17 18 19 17 16 16 18
56 56 52 47 42 41 39 44 49 49 50 49 45 43 37 30 27 26 17 23 24 20 18 18 21 22 23 23 24 25 25 25 24 24 24 23 21 20 20 20 19 19 20 21 22 22 21 21 21
62 55 54 50 43 41 39 43 50 48 49 50 48 45 41 40 35 30 20 13 16 20 23 25 25 26 26 27 26 26 26 26 26 27 27 27 26 26 23 23 23 23 22 24 26 26 24 23 23
47 55 52 48 43 41 44 42 52 50 50 50 48 48 45 43 41 38 22 16 19 27 29 26 24 25 25 26 26 25 25 26 27 29 29 30 29 28 26 27 30 25 29 27 31 33 29 28 28
39 45 51 45 44 48 47 41 51 52 52 51 52 50 46 42 38 36 33 26 27 29 29 29 28 28 29 29 30 29 27 28 28 28 28 28 29 28 27 27 28 37 29 33 32 36 37 36 31
45 37 41 55 49 52 48 50 47 52 51 50 47 45 43 42 39 37 35 36 31 31 36 36 32 32 32 33 33 33 32 33 32 33 33 33 33 34 33 33 32 33 33 36 37 38 36 37 34
34 38 41 36 36 44 50 49 43 42 40 43 39 40 37 38 38 37 37 37 37 35 36 35 35 34 34 34 36 36 38 37 39 39 40 40 38 38 38 37 38 38 39 36 34 37 37 38 40
37 38 40 40 38 35 39 40 39 33 34 36 37 35 36 39 40 40 40 42 42 41 38 38 35 34 36 37 38 39 41 41 41 41 41 43 41 41 44 42 40 41 43 41 36 40 41 39 38
45 43 41 39 39 41 41 38 38 36 37 36 38 42 44 45 46 46 46 47 46 44 42 38 35 32 35 36 36 36 35 39 40 40 40 40 45 47 42 44 44 44 48 45 45 44 44 45 44
47 46 45 45 45 46 44 40 38 37 38 40 45 48 49 51 51 50 50 48 47 47 45 42 40 39 35 33 33 33 34 36 34 37 37 41 40 42 38 44 48 48 42 44 51 55 52 49 47
45 43 41 39 41 42 44 43 40 42 43 45 49 50 49 51 52 49 46 47 46 48 46 45 43 43 41 36 37 36 34 34 35 38 40 39 39 43 41 40 45 47 47 50 50 53 57 52 49
36 32 32 32 35 36 40 44 40 42 48 49 48 46 45 50 50 51 48 49 48 48 49 49 46 44 40 37 36 37 37 37 39 41 40 42 43 44 45 46 47 49 50 51 52 52 53 50 50
31 32 34 34 36 41 44 47 45 44 47 47 45 43 46 50 53 49 49 49 49 49 47 46 45 42 38 36 36 36 36 38 37 40 42 44 45 47 47 46 48 48 48 48 50 52 53 52 52
38 39 37 35 37 44 45 47 47 44 46 45 42 41 42 46 41 44 47 47 47 45 43 43 42 41 41 40 41 43 43 43 44 45 47 49 50 51 52 53 52 51 50 51 51 54 54 53 53
36 36 34 34 36 42 43 44 43 42 38 38 38 38 39 37 39 42 43 44 46 45 42 42 43 43 41 39 36 38 38 38 39 40 41 41 43 43 43 45 45 46 46 48 51 53 54 53 52
36 37 36 35 35 38 37 38 37 38 36 37 37 35 36 33 36 40 43 43 43 39 38 35 34 32 33 35 37 38 40 41 43 44 44 46 47 48 48 47 48 49 49 49 49 50 50 52 51
38 39 37 36 35 37 37 39 33 37 36 37 38 38 38 35 40 42 44 43 38 35 35 34 33 34 35 37 40 40 40 41 42 40 40 43 47 51 52 53 53 52 51 52 52 53 54 55 56
34 34 34 34 35 36 37 39 36 34 37 37 40 42 42 36 38 39 41 37 36 38 37 35 35 37 37 37 38 38 39 40 40 39 39 41 45 49 51 53 55 55 54 53 54 55 54 55 56
36 35 35 36 37 37 37 39 41 42 41 41 40 42 41 39 40 40 37 36 36 37 39 37 37 39 39 38 41 43 42 41 39 40 41 44 47 48 50 52 54 56 57 58 58 57 56 55 56
36 37 38 40 39 38 38 39 40 40 37 36 35 39 42 43 43 42 39 42 41 39 40 42 41 40 41 43 46 45 40 40 42 43 45 49 54 56 56 55 55 55 55 56 58 58 58 58 57
37 37 35 37 41 41 41 40 39 38 38 38 39 42 45 46 46 44 43 43 44 42 40 41 44 48 48 44 40 38 39 41 45 47 50 56 60 58 59 61 62 61 58 57 57 58 59 58 59
40 38 39 41 43 44 44 41 39 37 42 43 41 45 47 49 50 50 49 48 47 44 46 52 49 45 42 41 42 44 45 47 51 56 59 58 59 60 60 64 67 66 64 62 61 61 61 61 61
21 23 26 31 35 35 31 27 24 26 26 27 28 31 35 36 38 38 38 39 39 42 44 47 45 42 43 46 47 48 51 55 60 61 59 61 62 63 64 68 70 71 70 68 66 65 65 64 65
24 25 25 29 28 29 30 25 23 23 24 27 31 36 40 40 40 40 38 39 41 41 40 41 39 42 47 49 51 53 58 61 63 64 67 69 68 66 62 63 63 65 69 69 68 68 68 67 66

GFSSGP_500_spd_117.txt.gz
Wind_Speed
41 40 38 37 40 44 37 33 32 29 25 24 22 18 16 18 16 11 11 6 5 3 3 5 5 5 5 6 6 6 6 5 5 6 7 8 9 10 11 12 12 13 13 14 14 14 14 15 15
44 43 42 39 41 46 41 36 34 29 26 28 26 22 19 17 16 11 10 8 3 3 3 3 4 5 7 7 7 6 6 6 7 7 8 8 9 10 10 11 11 11 12 13 13 13 13 13 13
48 46 44 43 41 43 41 38 39 36 29 29 26 25 25 21 18 13 13 8 4 7 7 7 4 5 8 8 7 7 7 7 8 9 9 10 11 11 11 11 11 11 11 10 11 11 11 12 12
52 50 47 45 37 38 39 40 43 40 35 29 29 29 25 21 16 14 14 13 10 10 9 7 7 7 7 9 9 9 8 8 9 9 10 10 10 10 10 10 11 11 11 10 10 10 11 11 11
55 52 49 45 40 37 39 41 45 43 39 35 31 31 28 24 21 18 15 12 13 13 11 9 8 8 10 10 11 11 11 11 12 12 13 13 14 13 12 12 12 11 11 11 11 12 12 12 12
59 55 51 46 41 41 42 41 45 47 43 39 37 31 29 28 21 16 16 15 15 15 15 12 10 11 12 13 14 14 15 16 16 17 16 16 15 14 13 12 11 12 13 13 14 14 13 13 13
61 58 53 47 46 45 45 43 45 48 46 43 40 37 34 33 27 20 17 18 16 17 17 17 17 15 15 14 16 17 19 19 19 20 20 20 19 17 16 15 15 16 17 17 17 16 15 14 14
62 60 53 51 49 49 49 47 45 50 49 47 43 41 38 36 32 27 26 20 21 24 20 17 15 14 15 16 18 20 21 21 21 21 22 23 23 22 20 18 19 20 21 21 21 21 19 20 19
54 63 55 53 51 50 50 48 51 53 54 50 48 46 42 39 36 31 21 17 19 19 18 19 18 18 20 22 23 22 21 21 22 24 25 26 27 27 26 25 22 24 26 25 25 24 27 27 24
56 58 58 54 50 51 51 49 48 48 54 55 51 48 47 44 40 36 35 28 19 18 21 23 25 25 25 24 23 24 24 24 24 25 25 28 29 29 30 30 30 29 29 30 29 33 29 30 29
57 50 59 55 52 51 52 51 46 43 51 57 53 51 48 45 43 41 38 33 28 27 25 25 27 27 26 25 26 27 27 28 28 29 30 31 30 31 31 31 31 32 32 33 35 34 29 30 35
59 52 57 60 56 55 54 53 49 45 49 52 49 48 48 47 44 42 38 35 31 28 32 29 32 33 32 31 32 32 32 33 35 34 34 34 35 35 34 34 34 36 36 36 37 35 35 32 38
60 59 49 58 60 59 59 57 54 51 50 50 50 49 47 41 39 41 39 34 33 34 36 34 32 34 34 33 34 35 35 36 37 38 40 40 40 39 39 41 39 41 41 39 39 39 41 44 39
40 55 47 50 54 55 55 53 54 49 51 51 52 49 41 42 42 42 37 35 36 38 35 38 35 37 38 36 36 37 37 36 37 38 41 43 44 46 45 45 44 46 44 43 43 43 41 44 44
46 37 38 41 38 46 53 55 54 42 48 43 41 41 44 43 42 40 38 38 39 38 39 40 41 41 39 37 38 38 38 38 36 38 40 42 42 45 45 45 47 45 44 48 50 46 47 48 47
51 43 30 34 32 35 40 44 46 42 49 42 37 37 39 42 39 39 38 39 39 40 43 47 47 45 43 40 38 37 37 37 36 38 39 42 43 42 44 44 44 47 47 48 48 50 51 49 44
44 38 37 34 34 35 34 33 31 36 37 35 38 39 39 40 39 40 41 43 46 46 46 47 45 43 43 39 36 37 38 37 37 37 39 41 41 40 42 42 42 42 43 44 42 49 47 48 49
42 47 42 36 35 36 37 37 33 34 35 40 42 43 43 42 43 44 45 47 45 45 47 47 47 47 44 40 39 36 36 38 38 38 39 40 41 42 42 43 43 42 43 48 48 46 50 55 54
31 31 31 28 30 33 35 38 35 38 40 43 46 46 42 39 39 45 47 45 45 47 48 48 47 48 45 41 38 38 37 37 39 39 39 42 44 45 46 46 47 46 47 48 49 48 49 50 52
30 30 29 30 33 36 39 40 40 39 41 43 42 38 37 37 40 43 45 46 46 46 46 45 42 45 45 42 40 38 38 39 42 43 45 46 47 47 47 49 50 51 50 51 49 50 50 51 51
28 30 32 32 33 38 38 41 41 37 37 38 39 37 37 39 40 40 39 40 41 41 42 41 41 45 46 45 43 44 44 45 45 43 42 43 41 39 41 41 42 45 44 45 45 45 45 46 47
31 32 32 31 31 35 37 39 37 37 36 35 36 36 35 37 37 35 36 38 41 40 40 40 42 41 44 43 39 38 38 39 40 41 41 42 40 42 44 46 47 48 48 48 48 48 48 50 50
35 34 33 33 33 36 37 39 36 37 37 35 36 38 38 40 38 36 38 39 41 40 41 40 37 37 36 35 38 39 40 41 41 42 43 44 45 44 45 46 47 47 49 50 50 49 48 48 49
38 37 37 37 36 36 38 39 39 36 37 36 35 38 40 38 38 38 40 41 44 46 43 40 38 38 36 36 37 39 41 44 46 47 47 45 43 44 47 48 49 47 47 50 51 52 52 52 50
40 38 38 38 38 39 39 38 40 38 39 38 36 37 38 40 41 41 44 46 46 44 41 40 41 41 39 38 39 41 43 46 48 49 49 45 45 49 51 52 51 48 48 50 52 52 53 53 53
37 35 34 33 35 35 34 37 41 38 37 38 38 39 39 42 43 43 41 40 41 43 43 44 43 43 43 43 44 46 47 48 49 50 49 48 50 54 54 54 52 54 54 54 52 54 56 56 55
36 35 34 34 35 36 38 39 42 42 39 37 38 37 38 39 41 42 43 44 44 44 46 48 49 47 49 51 51 51 49 48 48 46 48 49 51 53 55 56 58 58 57 58 60 59 57 58 58
38 35 35 38 39 40 40 39 39 38 38 34 38 40 40 41 44 45 46 47 48 48 49 50 50 50 51 50 48 48 50 52 51 53 53 53 55 55 57 59 59 57 59 61 62 64 63 60 59
40 41 39 36 36 38 40 40 36 35 34 32 33 36 37 38 42 45 46 47 48 49 50 51 53 52 52 51 53 54 48 49 52 54 56 58 59 60 60 61 60 62 63 64 64 65 66 66 63
23 29 31 34 31 29 27 25 22 20 22 26 31 33 35 37 38 38 38 37 37 38 39 42 43 45 46 48 48 53 55 55 57 59 61 63 64 64 64 64 64 65 65 63 64 63 63 64 64

GFSSGP_500_spd_120.txt.gz
Wind_Speed
41 39 39 39 42 44 39 30 37 31 30 27 21 19 16 15 19 13 13 13 11 10 9 8 9 5 4 3 1 2 3 4 5 6 6 8 9 8 9 9 9 8 8 9 9 10 10 11 11
45 43 42 41 44 45 40 37 38 36 32 27 24 21 19 20 16 15 15 12 10 8 6 5 5 6 2 1 2 2 3 5 6 7 7 8 8 7 7 7 7 7 8 9 10 11 11 11 10
49 46 45 45 44 47 35 45 45 38 35 30 27 26 23 18 17 15 16 13 8 7 6 6 6 6 4 3 4 5 5 5 7 8 9 9 9 10 10 9 8 9 10 11 12 13 13 12 12
53 51 49 47 43 42 48 46 46 42 36 32 29 30 27 26 21 19 15 15 11 8 8 8 8 7 5 5 5 6 7 7 7 9 10 10 11 11 11 11 11 11 12 13 13 13 13 13 13
57 56 52 49 45 46 49 52 47 45 41 37 34 34 30 27 22 18 17 15 15 13 12 12 10 9 8 7 7 7 6 8 10 11 12 12 13 13 14 14 14 13 13 13 13 13 13 12 12
62 57 57 51 47 47 47 51 50 47 45 42 39 37 35 30 26 23 21 19 17 15 14 13 10 9 9 9 9 9 9 11 13 14 15 17 18 18 18 17 16 15 14 14 14 14 15 15 15
62 61 59 52 49 50 48 49 51 49 47 43 47 40 37 33 30 24 20 19 18 16 16 15 15 15 14 13 10 11 13 14 16 18 20 21 21 21 21 21 20 18 17 15 16 17 18 18 18
66 63 59 59 57 51 52 47 52 49 51 48 45 42 39 36 32 28 26 22 16 17 21 22 16 17 15 14 14 15 16 18 20 20 21 22 24 25 26 26 25 24 23 23 23 22 23 24 24
70 61 57 60 57 56 52 49 47 50 52 51 49 47 42 37 37 36 33 27 19 20 19 19 20 17 17 18 19 20 22 22 21 21 22 23 24 25 27 28 29 29 30 30 29 27 27 28 26
71 67 57 64 63 59 53 52 52 50 51 52 52 51 49 46 42 40 36 32 23 17 16 18 21 20 22 23 22 23 23 24 24 24 24 26 27 28 30 31 31 32 33 32 32 31 32 29 28
69 70 61 66 65 61 60 53 52 52 52 52 54 55 52 49 45 41 38 36 31 28 23 24 24 24 26 25 27 27 27 27 28 29 30 30 31 33 33 33 33 34 33 33 35 35 33 34 30
63 62 63 59 63 62 60 58 56 54 53 56 54 52 53 53 47 43 41 40 37 34 30 29 32 30 31 31 31 31 31 31 33 35 35 35 36 37 38 37 37 36 36 37 37 39 38 37 38
61 69 64 59 56 64 65 65 58 59 56 51 52 53 56 55 51 48 46 42 38 33 30 31 34 36 34 33 34 32 33 34 36 37 38 40 40 41 41 42 42 41 41 41 41 42 43 42 44
53 58 64 64 58 66 65 67 64 56 56 52 50 50 50 53 54 49 45 40 36 32 32 35 37 38 37 36 36 35 35 38 39 40 40 40 40 41 43 45 46 46 47 47 47 44 45 44 45
37 49 56 66 59 60 68 70 66 60 58 56 53 49 48 51 53 47 43 38 37 36 36 35 39 39 38 38 38 37 38 40 41 40 40 40 41 42 42 43 45 46 48 47 45 45 46 48 48
48 52 58 48 57 62 63 65 65 59 61 56 54 50 50 48 47 48 47 44 39 37 38 39 39 41 41 41 40 40 40 41 43 41 42 41 41 42 42 41 41 44 42 44 44 43 45 46 45
43 49 48 48 36 42 59 53 57 64 59 52 54 52 52 52 50 48 43 40 41 41 40 41 43 44 42 42 42 39 40 41 41 42 43 43 44 44 41 40 44 44 46 43 42 42 43 44 44
38 46 54 48 37 30 39 51 61 51 52 46 51 51 51 51 47 40 38 39 41 43 44 42 44 45 41 41 41 40 39 41 40 40 42 43 44 45 43 41 40 42 43 44 43 44 45 45 48
36 43 53 47 44 34 31 36 38 41 40 47 43 45 46 44 41 39 40 42 44 43 42 43 44 43 42 45 41 39 38 38 39 39 40 42 43 42 42 41 43 45 46 47 47 45 46 46 47
30 28 34 34 34 32 33 31 29 25 24 29 31 34 38 40 40 39 42 43 43 42 42 42 42 44 43 45 41 37 37 37 39 40 40 42 43 42 43 45 47 48 49 49 45 41 40 40 42
28 29 30 30 29 32 35 35 33 32 34 38 38 41 40 37 39 40 41 42 42 40 40 40 41 42 40 42 43 41 40 41 43 44 45 45 45 45 46 46 45 43 42 42 44 45 45 46 45
28 28 29 30 29 32 34 33 35 34 34 36 36 38 37 35 37 38 38 39 40 40 41 41 43 41 39 40 43 45 45 43 42 40 40 40 40 41 43 43 43 44 46 46 48 48 48 48 48
29 31 29 30 31 33 34 32 23 31 31 32 31 31 33 33 34 35 37 37 38 39 39 40 40 39 41 43 43 42 44 42 39 40 40 42 44 45 45 45 46 49 49 49 47 47 46 47 45
36 30 31 31 31 33 32 32 29 35 30 31 33 34 35 35 36 37 38 37 39 40 39 39 39 43 44 40 41 41 44 43 41 41 44 44 47 48 49 50 50 51 51 50 49 47 45 44 47
39 36 32 32 33 29 31 36 29 38 32 34 35 35 37 38 39 39 39 40 41 42 43 44 43 46 46 44 45 47 46 44 44 45 46 48 51 52 54 54 54 55 54 54 51 49 48 48 50
39 38 28 30 25 22 36 34 36 39 36 36 35 34 36 38 39 40 41 42 43 44 46 47 46 46 46 47 48 49 48 49 50 50 53 53 52 52 53 55 57 59 61 59 56 53 51 54 52
35 37 28 28 34 31 23 34 38 38 37 37 36 34 33 36 38 41 43 44 45 44 44 44 42 43 47 50 51 53 54 54 55 55 55 54 54 55 57 57 59 62 63 59 58 57 58 58 57
35 32 35 35 32 34 27 36 22 41 39 36 36 37 39 40 42 42 43 44 44 45 45 46 46 47 49 51 53 53 51 50 51 54 56 57 59 60 63 63 63 62 62 61 61 61 61 60 62
36 36 36 33 31 33 33 20 31 42 37 36 37 38 40 41 42 43 44 46 47 48 49 51 52 53 55 56 55 53 52 52 54 57 60 62 61 64 63 65 65 63 64 65 66 65 64 65 62
37 37 36 36 39 36 35 26 38 37 35 36 40 43 45 46 46 45 44 44 44 44 43 44 46 48 49 49 51 52 54 57 60 62 64 64 65 62 63 65 66 66 65 65 66 67 66 65 64

GFSSGP_500_spd_123.txt.gz
Wind_Speed
38 38 38 38 39 40 36 25 16 20 28 26 19 21 23 25 27 24 20 17 15 12 11 11 10 7 5 5 4 3 2 1 3 4 6 8 9 9 9 9 8 8 8 10 10 10 11 12 13
43 40 39 41 41 42 37 23 25 27 31 25 22 22 18 23 15 17 21 17 15 15 12 11 9 7 5 3 2 2 3 4 4 5 7 8 8 9 9 9 10 10 10 11 10 11 13 14 15
48 44 44 43 43 45 26 28 26 25 39 27 26 24 21 21 16 13 17 16 13 12 11 9 9 9 7 4 2 2 3 4 4 5 6 8 10 11 11 11 11 10 11 12 13 13 14 14 14
52 50 48 50 47 43 34 20 35 42 36 30 31 26 26 21 18 17 16 17 15 14 12 11 10 11 8 7 5 4 4 4 6 7 8 10 12 13 13 13 14 15 15 16 16 15 15 15 15
55 54 54 51 47 43 37 23 31 36 33 37 34 25 34 30 25 22 20 19 18 15 12 12 12 12 9 8 8 7 7 7 9 10 11 14 15 16 16 17 19 18 18 17 17 17 16 17 17
58 57 59 54 49 47 32 39 47 29 30 41 39 28 33 34 30 27 24 23 19 18 16 15 14 12 11 12 11 10 10 10 12 13 15 17 19 21 21 21 22 22 21 20 20 20 20 20 22
61 61 61 56 51 46 37 47 31 44 38 37 42 34 40 34 32 28 27 25 21 19 18 18 16 14 15 13 14 13 12 13 14 16 19 20 21 22 22 22 22 23 23 23 24 25 26 26 26
64 64 63 60 49 44 38 42 43 40 32 34 47 31 39 44 35 33 30 27 20 17 18 18 18 18 18 17 17 14 15 16 18 20 21 21 22 23 23 24 25 25 25 26 27 28 28 28 28
66 69 68 62 59 34 40 41 48 47 48 51 52 44 47 42 42 35 35 34 26 22 21 21 17 19 20 17 16 17 19 20 21 22 22 23 24 25 25 27 27 27 28 28 29 30 30 29 29
74 71 69 56 48 43 30 42 52 52 48 53 55 54 54 52 42 37 39 37 33 30 22 18 16 16 19 20 20 21 23 24 24 24 25 26 28 28 29 30 30 31 31 31 32 32 30 30 30
74 75 68 55 66 60 52 48 57 58 49 45 43 49 53 52 47 44 43 41 38 32 28 23 21 20 23 24 26 26 27 27 27 28 29 30 31 32 33 34 34 35 35 35 36 35 35 34 34
76 77 69 69 68 69 64 65 57 59 52 47 53 57 51 51 49 49 48 48 42 35 33 31 31 29 29 33 33 32 31 29 28 30 31 33 34 34 35 35 37 37 38 39 39 40 38 38 38
68 78 69 74 75 75 71 65 66 61 65 64 62 58 51 47 49 48 49 51 45 40 37 33 33 33 33 35 36 36 34 33 34 35 35 35 36 37 38 39 40 41 41 42 42 41 41 43 45
70 73 81 62 80 72 72 65 65 65 63 68 63 59 55 53 50 48 50 50 46 43 38 36 35 36 37 37 39 38 36 37 39 39 39 39 39 39 41 42 41 41 42 42 41 41 42 43 42
50 54 77 66 71 70 67 65 57 64 59 68 64 60 58 57 52 38 49 51 47 45 42 35 32 35 37 40 39 38 38 39 40 42 41 41 41 40 41 41 40 41 40 40 41 41 40 36 40
56 56 73 67 61 74 72 68 59 66 69 66 59 59 57 57 55 54 33 44 48 43 40 35 35 37 38 38 39 40 42 43 43 43 43 40 42 42 42 42 42 43 43 42 40 41 42 43 41
58 43 58 43 37 74 73 67 59 67 72 71 65 59 60 57 56 57 55 51 44 41 43 41 39 40 40 42 42 43 43 42 43 43 41 39 42 43 44 43 42 43 45 44 44 43 44 43 41
56 42 41 35 30 51 71 69 60 53 62 73 71 65 59 56 55 56 54 50 48 46 43 41 43 43 45 44 44 45 44 40 43 44 42 42 42 44 43 41 40 41 42 44 44 44 43 42 42
34 30 33 37 30 48 41 53 57 61 63 67 74 68 62 61 55 56 56 51 52 44 41 42 43 45 48 46 44 44 42 41 42 44 41 41 41 42 42 41 40 41 43 46 45 44 45 46 47
35 28 30 26 33 38 38 37 28 51 60 50 67 71 61 62 63 61 61 56 48 44 44 44 45 46 46 45 45 44 41 43 41 41 41 41 41 41 41 40 44 45 47 49 48 47 43 39 40
33 27 28 30 32 33 32 43 43 30 38 53 53 58 56 63 61 59 56 47 41 44 44 46 46 45 44 46 45 44 42 41 38 40 40 42 43 41 34 50 47 46 47 47 44 42 40 43 44
30 30 19 22 28 26 30 27 34 34 23 23 32 26 32 35 35 31 33 34 41 43 44 44 44 43 44 45 45 44 44 41 41 41 41 39 42 43 42 44 44 44 45 44 43 43 44 45 46
27 26 26 23 26 21 22 28 29 26 29 31 24 27 32 34 33 32 34 39 42 42 42 43 43 44 45 43 44 42 42 44 45 45 43 43 44 43 43 44 45 46 47 45 46 47 48 48 48
29 21 28 29 22 26 24 21 20 26 28 25 29 31 31 37 32 34 36 39 41 41 41 42 42 43 43 42 42 43 43 48 48 48 45 47 47 46 45 45 47 48 49 49 50 51 51 51 51
34 31 24 24 27 26 20 25 18 10 22 26 28 33 35 31 36 37 37 39 39 39 39 40 41 41 42 43 43 44 46 49 52 52 50 50 49 48 49 50 51 52 53 54 55 54 54 56 54
40 33 26 23 25 19 20 18 19 27 38 26 27 29 31 33 36 36 38 39 40 39 40 41 42 41 43 45 46 49 53 52 53 52 52 51 52 52 53 53 56 57 58 57 55 56 55 57 58
33 36 29 17 17 16 23 24 29 36 39 32 31 32 31 31 33 35 36 38 40 40 41 42 43 44 45 47 48 48 49 52 54 53 53 52 55 57 58 58 59 60 60 60 62 60 60 62 61
29 27 32 25 19 26 17 19 17 28 36 32 33 31 29 32 35 37 38 39 41 41 43 44 45 46 46 47 47 48 48 51 53 54 54 56 57 57 60 61 62 61 62 63 63 66 64 61 61
33 31 31 26 23 22 23 17 26 31 33 33 29 31 32 33 37 38 40 42 43 45 44 45 46 47 48 49 50 51 53 55 55 55 56 58 58 58 60 62 65 66 65 65 68 65 63 64 66
27 29 31 28 28 23 23 27 21 29 32 35 26 27 35 37 39 41 41 42 42 43 44 45 47 48 49 50 50 50 51 53 54 56 58 58 60 61 63 65 67 67 66 66 65 66 68 67 67

GFSSGP_500_spd_129.txt.gz
Wind_Speed
36 36 36 36 36 33 28 26 22 14 22 16 20 20 16 15 25 26 17 13 14 16 15 14 12 11 10 8 7 7 5 3 1 1 5 7 7 7 8 10 12 13 14 15 17 19 20 21 22
40 39 39 41 39 37 28 27 14 6 15 13 19 26 28 28 31 13 11 15 17 17 17 16 15 13 12 10 8 5 3 2 1 4 4 4 5 7 10 12 13 14 15 17 19 20 20 22 22
44 44 42 44 42 38 30 30 15 9 15 13 31 19 31 31 37 20 24 20 19 17 17 16 14 11 9 7 5 5 4 5 5 4 2 3 7 9 11 13 15 16 17 18 19 19 20 20 20
49 49 46 48 44 35 34 32 25 16 11 14 21 24 35 31 31 28 30 20 15 14 16 14 12 11 10 9 7 7 7 5 4 2 1 4 8 10 13 14 15 17 18 18 19 19 20 20 20
48 51 52 51 45 38 34 35 30 29 22 19 22 25 33 32 30 32 14 12 16 16 17 14 11 12 11 12 11 10 8 6 5 4 5 6 8 11 13 14 16 18 19 20 20 20 20 20 21
48 50 52 53 45 39 36 35 39 34 24 17 21 20 22 28 28 19 17 16 18 19 19 17 16 14 14 14 14 12 10 8 7 7 7 8 10 12 14 16 17 18 20 21 21 22 22 22 23
49 51 50 51 47 45 39 38 36 39 26 26 22 26 24 21 25 29 20 19 23 22 23 22 21 18 16 15 16 15 14 12 10 8 9 10 10 13 16 18 18 19 21 23 24 24 25 25 25
52 54 53 51 49 44 40 38 40 41 24 25 17 30 31 24 24 25 31 23 28 26 24 23 21 19 16 15 16 18 18 16 14 12 12 12 14 15 17 18 19 21 23 25 27 28 28 29 28
48 55 55 51 48 45 47 49 50 44 31 25 27 32 23 28 34 39 36 31 37 30 27 26 25 21 18 17 17 20 20 18 17 17 16 16 17 18 18 19 21 23 25 26 28 30 31 31 31
51 53 51 48 50 47 51 57 57 46 49 42 36 27 29 35 26 33 38 32 34 32 28 28 26 23 20 20 19 20 22 20 19 18 19 19 20 20 20 21 23 26 27 28 30 32 32 31 31
49 51 48 45 44 51 55 60 54 49 52 48 36 21 37 41 44 37 24 46 35 39 35 28 30 31 28 24 20 21 20 21 22 23 23 23 23 23 23 24 27 29 29 31 33 33 31 30 29
52 50 50 48 47 52 59 62 64 63 53 46 52 43 27 38 62 51 37 36 38 31 34 34 34 35 34 30 29 26 24 24 25 26 28 26 26 26 25 28 30 32 33 35 35 34 31 28 27
50 49 50 50 50 57 57 65 66 66 57 62 63 40 64 44 42 53 51 45 61 46 47 46 43 39 38 36 35 34 31 31 31 31 31 30 29 27 28 31 33 34 35 36 37 37 33 27 28
45 47 49 51 53 60 61 63 69 67 64 61 67 60 61 68 48 22 36 48 47 56 53 50 45 42 41 40 35 35 34 34 34 34 32 31 32 31 33 35 35 37 37 39 41 40 35 27 20
47 50 51 52 54 64 65 66 64 67 71 59 62 58 66 71 54 56 44 45 47 38 46 44 47 41 37 39 37 36 36 36 36 36 35 33 32 35 36 37 39 40 40 40 38 41 43 20 21
45 48 52 51 56 65 70 66 64 63 69 73 67 62 66 67 60 60 56 54 39 30 43 35 53 52 38 37 36 35 35 37 36 37 36 34 36 38 38 39 40 41 41 42 37 29 11 18 23
46 44 42 49 55 62 72 68 65 66 69 72 68 61 55 55 49 51 57 62 66 59 50 30 44 49 44 32 34 33 34 38 39 39 35 37 38 39 42 42 42 42 40 39 33 29 28 36 44
40 40 39 45 51 63 71 71 69 68 68 71 71 69 62 49 47 57 58 64 70 63 62 45 56 29 37 36 31 35 37 39 41 40 39 41 40 37 42 45 44 42 38 37 33 31 36 38 38
25 26 30 39 47 57 65 72 64 65 67 61 72 71 68 54 50 48 55 61 65 67 64 60 52 29 12 20 28 36 38 40 40 42 43 44 44 42 41 43 42 38 39 37 36 35 35 37 36
27 19 25 36 44 41 46 52 58 67 62 67 69 66 74 69 61 61 63 67 68 70 73 68 60 65 59 33 34 37 40 41 44 43 43 43 45 43 40 39 40 38 36 39 37 35 37 33 40
25 20 21 37 34 31 44 44 60 43 64 72 59 64 72 72 62 56 59 64 57 71 72 72 68 64 62 53 43 41 43 43 42 43 43 42 42 41 39 41 40 38 39 38 38 36 40 37 36
28 20 22 32 34 32 32 39 42 47 51 72 70 61 54 63 74 66 56 52 55 52 62 69 53 57 59 57 45 44 44 41 43 46 44 42 41 40 39 39 39 40 39 37 30 36 37 34 33
19 29 32 35 24 24 28 35 25 18 31 52 64 64 56 50 59 75 70 52 51 51 55 61 62 72 62 50 48 50 49 43 41 45 45 40 38 39 43 40 39 39 40 40 38 36 36 35 38
18 28 27 35 20 19 15 19 15 14 5 13 39 41 52 52 51 42 52 63 57 56 60 58 56 44 48 48 47 47 40 39 40 42 41 40 40 41 43 40 38 40 40 43 40 40 38 39 41
29 25 25 35 34 18 24 26 14 14 13 9 12 23 26 40 36 43 49 51 56 57 51 57 50 32 32 31 32 40 38 35 40 41 42 44 44 43 43 42 41 40 44 45 43 44 43 44 44
39 37 37 33 28 8 21 21 15 14 8 10 18 23 18 28 25 29 45 58 59 34 23 47 46 26 26 29 30 34 39 40 42 46 48 49 48 46 43 46 47 47 47 45 47 49 50 49 50
33 47 36 33 23 24 18 19 21 20 20 18 20 22 17 17 14 19 22 14 16 18 21 29 31 24 28 31 34 37 39 43 44 46 46 50 52 51 52 52 51 51 51 50 51 52 53 54 55
37 34 32 35 34 26 24 25 21 26 26 22 17 10 16 14 14 18 18 18 16 19 23 24 27 33 36 38 41 41 42 42 44 46 48 50 52 54 54 54 54 54 55 57 58 58 58 57 55
36 39 35 40 41 28 26 34 32 23 15 23 17 16 18 12 17 21 23 26 30 32 32 34 35 37 39 39 41 42 44 45 46 48 50 53 54 56 55 57 52 45 52 52 53 54 55 55 55
29 27 30 37 20 25 24 33 32 28 28 22 22 21 18 16 18 21 23 24 26 28 32 32 34 36 38 40 42 44 47 47 49 50 52 52 54 55 57 53 59 60 58 58 57 58 56 56 56

GFSSGP_500_spd_132.txt.gz
Wind_Speed
40 39 37 35 35 32 31 29 14 14 20 9 14 9 14 6 18 15 12 12 14 17 16 14 13 12 12 10 8 6 4 2 2 4 6 6 5 5 6 7 9 11 13 14 15 16 17 18 19
43 42 40 40 38 34 29 29 14 19 17 16 12 10 7 14 10 15 9 5 10 16 19 17 16 15 13 11 8 5 3 3 3 6 5 4 3 4 7 9 11 13 14 15 17 18 19 20 20
49 45 44 45 42 35 28 28 20 18 24 12 11 9 14 10 16 16 12 18 23 21 18 18 16 13 10 8 5 4 4 4 5 5 3 2 3 5 7 10 13 15 15 17 18 19 20 21 21
51 51 48 49 43 34 30 31 28 16 19 11 8 16 14 15 16 16 16 22 19 21 18 15 13 11 9 8 6 4 5 5 6 6 4 1 3 6 8 11 14 15 16 17 19 20 21 21 22
49 52 54 52 44 35 32 39 35 26 24 23 11 13 18 15 18 14 13 10 19 20 18 16 13 11 10 9 8 8 8 8 8 7 5 4 4 6 8 11 13 14 15 18 19 20 22 23 24
48 52 55 54 45 40 35 40 42 36 29 31 22 21 17 12 13 19 10 14 20 21 17 14 13 12 12 11 10 9 10 11 10 9 8 7 8 9 9 11 12 13 15 17 19 21 23 25 26
46 49 51 50 48 45 38 37 47 43 36 33 28 26 22 18 18 20 18 14 22 27 22 17 16 15 12 12 13 13 15 14 12 11 10 9 10 12 12 13 12 13 15 17 19 22 24 26 28
50 50 48 48 47 46 41 42 45 45 35 42 40 36 26 24 24 22 28 27 24 23 22 19 18 17 17 17 17 17 17 15 13 13 14 13 13 15 15 14 14 15 17 19 21 23 26 27 28
54 53 48 45 43 47 48 49 48 53 45 47 46 40 42 27 28 26 27 35 32 27 26 25 21 20 20 19 18 18 17 17 15 17 18 17 16 17 17 16 15 17 19 21 23 25 27 27 27
54 52 48 45 44 44 51 54 57 56 52 53 52 37 35 33 23 23 29 32 30 32 32 28 27 24 23 21 20 19 16 18 19 19 19 19 19 20 20 19 18 20 23 24 25 27 28 28 27
52 51 50 49 47 47 49 56 58 51 55 54 58 44 41 45 31 27 26 30 33 34 30 35 32 27 26 24 22 19 18 20 21 23 22 22 23 23 23 22 22 23 25 25 26 28 29 31 31
54 50 50 49 47 42 51 57 62 57 52 59 62 54 47 43 47 45 38 35 41 39 39 37 37 32 28 26 26 26 24 23 20 22 23 25 26 27 27 24 23 26 28 28 28 30 32 32 32
52 50 51 50 48 45 49 58 60 63 61 58 66 63 54 54 37 41 50 45 34 41 48 46 44 38 33 29 30 31 32 32 30 27 27 28 28 30 30 28 28 30 31 31 30 30 28 29 32
49 50 52 53 50 50 53 54 60 60 66 62 64 67 73 61 51 34 48 46 46 40 39 46 51 48 39 36 34 35 33 29 28 31 31 32 31 30 31 30 32 34 35 33 31 29 29 28 19
51 54 57 55 53 53 58 59 57 61 63 68 66 67 70 66 58 58 53 52 37 44 45 48 45 47 49 41 35 32 35 32 33 33 31 33 34 33 30 32 35 38 37 35 33 33 31 29 11
52 55 56 53 54 56 61 61 60 59 62 67 70 70 65 66 72 71 68 63 47 34 36 65 59 61 56 49 39 39 37 36 33 33 34 34 34 35 33 34 39 40 37 35 35 33 29 27 25
56 54 55 52 52 56 60 62 59 62 63 62 70 74 70 67 68 69 57 67 61 70 59 48 54 51 52 45 44 42 40 38 35 31 35 35 36 36 35 37 41 41 39 37 37 34 30 29 29
55 54 52 50 49 54 57 59 59 61 65 65 65 74 75 71 73 65 66 59 54 57 55 51 47 44 43 49 55 51 56 43 33 35 37 38 37 37 37 39 43 42 41 40 39 36 31 30 30
47 47 42 42 41 43 44 51 57 60 66 68 65 70 78 61 69 66 66 59 60 61 55 50 46 44 43 51 53 56 54 33 30 38 35 38 38 40 37 38 41 44 42 39 36 33 33 33 32
43 38 35 38 40 42 44 47 51 59 66 70 69 70 75 77 66 68 67 70 65 63 56 53 46 44 44 46 47 50 33 35 37 41 43 41 39 38 39 43 43 43 42 38 35 34 33 33 35
37 35 36 36 36 39 41 48 52 54 62 72 73 72 74 74 68 67 72 68 63 60 60 57 51 49 42 41 49 55 57 54 45 40 41 41 39 39 42 45 44 41 39 40 37 35 34 32 30
33 35 31 26 28 30 34 44 49 54 60 63 74 75 74 70 74 68 68 68 66 60 62 59 45 39 41 39 42 51 55 55 35 40 42 42 42 40 42 44 43 42 40 41 39 34 36 33 38
31 27 24 22 24 26 31 38 29 29 40 57 64 72 75 64 60 68 65 66 66 68 68 59 43 35 38 34 39 41 48 54 41 40 46 47 45 40 41 42 42 40 40 38 37 34 42 42 41
27 26 25 25 26 32 22 29 17 24 18 21 42 56 60 51 60 66 75 73 73 74 71 68 66 56 50 47 40 38 41 45 46 47 48 45 40 36 37 39 41 41 38 40 40 42 43 44 44
32 33 30 34 36 15 13 18 8 15 17 18 23 34 41 49 58 59 62 60 52 62 66 68 68 59 59 45 44 48 44 42 47 46 46 45 40 38 39 42 44 43 43 44 39 44 50 48 46
36 30 36 43 27 11 14 11 12 19 25 29 27 27 33 43 48 51 64 52 50 54 53 54 45 45 43 42 36 38 40 35 39 44 39 39 41 44 43 45 43 44 46 48 49 50 49 51 51
36 39 35 31 25 19 15 19 15 19 21 22 31 23 27 31 35 44 40 41 46 40 31 35 34 38 32 30 32 31 33 31 33 34 36 39 41 43 46 47 47 50 51 51 50 52 53 53 53
35 31 39 33 28 17 22 15 18 20 20 18 16 12 16 20 34 42 48 44 39 43 37 35 31 27 31 34 34 34 33 36 38 41 41 41 45 47 47 48 51 50 50 54 52 53 53 55 55
38 39 39 30 34 29 23 21 22 19 22 18 15 11 10 18 14 31 36 30 30 31 31 28 29 32 35 36 39 40 39 41 43 45 46 48 49 50 50 53 54 52 52 49 49 54 52 53 55
32 36 37 35 36 33 28 25 29 23 13 15 18 13 10 13 17 19 14 19 20 19 23 27 30 32 35 36 38 40 42 44 45 47 49 51 54 55 54 56 58 59 59 57 60 58 61 62 58

GFSSGP_500_spd_135.txt.gz
Wind_Speed
42 40 36 33 34 34 35 29 21 20 27 22 11 10 12 18 18 13 11 6 10 13 15 15 14 13 12 13 11 9 8 5 4 5 6 5 4 4 5 7 9 10 11 12 14 16 17 18 19
47 43 41 38 38 34 34 31 21 26 22 23 17 15 13 6 20 13 11 8 1 6 14 15 13 13 14 12 9 7 6 3 3 5 4 2 3 4 5 6 8 10 11 13 15 16 17 18 20
51 48 45 45 42 35 32 33 27 25 22 20 16 15 11 18 15 17 10 7 6 11 14 19 16 13 11 9 8 5 2 3 5 6 4 1 1 3 5 7 9 10 11 13 15 16 17 19 21
51 52 51 49 43 33 32 34 32 26 28 32 31 17 16 16 16 17 16 5 10 11 14 18 14 13 10 8 7 4 3 4 6 6 4 3 3 5 7 9 10 10 11 14 15 16 17 19 22
50 52 55 54 45 34 33 39 38 30 27 36 34 26 18 10 12 8 12 7 14 11 13 16 14 13 11 9 7 5 5 5 6 7 6 6 6 7 9 11 12 12 11 14 15 17 19 21 23
49 52 57 54 48 38 36 38 43 40 33 36 38 35 26 12 13 12 12 14 17 12 14 15 15 13 12 10 7 6 6 7 9 9 9 9 9 8 9 12 14 13 13 13 16 18 20 22 23
46 49 53 52 49 44 41 40 46 48 41 38 42 38 31 14 13 13 16 16 20 19 15 17 16 13 9 8 6 7 9 11 11 11 11 10 10 10 10 11 14 15 14 16 17 19 21 23 24
49 48 49 49 51 49 43 45 47 53 52 49 41 39 38 29 21 17 13 18 19 22 23 23 20 17 13 11 11 12 12 13 14 14 13 12 11 12 13 13 14 15 17 18 19 21 23 25 25
53 52 46 42 45 51 49 51 47 53 54 53 51 43 37 30 28 20 23 27 23 21 24 23 20 17 16 14 12 12 13 14 16 16 15 13 13 13 14 16 17 18 20 22 22 24 25 26 27
54 53 47 42 42 46 50 54 52 51 57 58 57 51 45 40 33 30 29 32 31 26 26 26 25 22 20 16 14 14 15 15 16 17 15 14 16 17 19 20 19 20 23 24 26 26 26 28 28
51 51 51 47 45 46 47 51 57 52 56 58 61 59 52 46 40 43 37 37 38 39 39 36 30 27 24 22 20 18 14 14 17 19 17 16 19 22 24 24 23 23 23 25 28 26 27 26 26
52 50 51 49 48 48 50 51 53 58 54 54 59 61 57 53 46 30 40 45 44 44 43 38 39 35 32 30 27 24 19 18 20 19 17 18 21 24 25 27 26 25 26 27 27 26 27 28 27
53 50 50 49 48 48 50 52 55 57 62 55 55 58 59 57 52 48 42 47 39 45 46 43 36 36 39 37 32 28 26 25 23 24 24 26 27 28 29 28 28 27 27 29 28 28 29 30 29
51 51 50 48 47 46 47 52 57 57 59 66 62 58 61 61 57 51 43 45 41 42 41 42 41 39 40 41 38 34 28 27 26 26 27 29 32 32 32 33 31 29 29 31 33 31 30 31 29
54 52 53 52 52 50 50 53 54 57 59 64 69 66 65 63 64 63 58 38 53 46 41 41 43 40 43 43 41 40 39 32 30 32 31 30 32 34 35 35 33 31 31 32 35 35 34 32 32
54 55 55 54 56 55 55 54 55 54 61 61 67 70 70 68 66 67 64 61 60 49 24 39 36 41 49 32 46 46 47 45 41 38 35 34 34 36 37 36 34 34 34 35 37 36 36 34 34
54 52 54 54 56 55 55 56 56 57 57 62 64 68 71 72 71 67 65 68 66 66 61 45 32 34 42 37 39 40 46 52 45 41 43 40 38 39 37 37 33 37 39 38 38 38 35 35 34
54 53 56 54 54 53 52 58 57 58 60 59 61 65 68 71 72 69 62 65 66 63 61 48 53 43 37 37 47 28 41 42 41 40 52 44 43 46 38 38 36 41 41 38 39 39 36 35 36
54 54 54 51 48 48 49 56 56 58 60 61 62 61 69 71 71 72 60 61 63 62 59 56 49 46 51 39 35 28 34 36 36 35 52 57 46 53 42 41 40 43 39 40 39 39 36 34 34
49 50 49 48 43 45 45 45 50 52 55 59 63 63 65 71 75 75 72 65 65 67 65 60 55 49 35 38 32 36 38 35 41 41 34 26 38 47 45 44 41 40 40 40 39 39 38 37 38
48 47 45 42 42 46 45 45 46 48 55 59 61 64 66 68 74 78 75 69 66 67 64 60 60 53 43 36 41 42 44 40 39 31 34 31 42 52 52 47 42 41 42 39 39 38 38 36 40
39 39 41 39 39 42 43 44 44 48 50 55 59 64 67 68 70 75 79 77 62 64 67 68 65 62 50 41 50 50 39 28 30 39 40 46 42 44 50 46 45 42 43 40 40 39 38 37 37
36 39 38 37 39 41 41 44 43 46 47 49 56 63 69 71 69 72 73 69 69 61 63 64 67 57 52 46 46 43 38 35 31 34 40 39 45 49 47 41 44 44 43 41 41 41 38 38 39
37 35 35 34 35 40 39 42 41 39 45 51 55 62 68 71 72 71 69 72 78 75 63 59 63 65 58 51 50 45 41 45 47 42 39 44 49 49 48 47 44 43 41 42 43 41 38 40 40
36 36 35 36 39 40 34 35 29 30 24 20 33 50 61 66 69 72 62 61 69 73 71 64 66 60 55 55 53 48 55 57 55 47 46 45 46 45 43 42 43 43 43 42 47 47 44 44 45
42 43 43 44 39 28 22 19 16 19 23 25 28 34 33 34 37 49 59 62 66 62 63 71 65 59 58 53 47 47 52 55 55 44 43 45 45 41 40 42 43 44 45 45 46 45 45 47 47
41 44 38 34 30 23 23 22 22 20 27 24 22 23 27 36 44 47 46 52 51 58 61 61 64 62 52 47 46 38 42 43 37 38 42 37 34 36 37 39 44 45 46 47 49 48 49 51 49
38 36 37 32 28 30 23 23 20 23 26 29 29 30 34 30 30 31 36 44 48 51 54 52 53 50 46 39 39 38 35 34 32 34 37 35 38 40 40 42 45 48 50 51 48 50 52 54 55
43 40 39 35 33 27 22 25 24 25 24 26 31 35 25 22 25 31 40 42 46 52 55 55 54 42 41 38 32 36 35 34 35 38 41 44 46 49 48 50 52 54 55 56 58 56 58 60 62
37 38 34 32 34 33 25 21 22 21 22 12 17 15 11 12 16 23 39 45 41 48 50 49 42 27 30 33 33 36 39 41 43 44 44 46 48 50 51 53 56 57 58 57 60 60 58 57 59